<?xml version="1.0" encoding="UTF-8" standalone="no" ?>
<gpx xmlns="http://www.topografix.com/GPX/1/1" xmlns:xsi="http://www.w3.org/2001/XMLSchema-instance" xsi:schemaLocation="http://www.topografix.com/GPX/1/1 http://www.topografix.com/GPX/1/1/gpx.xsd" version="1.1" creator="VisuGPX - https://www.visugpx.com">
  <metadata>
    <name>extention de la rando \&quot;collines et bosses de gréasque\&quot;</name>
    <desc><![CDATA[2eme édition  de la rando prévu a la mi-juin 2015]]></desc>
  </metadata>
  <trk>
    <name><![CDATA[Partie Finale De La Rando]]></name>
    <desc><![CDATA[]]></desc>
    <trkseg>
      <trkpt lat="43.4291" lon="5.53669">
        <ele>407.4</ele>
        <time>2015-01-11T08:14:35.000Z</time>
      </trkpt>
      <trkpt lat="43.4291" lon="5.53669">
        <ele>407.4</ele>
        <time>2015-01-11T08:14:35.000Z</time>
      </trkpt>
      <trkpt lat="43.4291" lon="5.53669">
        <ele>399.4</ele>
        <time>2015-01-11T08:14:47.000Z</time>
      </trkpt>
      <trkpt lat="43.42915" lon="5.53674">
        <ele>399.5</ele>
        <time>2015-01-11T08:14:48.000Z</time>
      </trkpt>
      <trkpt lat="43.42919" lon="5.53679">
        <ele>399.7</ele>
        <time>2015-01-11T08:14:51.000Z</time>
      </trkpt>
      <trkpt lat="43.42923" lon="5.53684">
        <ele>400</ele>
        <time>2015-01-11T08:14:54.000Z</time>
      </trkpt>
      <trkpt lat="43.42928" lon="5.53689">
        <ele>400.2</ele>
        <time>2015-01-11T08:14:58.000Z</time>
      </trkpt>
      <trkpt lat="43.42934" lon="5.53692">
        <ele>400.3</ele>
        <time>2015-01-11T08:15:01.000Z</time>
      </trkpt>
      <trkpt lat="43.42939" lon="5.53694">
        <ele>400.3</ele>
        <time>2015-01-11T08:15:05.000Z</time>
      </trkpt>
      <trkpt lat="43.42945" lon="5.53695">
        <ele>400.3</ele>
        <time>2015-01-11T08:15:08.000Z</time>
      </trkpt>
      <trkpt lat="43.42949" lon="5.53692">
        <ele>400.4</ele>
        <time>2015-01-11T08:15:10.000Z</time>
      </trkpt>
      <trkpt lat="43.42952" lon="5.53683">
        <ele>400.4</ele>
        <time>2015-01-11T08:15:12.000Z</time>
      </trkpt>
      <trkpt lat="43.42952" lon="5.53673">
        <ele>400.4</ele>
        <time>2015-01-11T08:15:14.000Z</time>
      </trkpt>
      <trkpt lat="43.42952" lon="5.53664">
        <ele>400.5</ele>
        <time>2015-01-11T08:15:16.000Z</time>
      </trkpt>
      <trkpt lat="43.42952" lon="5.53656">
        <ele>400.5</ele>
        <time>2015-01-11T08:15:18.000Z</time>
      </trkpt>
      <trkpt lat="43.4295" lon="5.53646">
        <ele>400.5</ele>
        <time>2015-01-11T08:15:20.000Z</time>
      </trkpt>
      <trkpt lat="43.42948" lon="5.53638">
        <ele>400.5</ele>
        <time>2015-01-11T08:15:22.000Z</time>
      </trkpt>
      <trkpt lat="43.42948" lon="5.53628">
        <ele>400.6</ele>
        <time>2015-01-11T08:15:24.000Z</time>
      </trkpt>
      <trkpt lat="43.42948" lon="5.53618">
        <ele>400.6</ele>
        <time>2015-01-11T08:15:26.000Z</time>
      </trkpt>
      <trkpt lat="43.42947" lon="5.53608">
        <ele>400.6</ele>
        <time>2015-01-11T08:15:28.000Z</time>
      </trkpt>
      <trkpt lat="43.42946" lon="5.53598">
        <ele>400.6</ele>
        <time>2015-01-11T08:15:30.000Z</time>
      </trkpt>
      <trkpt lat="43.42945" lon="5.5359">
        <ele>400.8</ele>
        <time>2015-01-11T08:15:32.000Z</time>
      </trkpt>
      <trkpt lat="43.42944" lon="5.53583">
        <ele>401.1</ele>
        <time>2015-01-11T08:15:34.000Z</time>
      </trkpt>
      <trkpt lat="43.42942" lon="5.53576">
        <ele>401.3</ele>
        <time>2015-01-11T08:15:36.000Z</time>
      </trkpt>
      <trkpt lat="43.4294" lon="5.53571">
        <ele>401.5</ele>
        <time>2015-01-11T08:15:40.000Z</time>
      </trkpt>
      <trkpt lat="43.4294" lon="5.53564">
        <ele>402</ele>
        <time>2015-01-11T08:15:51.000Z</time>
      </trkpt>
      <trkpt lat="43.4294" lon="5.53556">
        <ele>401.9</ele>
        <time>2015-01-11T08:15:56.000Z</time>
      </trkpt>
      <trkpt lat="43.42939" lon="5.53549">
        <ele>401.7</ele>
        <time>2015-01-11T08:15:58.000Z</time>
      </trkpt>
      <trkpt lat="43.42937" lon="5.5354">
        <ele>401.6</ele>
        <time>2015-01-11T08:16:00.000Z</time>
      </trkpt>
      <trkpt lat="43.42935" lon="5.5353">
        <ele>401.5</ele>
        <time>2015-01-11T08:16:02.000Z</time>
      </trkpt>
      <trkpt lat="43.42937" lon="5.53518">
        <ele>400.8</ele>
        <time>2015-01-11T08:16:04.000Z</time>
      </trkpt>
      <trkpt lat="43.42939" lon="5.53512">
        <ele>400.5</ele>
        <time>2015-01-11T08:16:05.000Z</time>
      </trkpt>
      <trkpt lat="43.4294" lon="5.53504">
        <ele>400</ele>
        <time>2015-01-11T08:16:06.000Z</time>
      </trkpt>
      <trkpt lat="43.42939" lon="5.53497">
        <ele>399.7</ele>
        <time>2015-01-11T08:16:07.000Z</time>
      </trkpt>
      <trkpt lat="43.42938" lon="5.5349">
        <ele>399.7</ele>
        <time>2015-01-11T08:16:08.000Z</time>
      </trkpt>
      <trkpt lat="43.42936" lon="5.53483">
        <ele>399.8</ele>
        <time>2015-01-11T08:16:09.000Z</time>
      </trkpt>
      <trkpt lat="43.42934" lon="5.53476">
        <ele>400</ele>
        <time>2015-01-11T08:16:10.000Z</time>
      </trkpt>
      <trkpt lat="43.42931" lon="5.53465">
        <ele>399.8</ele>
        <time>2015-01-11T08:16:12.000Z</time>
      </trkpt>
      <trkpt lat="43.42929" lon="5.53455">
        <ele>399.8</ele>
        <time>2015-01-11T08:16:14.000Z</time>
      </trkpt>
      <trkpt lat="43.42929" lon="5.53447">
        <ele>399.9</ele>
        <time>2015-01-11T08:16:16.000Z</time>
      </trkpt>
      <trkpt lat="43.4293" lon="5.5344">
        <ele>399.9</ele>
        <time>2015-01-11T08:16:18.000Z</time>
      </trkpt>
      <trkpt lat="43.42932" lon="5.53432">
        <ele>400.1</ele>
        <time>2015-01-11T08:16:21.000Z</time>
      </trkpt>
      <trkpt lat="43.42933" lon="5.53424">
        <ele>400.2</ele>
        <time>2015-01-11T08:16:23.000Z</time>
      </trkpt>
      <trkpt lat="43.42933" lon="5.53417">
        <ele>400.3</ele>
        <time>2015-01-11T08:16:25.000Z</time>
      </trkpt>
      <trkpt lat="43.42933" lon="5.53409">
        <ele>400.3</ele>
        <time>2015-01-11T08:16:27.000Z</time>
      </trkpt>
      <trkpt lat="43.42931" lon="5.53401">
        <ele>400.4</ele>
        <time>2015-01-11T08:16:30.000Z</time>
      </trkpt>
      <trkpt lat="43.42927" lon="5.53395">
        <ele>400.5</ele>
        <time>2015-01-11T08:16:32.000Z</time>
      </trkpt>
      <trkpt lat="43.42923" lon="5.53389">
        <ele>400.6</ele>
        <time>2015-01-11T08:16:34.000Z</time>
      </trkpt>
      <trkpt lat="43.4292" lon="5.53384">
        <ele>400.7</ele>
        <time>2015-01-11T08:16:36.000Z</time>
      </trkpt>
      <trkpt lat="43.42916" lon="5.53377">
        <ele>400.8</ele>
        <time>2015-01-11T08:16:38.000Z</time>
      </trkpt>
      <trkpt lat="43.42913" lon="5.53371">
        <ele>400.9</ele>
        <time>2015-01-11T08:16:40.000Z</time>
      </trkpt>
      <trkpt lat="43.42912" lon="5.53364">
        <ele>400.9</ele>
        <time>2015-01-11T08:16:42.000Z</time>
      </trkpt>
      <trkpt lat="43.42911" lon="5.53357">
        <ele>401.1</ele>
        <time>2015-01-11T08:16:44.000Z</time>
      </trkpt>
      <trkpt lat="43.4291" lon="5.53348">
        <ele>401.4</ele>
        <time>2015-01-11T08:16:47.000Z</time>
      </trkpt>
      <trkpt lat="43.4291" lon="5.53341">
        <ele>401.7</ele>
        <time>2015-01-11T08:16:50.000Z</time>
      </trkpt>
      <trkpt lat="43.4291" lon="5.53333">
        <ele>401.9</ele>
        <time>2015-01-11T08:16:54.000Z</time>
      </trkpt>
      <trkpt lat="43.4291" lon="5.53326">
        <ele>402.1</ele>
        <time>2015-01-11T08:16:57.000Z</time>
      </trkpt>
      <trkpt lat="43.42909" lon="5.53319">
        <ele>402.4</ele>
        <time>2015-01-11T08:17:00.000Z</time>
      </trkpt>
      <trkpt lat="43.42907" lon="5.53312">
        <ele>402.7</ele>
        <time>2015-01-11T08:17:03.000Z</time>
      </trkpt>
      <trkpt lat="43.42906" lon="5.53304">
        <ele>403.1</ele>
        <time>2015-01-11T08:17:06.000Z</time>
      </trkpt>
      <trkpt lat="43.42906" lon="5.53298">
        <ele>403.7</ele>
        <time>2015-01-11T08:17:09.000Z</time>
      </trkpt>
      <trkpt lat="43.42905" lon="5.53289">
        <ele>404.3</ele>
        <time>2015-01-11T08:17:12.000Z</time>
      </trkpt>
      <trkpt lat="43.42905" lon="5.53281">
        <ele>404.6</ele>
        <time>2015-01-11T08:17:15.000Z</time>
      </trkpt>
      <trkpt lat="43.42904" lon="5.53274">
        <ele>405</ele>
        <time>2015-01-11T08:17:18.000Z</time>
      </trkpt>
      <trkpt lat="43.42905" lon="5.53265">
        <ele>405.6</ele>
        <time>2015-01-11T08:17:23.000Z</time>
      </trkpt>
      <trkpt lat="43.42903" lon="5.53258">
        <ele>406.1</ele>
        <time>2015-01-11T08:17:26.000Z</time>
      </trkpt>
      <trkpt lat="43.42902" lon="5.53252">
        <ele>406.5</ele>
        <time>2015-01-11T08:17:29.000Z</time>
      </trkpt>
      <trkpt lat="43.42902" lon="5.53244">
        <ele>406.8</ele>
        <time>2015-01-11T08:17:32.000Z</time>
      </trkpt>
      <trkpt lat="43.42903" lon="5.53237">
        <ele>407.2</ele>
        <time>2015-01-11T08:17:35.000Z</time>
      </trkpt>
      <trkpt lat="43.42902" lon="5.53229">
        <ele>407.6</ele>
        <time>2015-01-11T08:17:39.000Z</time>
      </trkpt>
      <trkpt lat="43.42901" lon="5.53221">
        <ele>408.1</ele>
        <time>2015-01-11T08:17:42.000Z</time>
      </trkpt>
      <trkpt lat="43.429" lon="5.53212">
        <ele>408.8</ele>
        <time>2015-01-11T08:17:45.000Z</time>
      </trkpt>
      <trkpt lat="43.42898" lon="5.53206">
        <ele>409.2</ele>
        <time>2015-01-11T08:17:47.000Z</time>
      </trkpt>
      <trkpt lat="43.42896" lon="5.532">
        <ele>409.9</ele>
        <time>2015-01-11T08:17:50.000Z</time>
      </trkpt>
      <trkpt lat="43.42895" lon="5.53193">
        <ele>410.5</ele>
        <time>2015-01-11T08:17:53.000Z</time>
      </trkpt>
      <trkpt lat="43.42895" lon="5.53185">
        <ele>411.5</ele>
        <time>2015-01-11T08:17:58.000Z</time>
      </trkpt>
      <trkpt lat="43.42893" lon="5.53176">
        <ele>411.9</ele>
        <time>2015-01-11T08:18:01.000Z</time>
      </trkpt>
      <trkpt lat="43.42893" lon="5.5317">
        <ele>412.3</ele>
        <time>2015-01-11T08:18:04.000Z</time>
      </trkpt>
      <trkpt lat="43.42891" lon="5.53161">
        <ele>413.1</ele>
        <time>2015-01-11T08:18:08.000Z</time>
      </trkpt>
      <trkpt lat="43.42889" lon="5.53156">
        <ele>413.6</ele>
        <time>2015-01-11T08:18:11.000Z</time>
      </trkpt>
      <trkpt lat="43.42887" lon="5.5315">
        <ele>414.1</ele>
        <time>2015-01-11T08:18:14.000Z</time>
      </trkpt>
      <trkpt lat="43.42883" lon="5.53143">
        <ele>415.2</ele>
        <time>2015-01-11T08:18:18.000Z</time>
      </trkpt>
      <trkpt lat="43.42881" lon="5.53136">
        <ele>416.2</ele>
        <time>2015-01-11T08:18:23.000Z</time>
      </trkpt>
      <trkpt lat="43.4288" lon="5.5313">
        <ele>417.1</ele>
        <time>2015-01-11T08:18:27.000Z</time>
      </trkpt>
      <trkpt lat="43.42881" lon="5.53123">
        <ele>418</ele>
        <time>2015-01-11T08:18:32.000Z</time>
      </trkpt>
      <trkpt lat="43.42883" lon="5.53117">
        <ele>425.7</ele>
        <time>2015-01-11T08:20:54.000Z</time>
      </trkpt>
      <trkpt lat="43.42887" lon="5.5312">
        <ele>425</ele>
        <time>2015-01-11T08:21:55.000Z</time>
      </trkpt>
      <trkpt lat="43.42891" lon="5.53124">
        <ele>425</ele>
        <time>2015-01-11T08:21:58.000Z</time>
      </trkpt>
      <trkpt lat="43.42896" lon="5.53128">
        <ele>425.3</ele>
        <time>2015-01-11T08:22:02.000Z</time>
      </trkpt>
      <trkpt lat="43.42902" lon="5.53129">
        <ele>425.6</ele>
        <time>2015-01-11T08:22:06.000Z</time>
      </trkpt>
      <trkpt lat="43.42906" lon="5.53132">
        <ele>425.5</ele>
        <time>2015-01-11T08:22:09.000Z</time>
      </trkpt>
      <trkpt lat="43.4291" lon="5.53136">
        <ele>425.6</ele>
        <time>2015-01-11T08:22:12.000Z</time>
      </trkpt>
      <trkpt lat="43.42915" lon="5.53141">
        <ele>425.8</ele>
        <time>2015-01-11T08:22:15.000Z</time>
      </trkpt>
      <trkpt lat="43.4292" lon="5.53145">
        <ele>425.8</ele>
        <time>2015-01-11T08:22:18.000Z</time>
      </trkpt>
      <trkpt lat="43.42924" lon="5.53149">
        <ele>425.8</ele>
        <time>2015-01-11T08:22:22.000Z</time>
      </trkpt>
      <trkpt lat="43.4293" lon="5.53152">
        <ele>425.8</ele>
        <time>2015-01-11T08:22:25.000Z</time>
      </trkpt>
      <trkpt lat="43.42936" lon="5.53155">
        <ele>426</ele>
        <time>2015-01-11T08:22:28.000Z</time>
      </trkpt>
      <trkpt lat="43.4294" lon="5.53156">
        <ele>425.9</ele>
        <time>2015-01-11T08:22:30.000Z</time>
      </trkpt>
      <trkpt lat="43.42946" lon="5.53157">
        <ele>425.9</ele>
        <time>2015-01-11T08:22:32.000Z</time>
      </trkpt>
      <trkpt lat="43.4295" lon="5.53157">
        <ele>425.8</ele>
        <time>2015-01-11T08:22:34.000Z</time>
      </trkpt>
      <trkpt lat="43.42956" lon="5.53155">
        <ele>425.7</ele>
        <time>2015-01-11T08:22:36.000Z</time>
      </trkpt>
      <trkpt lat="43.42962" lon="5.53152">
        <ele>425.7</ele>
        <time>2015-01-11T08:22:38.000Z</time>
      </trkpt>
      <trkpt lat="43.42966" lon="5.53147">
        <ele>425.7</ele>
        <time>2015-01-11T08:22:40.000Z</time>
      </trkpt>
      <trkpt lat="43.42971" lon="5.53142">
        <ele>425.8</ele>
        <time>2015-01-11T08:22:42.000Z</time>
      </trkpt>
      <trkpt lat="43.42978" lon="5.53139">
        <ele>426.1</ele>
        <time>2015-01-11T08:22:44.000Z</time>
      </trkpt>
      <trkpt lat="43.42984" lon="5.53133">
        <ele>426.3</ele>
        <time>2015-01-11T08:22:46.000Z</time>
      </trkpt>
      <trkpt lat="43.42989" lon="5.53127">
        <ele>426.4</ele>
        <time>2015-01-11T08:22:48.000Z</time>
      </trkpt>
      <trkpt lat="43.42993" lon="5.53122">
        <ele>426.6</ele>
        <time>2015-01-11T08:22:50.000Z</time>
      </trkpt>
      <trkpt lat="43.42997" lon="5.53116">
        <ele>427</ele>
        <time>2015-01-11T08:22:53.000Z</time>
      </trkpt>
      <trkpt lat="43.43002" lon="5.53113">
        <ele>427.2</ele>
        <time>2015-01-11T08:22:56.000Z</time>
      </trkpt>
      <trkpt lat="43.43007" lon="5.5311">
        <ele>427.4</ele>
        <time>2015-01-11T08:22:58.000Z</time>
      </trkpt>
      <trkpt lat="43.43014" lon="5.53106">
        <ele>427.6</ele>
        <time>2015-01-11T08:23:00.000Z</time>
      </trkpt>
      <trkpt lat="43.43019" lon="5.53101">
        <ele>427.9</ele>
        <time>2015-01-11T08:23:02.000Z</time>
      </trkpt>
      <trkpt lat="43.43025" lon="5.53097">
        <ele>428.4</ele>
        <time>2015-01-11T08:23:05.000Z</time>
      </trkpt>
      <trkpt lat="43.4303" lon="5.53096">
        <ele>428.6</ele>
        <time>2015-01-11T08:23:07.000Z</time>
      </trkpt>
      <trkpt lat="43.43036" lon="5.53094">
        <ele>429</ele>
        <time>2015-01-11T08:23:09.000Z</time>
      </trkpt>
      <trkpt lat="43.43042" lon="5.53092">
        <ele>429.3</ele>
        <time>2015-01-11T08:23:11.000Z</time>
      </trkpt>
      <trkpt lat="43.43048" lon="5.53087">
        <ele>429.6</ele>
        <time>2015-01-11T08:23:13.000Z</time>
      </trkpt>
      <trkpt lat="43.43054" lon="5.53083">
        <ele>429.9</ele>
        <time>2015-01-11T08:23:15.000Z</time>
      </trkpt>
      <trkpt lat="43.43058" lon="5.53079">
        <ele>430.2</ele>
        <time>2015-01-11T08:23:17.000Z</time>
      </trkpt>
      <trkpt lat="43.43063" lon="5.53076">
        <ele>430.5</ele>
        <time>2015-01-11T08:23:19.000Z</time>
      </trkpt>
      <trkpt lat="43.43067" lon="5.53072">
        <ele>430.8</ele>
        <time>2015-01-11T08:23:21.000Z</time>
      </trkpt>
      <trkpt lat="43.43072" lon="5.53068">
        <ele>431.1</ele>
        <time>2015-01-11T08:23:23.000Z</time>
      </trkpt>
      <trkpt lat="43.43077" lon="5.53063">
        <ele>431.4</ele>
        <time>2015-01-11T08:23:25.000Z</time>
      </trkpt>
      <trkpt lat="43.43084" lon="5.53057">
        <ele>431.6</ele>
        <time>2015-01-11T08:23:27.000Z</time>
      </trkpt>
      <trkpt lat="43.4309" lon="5.53052">
        <ele>431.7</ele>
        <time>2015-01-11T08:23:29.000Z</time>
      </trkpt>
      <trkpt lat="43.43097" lon="5.53046">
        <ele>432.3</ele>
        <time>2015-01-11T08:23:31.000Z</time>
      </trkpt>
      <trkpt lat="43.43104" lon="5.5304">
        <ele>434</ele>
        <time>2015-01-11T08:23:33.000Z</time>
      </trkpt>
      <trkpt lat="43.43112" lon="5.53033">
        <ele>436.4</ele>
        <time>2015-01-11T08:23:35.000Z</time>
      </trkpt>
      <trkpt lat="43.43115" lon="5.53029">
        <ele>437.6</ele>
        <time>2015-01-11T08:23:36.000Z</time>
      </trkpt>
      <trkpt lat="43.43118" lon="5.53025">
        <ele>438</ele>
        <time>2015-01-11T08:23:37.000Z</time>
      </trkpt>
      <trkpt lat="43.43124" lon="5.53015">
        <ele>438.2</ele>
        <time>2015-01-11T08:23:39.000Z</time>
      </trkpt>
      <trkpt lat="43.43129" lon="5.53009">
        <ele>438.6</ele>
        <time>2015-01-11T08:23:41.000Z</time>
      </trkpt>
      <trkpt lat="43.43134" lon="5.53006">
        <ele>438.8</ele>
        <time>2015-01-11T08:23:43.000Z</time>
      </trkpt>
      <trkpt lat="43.4314" lon="5.53004">
        <ele>439.1</ele>
        <time>2015-01-11T08:23:45.000Z</time>
      </trkpt>
      <trkpt lat="43.43146" lon="5.53003">
        <ele>439.3</ele>
        <time>2015-01-11T08:23:47.000Z</time>
      </trkpt>
      <trkpt lat="43.43153" lon="5.53001">
        <ele>439.6</ele>
        <time>2015-01-11T08:23:49.000Z</time>
      </trkpt>
      <trkpt lat="43.43159" lon="5.53">
        <ele>439.8</ele>
        <time>2015-01-11T08:23:51.000Z</time>
      </trkpt>
      <trkpt lat="43.43163" lon="5.52999">
        <ele>439.9</ele>
        <time>2015-01-11T08:23:53.000Z</time>
      </trkpt>
      <trkpt lat="43.43169" lon="5.53">
        <ele>440.1</ele>
        <time>2015-01-11T08:23:56.000Z</time>
      </trkpt>
      <trkpt lat="43.43174" lon="5.53003">
        <ele>440.3</ele>
        <time>2015-01-11T08:23:59.000Z</time>
      </trkpt>
      <trkpt lat="43.43181" lon="5.53006">
        <ele>440.6</ele>
        <time>2015-01-11T08:24:02.000Z</time>
      </trkpt>
      <trkpt lat="43.43186" lon="5.53007">
        <ele>440.8</ele>
        <time>2015-01-11T08:24:04.000Z</time>
      </trkpt>
      <trkpt lat="43.43192" lon="5.5301">
        <ele>440.9</ele>
        <time>2015-01-11T08:24:06.000Z</time>
      </trkpt>
      <trkpt lat="43.43201" lon="5.53014">
        <ele>440.9</ele>
        <time>2015-01-11T08:24:08.000Z</time>
      </trkpt>
      <trkpt lat="43.43205" lon="5.53016">
        <ele>440.5</ele>
        <time>2015-01-11T08:24:09.000Z</time>
      </trkpt>
      <trkpt lat="43.43213" lon="5.53019">
        <ele>440.5</ele>
        <time>2015-01-11T08:24:11.000Z</time>
      </trkpt>
      <trkpt lat="43.43222" lon="5.53019">
        <ele>440.8</ele>
        <time>2015-01-11T08:24:13.000Z</time>
      </trkpt>
      <trkpt lat="43.43227" lon="5.53019">
        <ele>441.4</ele>
        <time>2015-01-11T08:24:14.000Z</time>
      </trkpt>
      <trkpt lat="43.43232" lon="5.5302">
        <ele>441.7</ele>
        <time>2015-01-11T08:24:15.000Z</time>
      </trkpt>
      <trkpt lat="43.43237" lon="5.5302">
        <ele>442.2</ele>
        <time>2015-01-11T08:24:16.000Z</time>
      </trkpt>
      <trkpt lat="43.43242" lon="5.5302">
        <ele>442.7</ele>
        <time>2015-01-11T08:24:17.000Z</time>
      </trkpt>
      <trkpt lat="43.43247" lon="5.53022">
        <ele>443.5</ele>
        <time>2015-01-11T08:24:18.000Z</time>
      </trkpt>
      <trkpt lat="43.43253" lon="5.53024">
        <ele>443.9</ele>
        <time>2015-01-11T08:24:19.000Z</time>
      </trkpt>
      <trkpt lat="43.43258" lon="5.53025">
        <ele>444</ele>
        <time>2015-01-11T08:24:20.000Z</time>
      </trkpt>
      <trkpt lat="43.43264" lon="5.53026">
        <ele>444.3</ele>
        <time>2015-01-11T08:24:21.000Z</time>
      </trkpt>
      <trkpt lat="43.43271" lon="5.53028">
        <ele>444.7</ele>
        <time>2015-01-11T08:24:22.000Z</time>
      </trkpt>
      <trkpt lat="43.43276" lon="5.53028">
        <ele>444.8</ele>
        <time>2015-01-11T08:24:23.000Z</time>
      </trkpt>
      <trkpt lat="43.43282" lon="5.53029">
        <ele>445</ele>
        <time>2015-01-11T08:24:24.000Z</time>
      </trkpt>
      <trkpt lat="43.43287" lon="5.53029">
        <ele>445</ele>
        <time>2015-01-11T08:24:25.000Z</time>
      </trkpt>
      <trkpt lat="43.43292" lon="5.5303">
        <ele>444.7</ele>
        <time>2015-01-11T08:24:26.000Z</time>
      </trkpt>
      <trkpt lat="43.43297" lon="5.5303">
        <ele>444.2</ele>
        <time>2015-01-11T08:24:27.000Z</time>
      </trkpt>
      <trkpt lat="43.43304" lon="5.53029">
        <ele>443.6</ele>
        <time>2015-01-11T08:24:29.000Z</time>
      </trkpt>
      <trkpt lat="43.43308" lon="5.53024">
        <ele>443.5</ele>
        <time>2015-01-11T08:24:31.000Z</time>
      </trkpt>
      <trkpt lat="43.43311" lon="5.53019">
        <ele>443.5</ele>
        <time>2015-01-11T08:24:36.000Z</time>
      </trkpt>
      <trkpt lat="43.43313" lon="5.53013">
        <ele>443.3</ele>
        <time>2015-01-11T08:24:47.000Z</time>
      </trkpt>
      <trkpt lat="43.4331" lon="5.53008">
        <ele>442.8</ele>
        <time>2015-01-11T08:25:08.000Z</time>
      </trkpt>
      <trkpt lat="43.43313" lon="5.53002">
        <ele>441.6</ele>
        <time>2015-01-11T08:25:18.000Z</time>
      </trkpt>
      <trkpt lat="43.43318" lon="5.53002">
        <ele>441.3</ele>
        <time>2015-01-11T08:25:41.000Z</time>
      </trkpt>
      <trkpt lat="43.43322" lon="5.52999">
        <ele>441.3</ele>
        <time>2015-01-11T08:25:43.000Z</time>
      </trkpt>
      <trkpt lat="43.43326" lon="5.52995">
        <ele>441.3</ele>
        <time>2015-01-11T08:25:45.000Z</time>
      </trkpt>
      <trkpt lat="43.43332" lon="5.52991">
        <ele>441.2</ele>
        <time>2015-01-11T08:25:48.000Z</time>
      </trkpt>
      <trkpt lat="43.43337" lon="5.52987">
        <ele>441.2</ele>
        <time>2015-01-11T08:25:50.000Z</time>
      </trkpt>
      <trkpt lat="43.43342" lon="5.52982">
        <ele>441.1</ele>
        <time>2015-01-11T08:25:52.000Z</time>
      </trkpt>
      <trkpt lat="43.43346" lon="5.52976">
        <ele>441.1</ele>
        <time>2015-01-11T08:25:54.000Z</time>
      </trkpt>
      <trkpt lat="43.43351" lon="5.52972">
        <ele>441</ele>
        <time>2015-01-11T08:25:56.000Z</time>
      </trkpt>
      <trkpt lat="43.43355" lon="5.52966">
        <ele>441</ele>
        <time>2015-01-11T08:25:58.000Z</time>
      </trkpt>
      <trkpt lat="43.43357" lon="5.52958">
        <ele>441</ele>
        <time>2015-01-11T08:26:00.000Z</time>
      </trkpt>
      <trkpt lat="43.43358" lon="5.5295">
        <ele>440.8</ele>
        <time>2015-01-11T08:26:02.000Z</time>
      </trkpt>
      <trkpt lat="43.4336" lon="5.52942">
        <ele>440.8</ele>
        <time>2015-01-11T08:26:04.000Z</time>
      </trkpt>
      <trkpt lat="43.43362" lon="5.52933">
        <ele>440.9</ele>
        <time>2015-01-11T08:26:06.000Z</time>
      </trkpt>
      <trkpt lat="43.43363" lon="5.52924">
        <ele>440.8</ele>
        <time>2015-01-11T08:26:08.000Z</time>
      </trkpt>
      <trkpt lat="43.43365" lon="5.52912">
        <ele>438.9</ele>
        <time>2015-01-11T08:26:10.000Z</time>
      </trkpt>
      <trkpt lat="43.43366" lon="5.52901">
        <ele>437.9</ele>
        <time>2015-01-11T08:26:12.000Z</time>
      </trkpt>
      <trkpt lat="43.43368" lon="5.52891">
        <ele>436.2</ele>
        <time>2015-01-11T08:26:14.000Z</time>
      </trkpt>
      <trkpt lat="43.43371" lon="5.52881">
        <ele>435.5</ele>
        <time>2015-01-11T08:26:16.000Z</time>
      </trkpt>
      <trkpt lat="43.43372" lon="5.52875">
        <ele>434.7</ele>
        <time>2015-01-11T08:26:17.000Z</time>
      </trkpt>
      <trkpt lat="43.43373" lon="5.52868">
        <ele>434.1</ele>
        <time>2015-01-11T08:26:18.000Z</time>
      </trkpt>
      <trkpt lat="43.43375" lon="5.52861">
        <ele>433.4</ele>
        <time>2015-01-11T08:26:19.000Z</time>
      </trkpt>
      <trkpt lat="43.43377" lon="5.52849">
        <ele>432.2</ele>
        <time>2015-01-11T08:26:21.000Z</time>
      </trkpt>
      <trkpt lat="43.43378" lon="5.52843">
        <ele>432</ele>
        <time>2015-01-11T08:26:22.000Z</time>
      </trkpt>
      <trkpt lat="43.43379" lon="5.52832">
        <ele>431.7</ele>
        <time>2015-01-11T08:26:24.000Z</time>
      </trkpt>
      <trkpt lat="43.43381" lon="5.52823">
        <ele>431.4</ele>
        <time>2015-01-11T08:26:26.000Z</time>
      </trkpt>
      <trkpt lat="43.4338" lon="5.52816">
        <ele>430.3</ele>
        <time>2015-01-11T08:26:46.000Z</time>
      </trkpt>
      <trkpt lat="43.4338" lon="5.5281">
        <ele>429.9</ele>
        <time>2015-01-11T08:26:48.000Z</time>
      </trkpt>
      <trkpt lat="43.43382" lon="5.52802">
        <ele>429.6</ele>
        <time>2015-01-11T08:26:50.000Z</time>
      </trkpt>
      <trkpt lat="43.43384" lon="5.5279">
        <ele>429.3</ele>
        <time>2015-01-11T08:26:52.000Z</time>
      </trkpt>
      <trkpt lat="43.43386" lon="5.5278">
        <ele>429.2</ele>
        <time>2015-01-11T08:26:54.000Z</time>
      </trkpt>
      <trkpt lat="43.4339" lon="5.52769">
        <ele>428.4</ele>
        <time>2015-01-11T08:26:56.000Z</time>
      </trkpt>
      <trkpt lat="43.43392" lon="5.52758">
        <ele>428</ele>
        <time>2015-01-11T08:26:58.000Z</time>
      </trkpt>
      <trkpt lat="43.43395" lon="5.52748">
        <ele>427.8</ele>
        <time>2015-01-11T08:27:00.000Z</time>
      </trkpt>
      <trkpt lat="43.43398" lon="5.52738">
        <ele>425.5</ele>
        <time>2015-01-11T08:27:02.000Z</time>
      </trkpt>
      <trkpt lat="43.43402" lon="5.52727">
        <ele>423.5</ele>
        <time>2015-01-11T08:27:04.000Z</time>
      </trkpt>
      <trkpt lat="43.43406" lon="5.52718">
        <ele>423.4</ele>
        <time>2015-01-11T08:27:06.000Z</time>
      </trkpt>
      <trkpt lat="43.43409" lon="5.5271">
        <ele>423.3</ele>
        <time>2015-01-11T08:27:08.000Z</time>
      </trkpt>
      <trkpt lat="43.43412" lon="5.52701">
        <ele>423</ele>
        <time>2015-01-11T08:27:10.000Z</time>
      </trkpt>
      <trkpt lat="43.43415" lon="5.52693">
        <ele>421.6</ele>
        <time>2015-01-11T08:27:12.000Z</time>
      </trkpt>
      <trkpt lat="43.43419" lon="5.52682">
        <ele>419.9</ele>
        <time>2015-01-11T08:27:14.000Z</time>
      </trkpt>
      <trkpt lat="43.43421" lon="5.52676">
        <ele>419.5</ele>
        <time>2015-01-11T08:27:15.000Z</time>
      </trkpt>
      <trkpt lat="43.43423" lon="5.52668">
        <ele>418.8</ele>
        <time>2015-01-11T08:27:16.000Z</time>
      </trkpt>
      <trkpt lat="43.43426" lon="5.52661">
        <ele>417.5</ele>
        <time>2015-01-11T08:27:17.000Z</time>
      </trkpt>
      <trkpt lat="43.43427" lon="5.52655">
        <ele>416.8</ele>
        <time>2015-01-11T08:27:18.000Z</time>
      </trkpt>
      <trkpt lat="43.4343" lon="5.52645">
        <ele>416.1</ele>
        <time>2015-01-11T08:27:20.000Z</time>
      </trkpt>
      <trkpt lat="43.43434" lon="5.52635">
        <ele>415.6</ele>
        <time>2015-01-11T08:27:22.000Z</time>
      </trkpt>
      <trkpt lat="43.43436" lon="5.52623">
        <ele>415.6</ele>
        <time>2015-01-11T08:27:24.000Z</time>
      </trkpt>
      <trkpt lat="43.43438" lon="5.52615">
        <ele>415.5</ele>
        <time>2015-01-11T08:27:26.000Z</time>
      </trkpt>
      <trkpt lat="43.43441" lon="5.52608">
        <ele>415.4</ele>
        <time>2015-01-11T08:27:28.000Z</time>
      </trkpt>
      <trkpt lat="43.43445" lon="5.52599">
        <ele>415.3</ele>
        <time>2015-01-11T08:27:30.000Z</time>
      </trkpt>
      <trkpt lat="43.43449" lon="5.52591">
        <ele>415.2</ele>
        <time>2015-01-11T08:27:32.000Z</time>
      </trkpt>
      <trkpt lat="43.4345" lon="5.5258">
        <ele>415</ele>
        <time>2015-01-11T08:27:34.000Z</time>
      </trkpt>
      <trkpt lat="43.4345" lon="5.52568">
        <ele>414.1</ele>
        <time>2015-01-11T08:27:36.000Z</time>
      </trkpt>
      <trkpt lat="43.43452" lon="5.52556">
        <ele>413.9</ele>
        <time>2015-01-11T08:27:38.000Z</time>
      </trkpt>
      <trkpt lat="43.43452" lon="5.52546">
        <ele>414.3</ele>
        <time>2015-01-11T08:27:40.000Z</time>
      </trkpt>
      <trkpt lat="43.43455" lon="5.52536">
        <ele>414.6</ele>
        <time>2015-01-11T08:27:42.000Z</time>
      </trkpt>
      <trkpt lat="43.43459" lon="5.52526">
        <ele>415</ele>
        <time>2015-01-11T08:27:44.000Z</time>
      </trkpt>
      <trkpt lat="43.4346" lon="5.52518">
        <ele>415</ele>
        <time>2015-01-11T08:27:45.000Z</time>
      </trkpt>
      <trkpt lat="43.43461" lon="5.52511">
        <ele>415</ele>
        <time>2015-01-11T08:27:46.000Z</time>
      </trkpt>
      <trkpt lat="43.43462" lon="5.52504">
        <ele>415</ele>
        <time>2015-01-11T08:27:47.000Z</time>
      </trkpt>
      <trkpt lat="43.43464" lon="5.52493">
        <ele>414.9</ele>
        <time>2015-01-11T08:27:49.000Z</time>
      </trkpt>
      <trkpt lat="43.43465" lon="5.52482">
        <ele>415</ele>
        <time>2015-01-11T08:27:51.000Z</time>
      </trkpt>
      <trkpt lat="43.43465" lon="5.52472">
        <ele>415.3</ele>
        <time>2015-01-11T08:27:53.000Z</time>
      </trkpt>
      <trkpt lat="43.43463" lon="5.52467">
        <ele>415.4</ele>
        <time>2015-01-11T08:28:01.000Z</time>
      </trkpt>
      <trkpt lat="43.4346" lon="5.5246">
        <ele>415.5</ele>
        <time>2015-01-11T08:28:05.000Z</time>
      </trkpt>
      <trkpt lat="43.43459" lon="5.52454">
        <ele>415.4</ele>
        <time>2015-01-11T08:28:07.000Z</time>
      </trkpt>
      <trkpt lat="43.43459" lon="5.52445">
        <ele>415.1</ele>
        <time>2015-01-11T08:28:09.000Z</time>
      </trkpt>
      <trkpt lat="43.4346" lon="5.52433">
        <ele>413.8</ele>
        <time>2015-01-11T08:28:11.000Z</time>
      </trkpt>
      <trkpt lat="43.43461" lon="5.52422">
        <ele>412.7</ele>
        <time>2015-01-11T08:28:13.000Z</time>
      </trkpt>
      <trkpt lat="43.43462" lon="5.52416">
        <ele>412.6</ele>
        <time>2015-01-11T08:28:14.000Z</time>
      </trkpt>
      <trkpt lat="43.43463" lon="5.52404">
        <ele>412</ele>
        <time>2015-01-11T08:28:16.000Z</time>
      </trkpt>
      <trkpt lat="43.43464" lon="5.52396">
        <ele>411.4</ele>
        <time>2015-01-11T08:28:17.000Z</time>
      </trkpt>
      <trkpt lat="43.43464" lon="5.5239">
        <ele>410.6</ele>
        <time>2015-01-11T08:28:18.000Z</time>
      </trkpt>
      <trkpt lat="43.43468" lon="5.5238">
        <ele>410.4</ele>
        <time>2015-01-11T08:28:20.000Z</time>
      </trkpt>
      <trkpt lat="43.43474" lon="5.52375">
        <ele>410.2</ele>
        <time>2015-01-11T08:28:22.000Z</time>
      </trkpt>
      <trkpt lat="43.43479" lon="5.52371">
        <ele>410</ele>
        <time>2015-01-11T08:28:24.000Z</time>
      </trkpt>
      <trkpt lat="43.43482" lon="5.52362">
        <ele>409.8</ele>
        <time>2015-01-11T08:28:26.000Z</time>
      </trkpt>
      <trkpt lat="43.43484" lon="5.52353">
        <ele>409.7</ele>
        <time>2015-01-11T08:28:28.000Z</time>
      </trkpt>
      <trkpt lat="43.43486" lon="5.52345">
        <ele>409.5</ele>
        <time>2015-01-11T08:28:30.000Z</time>
      </trkpt>
      <trkpt lat="43.43488" lon="5.52337">
        <ele>409.2</ele>
        <time>2015-01-11T08:28:33.000Z</time>
      </trkpt>
      <trkpt lat="43.43492" lon="5.52331">
        <ele>408.8</ele>
        <time>2015-01-11T08:28:36.000Z</time>
      </trkpt>
      <trkpt lat="43.43497" lon="5.5233">
        <ele>408.5</ele>
        <time>2015-01-11T08:28:38.000Z</time>
      </trkpt>
      <trkpt lat="43.43502" lon="5.52328">
        <ele>408.3</ele>
        <time>2015-01-11T08:28:40.000Z</time>
      </trkpt>
      <trkpt lat="43.43508" lon="5.52328">
        <ele>407.7</ele>
        <time>2015-01-11T08:28:43.000Z</time>
      </trkpt>
      <trkpt lat="43.4351" lon="5.52322">
        <ele>406.1</ele>
        <time>2015-01-11T08:29:06.000Z</time>
      </trkpt>
      <trkpt lat="43.43513" lon="5.52317">
        <ele>406</ele>
        <time>2015-01-11T08:29:09.000Z</time>
      </trkpt>
      <trkpt lat="43.43517" lon="5.52314">
        <ele>405.8</ele>
        <time>2015-01-11T08:29:16.000Z</time>
      </trkpt>
      <trkpt lat="43.4352" lon="5.52308">
        <ele>403</ele>
        <time>2015-01-11T08:29:27.000Z</time>
      </trkpt>
      <trkpt lat="43.43521" lon="5.523">
        <ele>402.5</ele>
        <time>2015-01-11T08:29:30.000Z</time>
      </trkpt>
      <trkpt lat="43.43524" lon="5.52293">
        <ele>402.1</ele>
        <time>2015-01-11T08:29:33.000Z</time>
      </trkpt>
      <trkpt lat="43.43527" lon="5.52288">
        <ele>402</ele>
        <time>2015-01-11T08:29:35.000Z</time>
      </trkpt>
      <trkpt lat="43.4353" lon="5.52283">
        <ele>401.9</ele>
        <time>2015-01-11T08:29:37.000Z</time>
      </trkpt>
      <trkpt lat="43.43535" lon="5.52278">
        <ele>402</ele>
        <time>2015-01-11T08:29:41.000Z</time>
      </trkpt>
      <trkpt lat="43.43538" lon="5.52272">
        <ele>402.3</ele>
        <time>2015-01-11T08:29:45.000Z</time>
      </trkpt>
      <trkpt lat="43.43539" lon="5.5228">
        <ele>403.7</ele>
        <time>2015-01-11T08:30:02.000Z</time>
      </trkpt>
      <trkpt lat="43.4354" lon="5.52287">
        <ele>403.3</ele>
        <time>2015-01-11T08:30:05.000Z</time>
      </trkpt>
      <trkpt lat="43.43542" lon="5.52295">
        <ele>403.3</ele>
        <time>2015-01-11T08:30:08.000Z</time>
      </trkpt>
      <trkpt lat="43.43543" lon="5.52304">
        <ele>403.6</ele>
        <time>2015-01-11T08:30:11.000Z</time>
      </trkpt>
      <trkpt lat="43.43544" lon="5.52313">
        <ele>403.8</ele>
        <time>2015-01-11T08:30:14.000Z</time>
      </trkpt>
      <trkpt lat="43.43545" lon="5.52321">
        <ele>404.1</ele>
        <time>2015-01-11T08:30:17.000Z</time>
      </trkpt>
      <trkpt lat="43.43546" lon="5.52327">
        <ele>404.2</ele>
        <time>2015-01-11T08:30:19.000Z</time>
      </trkpt>
      <trkpt lat="43.43547" lon="5.52335">
        <ele>404.4</ele>
        <time>2015-01-11T08:30:22.000Z</time>
      </trkpt>
      <trkpt lat="43.43546" lon="5.52342">
        <ele>404.6</ele>
        <time>2015-01-11T08:30:24.000Z</time>
      </trkpt>
      <trkpt lat="43.43546" lon="5.52349">
        <ele>404.7</ele>
        <time>2015-01-11T08:30:26.000Z</time>
      </trkpt>
      <trkpt lat="43.43547" lon="5.52356">
        <ele>404.8</ele>
        <time>2015-01-11T08:30:28.000Z</time>
      </trkpt>
      <trkpt lat="43.43548" lon="5.52362">
        <ele>404.8</ele>
        <time>2015-01-11T08:30:30.000Z</time>
      </trkpt>
      <trkpt lat="43.43548" lon="5.52368">
        <ele>404.8</ele>
        <time>2015-01-11T08:30:32.000Z</time>
      </trkpt>
      <trkpt lat="43.43547" lon="5.52376">
        <ele>404.8</ele>
        <time>2015-01-11T08:30:34.000Z</time>
      </trkpt>
      <trkpt lat="43.43547" lon="5.52384">
        <ele>404.7</ele>
        <time>2015-01-11T08:30:36.000Z</time>
      </trkpt>
      <trkpt lat="43.43548" lon="5.52392">
        <ele>404.6</ele>
        <time>2015-01-11T08:30:38.000Z</time>
      </trkpt>
      <trkpt lat="43.43548" lon="5.52398">
        <ele>404.6</ele>
        <time>2015-01-11T08:30:40.000Z</time>
      </trkpt>
      <trkpt lat="43.43548" lon="5.52408">
        <ele>404.5</ele>
        <time>2015-01-11T08:30:43.000Z</time>
      </trkpt>
      <trkpt lat="43.43548" lon="5.52415">
        <ele>404.2</ele>
        <time>2015-01-11T08:30:46.000Z</time>
      </trkpt>
      <trkpt lat="43.43548" lon="5.52424">
        <ele>404.2</ele>
        <time>2015-01-11T08:30:49.000Z</time>
      </trkpt>
      <trkpt lat="43.43548" lon="5.52433">
        <ele>404.2</ele>
        <time>2015-01-11T08:30:52.000Z</time>
      </trkpt>
      <trkpt lat="43.43546" lon="5.52439">
        <ele>404.2</ele>
        <time>2015-01-11T08:30:54.000Z</time>
      </trkpt>
      <trkpt lat="43.43544" lon="5.52448">
        <ele>404.1</ele>
        <time>2015-01-11T08:30:57.000Z</time>
      </trkpt>
      <trkpt lat="43.43542" lon="5.52456">
        <ele>404</ele>
        <time>2015-01-11T08:30:59.000Z</time>
      </trkpt>
      <trkpt lat="43.43541" lon="5.52462">
        <ele>403.9</ele>
        <time>2015-01-11T08:31:01.000Z</time>
      </trkpt>
      <trkpt lat="43.4354" lon="5.52469">
        <ele>403.8</ele>
        <time>2015-01-11T08:31:03.000Z</time>
      </trkpt>
      <trkpt lat="43.43538" lon="5.52476">
        <ele>403.7</ele>
        <time>2015-01-11T08:31:05.000Z</time>
      </trkpt>
      <trkpt lat="43.43537" lon="5.52482">
        <ele>403.7</ele>
        <time>2015-01-11T08:31:07.000Z</time>
      </trkpt>
      <trkpt lat="43.43536" lon="5.52488">
        <ele>403.6</ele>
        <time>2015-01-11T08:31:09.000Z</time>
      </trkpt>
      <trkpt lat="43.43535" lon="5.52496">
        <ele>403.6</ele>
        <time>2015-01-11T08:31:12.000Z</time>
      </trkpt>
      <trkpt lat="43.43533" lon="5.52504">
        <ele>403.6</ele>
        <time>2015-01-11T08:31:15.000Z</time>
      </trkpt>
      <trkpt lat="43.43532" lon="5.5251">
        <ele>403.7</ele>
        <time>2015-01-11T08:31:18.000Z</time>
      </trkpt>
      <trkpt lat="43.43532" lon="5.52517">
        <ele>403.7</ele>
        <time>2015-01-11T08:31:20.000Z</time>
      </trkpt>
      <trkpt lat="43.43533" lon="5.52524">
        <ele>403.8</ele>
        <time>2015-01-11T08:31:22.000Z</time>
      </trkpt>
      <trkpt lat="43.43534" lon="5.52532">
        <ele>404</ele>
        <time>2015-01-11T08:31:24.000Z</time>
      </trkpt>
      <trkpt lat="43.43535" lon="5.52538">
        <ele>404.1</ele>
        <time>2015-01-11T08:31:26.000Z</time>
      </trkpt>
      <trkpt lat="43.43536" lon="5.52545">
        <ele>404.3</ele>
        <time>2015-01-11T08:31:28.000Z</time>
      </trkpt>
      <trkpt lat="43.43538" lon="5.52554">
        <ele>404.4</ele>
        <time>2015-01-11T08:31:30.000Z</time>
      </trkpt>
      <trkpt lat="43.4354" lon="5.52562">
        <ele>404.6</ele>
        <time>2015-01-11T08:31:32.000Z</time>
      </trkpt>
      <trkpt lat="43.4354" lon="5.5257">
        <ele>404.8</ele>
        <time>2015-01-11T08:31:34.000Z</time>
      </trkpt>
      <trkpt lat="43.43542" lon="5.52576">
        <ele>405.2</ele>
        <time>2015-01-11T08:31:36.000Z</time>
      </trkpt>
      <trkpt lat="43.43544" lon="5.52581">
        <ele>405.8</ele>
        <time>2015-01-11T08:31:39.000Z</time>
      </trkpt>
      <trkpt lat="43.43548" lon="5.52586">
        <ele>406.1</ele>
        <time>2015-01-11T08:31:41.000Z</time>
      </trkpt>
      <trkpt lat="43.43552" lon="5.52592">
        <ele>406.3</ele>
        <time>2015-01-11T08:31:43.000Z</time>
      </trkpt>
      <trkpt lat="43.43556" lon="5.52597">
        <ele>406.7</ele>
        <time>2015-01-11T08:31:45.000Z</time>
      </trkpt>
      <trkpt lat="43.4356" lon="5.52601">
        <ele>407.1</ele>
        <time>2015-01-11T08:31:48.000Z</time>
      </trkpt>
      <trkpt lat="43.43564" lon="5.52604">
        <ele>407.4</ele>
        <time>2015-01-11T08:31:50.000Z</time>
      </trkpt>
      <trkpt lat="43.43568" lon="5.52608">
        <ele>407.8</ele>
        <time>2015-01-11T08:31:52.000Z</time>
      </trkpt>
      <trkpt lat="43.43573" lon="5.52614">
        <ele>408.3</ele>
        <time>2015-01-11T08:31:54.000Z</time>
      </trkpt>
      <trkpt lat="43.43577" lon="5.52616">
        <ele>408.7</ele>
        <time>2015-01-11T08:31:56.000Z</time>
      </trkpt>
      <trkpt lat="43.43579" lon="5.5261">
        <ele>410.5</ele>
        <time>2015-01-11T08:32:11.000Z</time>
      </trkpt>
      <trkpt lat="43.4358" lon="5.52603">
        <ele>414.5</ele>
        <time>2015-01-11T08:32:47.000Z</time>
      </trkpt>
      <trkpt lat="43.43581" lon="5.52596">
        <ele>415</ele>
        <time>2015-01-11T08:32:50.000Z</time>
      </trkpt>
      <trkpt lat="43.43583" lon="5.52588">
        <ele>415.5</ele>
        <time>2015-01-11T08:32:53.000Z</time>
      </trkpt>
      <trkpt lat="43.43585" lon="5.52583">
        <ele>415.8</ele>
        <time>2015-01-11T08:32:55.000Z</time>
      </trkpt>
      <trkpt lat="43.43586" lon="5.52577">
        <ele>416.1</ele>
        <time>2015-01-11T08:32:57.000Z</time>
      </trkpt>
      <trkpt lat="43.43588" lon="5.52568">
        <ele>416.5</ele>
        <time>2015-01-11T08:33:00.000Z</time>
      </trkpt>
      <trkpt lat="43.43589" lon="5.52562">
        <ele>416.8</ele>
        <time>2015-01-11T08:33:02.000Z</time>
      </trkpt>
      <trkpt lat="43.4359" lon="5.52554">
        <ele>417</ele>
        <time>2015-01-11T08:33:04.000Z</time>
      </trkpt>
      <trkpt lat="43.43591" lon="5.52547">
        <ele>417.3</ele>
        <time>2015-01-11T08:33:06.000Z</time>
      </trkpt>
      <trkpt lat="43.4359" lon="5.52539">
        <ele>417.8</ele>
        <time>2015-01-11T08:33:09.000Z</time>
      </trkpt>
      <trkpt lat="43.4359" lon="5.52531">
        <ele>418.4</ele>
        <time>2015-01-11T08:33:12.000Z</time>
      </trkpt>
      <trkpt lat="43.4359" lon="5.52523">
        <ele>418.8</ele>
        <time>2015-01-11T08:33:15.000Z</time>
      </trkpt>
      <trkpt lat="43.43593" lon="5.52516">
        <ele>419.1</ele>
        <time>2015-01-11T08:33:18.000Z</time>
      </trkpt>
      <trkpt lat="43.43596" lon="5.5251">
        <ele>419.4</ele>
        <time>2015-01-11T08:33:20.000Z</time>
      </trkpt>
      <trkpt lat="43.43598" lon="5.52503">
        <ele>419.8</ele>
        <time>2015-01-11T08:33:22.000Z</time>
      </trkpt>
      <trkpt lat="43.436" lon="5.52497">
        <ele>420.2</ele>
        <time>2015-01-11T08:33:24.000Z</time>
      </trkpt>
      <trkpt lat="43.43601" lon="5.52489">
        <ele>420.7</ele>
        <time>2015-01-11T08:33:26.000Z</time>
      </trkpt>
      <trkpt lat="43.43601" lon="5.52482">
        <ele>421.1</ele>
        <time>2015-01-11T08:33:28.000Z</time>
      </trkpt>
      <trkpt lat="43.43602" lon="5.52475">
        <ele>421.5</ele>
        <time>2015-01-11T08:33:30.000Z</time>
      </trkpt>
      <trkpt lat="43.43604" lon="5.52468">
        <ele>421.8</ele>
        <time>2015-01-11T08:33:32.000Z</time>
      </trkpt>
      <trkpt lat="43.43605" lon="5.52462">
        <ele>422.1</ele>
        <time>2015-01-11T08:33:34.000Z</time>
      </trkpt>
      <trkpt lat="43.43607" lon="5.52454">
        <ele>422.4</ele>
        <time>2015-01-11T08:33:36.000Z</time>
      </trkpt>
      <trkpt lat="43.43608" lon="5.52445">
        <ele>422.6</ele>
        <time>2015-01-11T08:33:38.000Z</time>
      </trkpt>
      <trkpt lat="43.4361" lon="5.52435">
        <ele>422.9</ele>
        <time>2015-01-11T08:33:40.000Z</time>
      </trkpt>
      <trkpt lat="43.43612" lon="5.52424">
        <ele>423.2</ele>
        <time>2015-01-11T08:33:42.000Z</time>
      </trkpt>
      <trkpt lat="43.43613" lon="5.52415">
        <ele>423.3</ele>
        <time>2015-01-11T08:33:44.000Z</time>
      </trkpt>
      <trkpt lat="43.43614" lon="5.52407">
        <ele>423.4</ele>
        <time>2015-01-11T08:33:46.000Z</time>
      </trkpt>
      <trkpt lat="43.43616" lon="5.52399">
        <ele>423.5</ele>
        <time>2015-01-11T08:33:48.000Z</time>
      </trkpt>
      <trkpt lat="43.43617" lon="5.52393">
        <ele>423.6</ele>
        <time>2015-01-11T08:33:50.000Z</time>
      </trkpt>
      <trkpt lat="43.43617" lon="5.52386">
        <ele>423.6</ele>
        <time>2015-01-11T08:33:52.000Z</time>
      </trkpt>
      <trkpt lat="43.43616" lon="5.52378">
        <ele>423.7</ele>
        <time>2015-01-11T08:33:54.000Z</time>
      </trkpt>
      <trkpt lat="43.43616" lon="5.52371">
        <ele>423.8</ele>
        <time>2015-01-11T08:33:56.000Z</time>
      </trkpt>
      <trkpt lat="43.43618" lon="5.52364">
        <ele>424.2</ele>
        <time>2015-01-11T08:33:59.000Z</time>
      </trkpt>
      <trkpt lat="43.43619" lon="5.52357">
        <ele>424.6</ele>
        <time>2015-01-11T08:34:01.000Z</time>
      </trkpt>
      <trkpt lat="43.43621" lon="5.52352">
        <ele>425</ele>
        <time>2015-01-11T08:34:03.000Z</time>
      </trkpt>
      <trkpt lat="43.43624" lon="5.52345">
        <ele>425.3</ele>
        <time>2015-01-11T08:34:05.000Z</time>
      </trkpt>
      <trkpt lat="43.43629" lon="5.52338">
        <ele>425.6</ele>
        <time>2015-01-11T08:34:08.000Z</time>
      </trkpt>
      <trkpt lat="43.43633" lon="5.52332">
        <ele>425.9</ele>
        <time>2015-01-11T08:34:10.000Z</time>
      </trkpt>
      <trkpt lat="43.43637" lon="5.52327">
        <ele>426</ele>
        <time>2015-01-11T08:34:12.000Z</time>
      </trkpt>
      <trkpt lat="43.43642" lon="5.52321">
        <ele>426.1</ele>
        <time>2015-01-11T08:34:14.000Z</time>
      </trkpt>
      <trkpt lat="43.43646" lon="5.52316">
        <ele>426.2</ele>
        <time>2015-01-11T08:34:16.000Z</time>
      </trkpt>
      <trkpt lat="43.43652" lon="5.52308">
        <ele>426.3</ele>
        <time>2015-01-11T08:34:18.000Z</time>
      </trkpt>
      <trkpt lat="43.43657" lon="5.523">
        <ele>426.3</ele>
        <time>2015-01-11T08:34:20.000Z</time>
      </trkpt>
      <trkpt lat="43.43662" lon="5.52293">
        <ele>426.4</ele>
        <time>2015-01-11T08:34:22.000Z</time>
      </trkpt>
      <trkpt lat="43.43667" lon="5.52286">
        <ele>426.5</ele>
        <time>2015-01-11T08:34:24.000Z</time>
      </trkpt>
      <trkpt lat="43.43674" lon="5.52281">
        <ele>426.4</ele>
        <time>2015-01-11T08:34:26.000Z</time>
      </trkpt>
      <trkpt lat="43.43682" lon="5.52277">
        <ele>426.5</ele>
        <time>2015-01-11T08:34:28.000Z</time>
      </trkpt>
      <trkpt lat="43.43688" lon="5.52273">
        <ele>426.5</ele>
        <time>2015-01-11T08:34:30.000Z</time>
      </trkpt>
      <trkpt lat="43.43694" lon="5.52269">
        <ele>426.6</ele>
        <time>2015-01-11T08:34:32.000Z</time>
      </trkpt>
      <trkpt lat="43.437" lon="5.52263">
        <ele>426.7</ele>
        <time>2015-01-11T08:34:34.000Z</time>
      </trkpt>
      <trkpt lat="43.43706" lon="5.52258">
        <ele>426.8</ele>
        <time>2015-01-11T08:34:36.000Z</time>
      </trkpt>
      <trkpt lat="43.43713" lon="5.52252">
        <ele>428.1</ele>
        <time>2015-01-11T08:34:38.000Z</time>
      </trkpt>
      <trkpt lat="43.43716" lon="5.52247">
        <ele>428.7</ele>
        <time>2015-01-11T08:34:39.000Z</time>
      </trkpt>
      <trkpt lat="43.43721" lon="5.52243">
        <ele>429.1</ele>
        <time>2015-01-11T08:34:40.000Z</time>
      </trkpt>
      <trkpt lat="43.43728" lon="5.52235">
        <ele>429</ele>
        <time>2015-01-11T08:34:42.000Z</time>
      </trkpt>
      <trkpt lat="43.43732" lon="5.52231">
        <ele>428.7</ele>
        <time>2015-01-11T08:34:43.000Z</time>
      </trkpt>
      <trkpt lat="43.43736" lon="5.52227">
        <ele>428.1</ele>
        <time>2015-01-11T08:34:44.000Z</time>
      </trkpt>
      <trkpt lat="43.4374" lon="5.52224">
        <ele>427</ele>
        <time>2015-01-11T08:34:45.000Z</time>
      </trkpt>
      <trkpt lat="43.43744" lon="5.52219">
        <ele>426.4</ele>
        <time>2015-01-11T08:34:46.000Z</time>
      </trkpt>
      <trkpt lat="43.43751" lon="5.52212">
        <ele>426.2</ele>
        <time>2015-01-11T08:34:48.000Z</time>
      </trkpt>
      <trkpt lat="43.43757" lon="5.52207">
        <ele>426</ele>
        <time>2015-01-11T08:34:50.000Z</time>
      </trkpt>
      <trkpt lat="43.43764" lon="5.52203">
        <ele>425.8</ele>
        <time>2015-01-11T08:34:52.000Z</time>
      </trkpt>
      <trkpt lat="43.4377" lon="5.52198">
        <ele>425.5</ele>
        <time>2015-01-11T08:34:54.000Z</time>
      </trkpt>
      <trkpt lat="43.43774" lon="5.52194">
        <ele>425.3</ele>
        <time>2015-01-11T08:34:55.000Z</time>
      </trkpt>
      <trkpt lat="43.43778" lon="5.5219">
        <ele>425.2</ele>
        <time>2015-01-11T08:34:56.000Z</time>
      </trkpt>
      <trkpt lat="43.43785" lon="5.52182">
        <ele>423</ele>
        <time>2015-01-11T08:34:58.000Z</time>
      </trkpt>
      <trkpt lat="43.43789" lon="5.52178">
        <ele>422</ele>
        <time>2015-01-11T08:34:59.000Z</time>
      </trkpt>
      <trkpt lat="43.43796" lon="5.5217">
        <ele>420.6</ele>
        <time>2015-01-11T08:35:01.000Z</time>
      </trkpt>
      <trkpt lat="43.43799" lon="5.52166">
        <ele>420</ele>
        <time>2015-01-11T08:35:02.000Z</time>
      </trkpt>
      <trkpt lat="43.43803" lon="5.52161">
        <ele>419.9</ele>
        <time>2015-01-11T08:35:03.000Z</time>
      </trkpt>
      <trkpt lat="43.43807" lon="5.52157">
        <ele>419.4</ele>
        <time>2015-01-11T08:35:04.000Z</time>
      </trkpt>
      <trkpt lat="43.43811" lon="5.52153">
        <ele>419.7</ele>
        <time>2015-01-11T08:35:05.000Z</time>
      </trkpt>
      <trkpt lat="43.43815" lon="5.52149">
        <ele>420.1</ele>
        <time>2015-01-11T08:35:06.000Z</time>
      </trkpt>
      <trkpt lat="43.43819" lon="5.52145">
        <ele>420.2</ele>
        <time>2015-01-11T08:35:07.000Z</time>
      </trkpt>
      <trkpt lat="43.43824" lon="5.52142">
        <ele>420.6</ele>
        <time>2015-01-11T08:35:08.000Z</time>
      </trkpt>
      <trkpt lat="43.43828" lon="5.52139">
        <ele>421.1</ele>
        <time>2015-01-11T08:35:09.000Z</time>
      </trkpt>
      <trkpt lat="43.43832" lon="5.52136">
        <ele>421.8</ele>
        <time>2015-01-11T08:35:10.000Z</time>
      </trkpt>
      <trkpt lat="43.43839" lon="5.52132">
        <ele>423.1</ele>
        <time>2015-01-11T08:35:12.000Z</time>
      </trkpt>
      <trkpt lat="43.43846" lon="5.52128">
        <ele>423.9</ele>
        <time>2015-01-11T08:35:14.000Z</time>
      </trkpt>
      <trkpt lat="43.43853" lon="5.52123">
        <ele>423.4</ele>
        <time>2015-01-11T08:35:16.000Z</time>
      </trkpt>
      <trkpt lat="43.4386" lon="5.52116">
        <ele>423.4</ele>
        <time>2015-01-11T08:35:18.000Z</time>
      </trkpt>
      <trkpt lat="43.43864" lon="5.52113">
        <ele>423.5</ele>
        <time>2015-01-11T08:35:19.000Z</time>
      </trkpt>
      <trkpt lat="43.43868" lon="5.52109">
        <ele>423.5</ele>
        <time>2015-01-11T08:35:20.000Z</time>
      </trkpt>
      <trkpt lat="43.43873" lon="5.52107">
        <ele>424</ele>
        <time>2015-01-11T08:35:21.000Z</time>
      </trkpt>
      <trkpt lat="43.43878" lon="5.52105">
        <ele>424.1</ele>
        <time>2015-01-11T08:35:22.000Z</time>
      </trkpt>
      <trkpt lat="43.43883" lon="5.52102">
        <ele>423.9</ele>
        <time>2015-01-11T08:35:23.000Z</time>
      </trkpt>
      <trkpt lat="43.43888" lon="5.521">
        <ele>423.3</ele>
        <time>2015-01-11T08:35:24.000Z</time>
      </trkpt>
      <trkpt lat="43.43892" lon="5.52097">
        <ele>423.2</ele>
        <time>2015-01-11T08:35:25.000Z</time>
      </trkpt>
      <trkpt lat="43.43897" lon="5.52096">
        <ele>422.9</ele>
        <time>2015-01-11T08:35:26.000Z</time>
      </trkpt>
      <trkpt lat="43.43902" lon="5.52094">
        <ele>422.3</ele>
        <time>2015-01-11T08:35:27.000Z</time>
      </trkpt>
      <trkpt lat="43.43907" lon="5.5209">
        <ele>421.9</ele>
        <time>2015-01-11T08:35:28.000Z</time>
      </trkpt>
      <trkpt lat="43.43914" lon="5.52084">
        <ele>421.6</ele>
        <time>2015-01-11T08:35:30.000Z</time>
      </trkpt>
      <trkpt lat="43.43918" lon="5.5208">
        <ele>421.5</ele>
        <time>2015-01-11T08:35:31.000Z</time>
      </trkpt>
      <trkpt lat="43.43923" lon="5.52077">
        <ele>420.7</ele>
        <time>2015-01-11T08:35:32.000Z</time>
      </trkpt>
      <trkpt lat="43.43927" lon="5.52073">
        <ele>420.2</ele>
        <time>2015-01-11T08:35:33.000Z</time>
      </trkpt>
      <trkpt lat="43.43933" lon="5.52068">
        <ele>419.4</ele>
        <time>2015-01-11T08:35:34.000Z</time>
      </trkpt>
      <trkpt lat="43.43938" lon="5.52064">
        <ele>418.2</ele>
        <time>2015-01-11T08:35:35.000Z</time>
      </trkpt>
      <trkpt lat="43.43944" lon="5.5206">
        <ele>417.5</ele>
        <time>2015-01-11T08:35:36.000Z</time>
      </trkpt>
      <trkpt lat="43.4395" lon="5.52056">
        <ele>417</ele>
        <time>2015-01-11T08:35:37.000Z</time>
      </trkpt>
      <trkpt lat="43.43956" lon="5.52053">
        <ele>417</ele>
        <time>2015-01-11T08:35:38.000Z</time>
      </trkpt>
      <trkpt lat="43.43961" lon="5.52049">
        <ele>417.2</ele>
        <time>2015-01-11T08:35:39.000Z</time>
      </trkpt>
      <trkpt lat="43.43965" lon="5.52044">
        <ele>417.4</ele>
        <time>2015-01-11T08:35:40.000Z</time>
      </trkpt>
      <trkpt lat="43.4397" lon="5.5204">
        <ele>417.4</ele>
        <time>2015-01-11T08:35:41.000Z</time>
      </trkpt>
      <trkpt lat="43.43975" lon="5.52035">
        <ele>417.7</ele>
        <time>2015-01-11T08:35:42.000Z</time>
      </trkpt>
      <trkpt lat="43.4398" lon="5.5203">
        <ele>418.2</ele>
        <time>2015-01-11T08:35:43.000Z</time>
      </trkpt>
      <trkpt lat="43.43984" lon="5.52026">
        <ele>418</ele>
        <time>2015-01-11T08:35:44.000Z</time>
      </trkpt>
      <trkpt lat="43.43992" lon="5.52019">
        <ele>417.4</ele>
        <time>2015-01-11T08:35:46.000Z</time>
      </trkpt>
      <trkpt lat="43.43996" lon="5.52016">
        <ele>417.2</ele>
        <time>2015-01-11T08:35:47.000Z</time>
      </trkpt>
      <trkpt lat="43.44001" lon="5.52012">
        <ele>417</ele>
        <time>2015-01-11T08:35:48.000Z</time>
      </trkpt>
      <trkpt lat="43.44006" lon="5.52009">
        <ele>416.3</ele>
        <time>2015-01-11T08:35:49.000Z</time>
      </trkpt>
      <trkpt lat="43.44011" lon="5.52005">
        <ele>415.7</ele>
        <time>2015-01-11T08:35:50.000Z</time>
      </trkpt>
      <trkpt lat="43.44016" lon="5.52">
        <ele>415.6</ele>
        <time>2015-01-11T08:35:51.000Z</time>
      </trkpt>
      <trkpt lat="43.4402" lon="5.51996">
        <ele>415.6</ele>
        <time>2015-01-11T08:35:52.000Z</time>
      </trkpt>
      <trkpt lat="43.44025" lon="5.51993">
        <ele>415.9</ele>
        <time>2015-01-11T08:35:53.000Z</time>
      </trkpt>
      <trkpt lat="43.44029" lon="5.51989">
        <ele>415.5</ele>
        <time>2015-01-11T08:35:54.000Z</time>
      </trkpt>
      <trkpt lat="43.44033" lon="5.51986">
        <ele>415.1</ele>
        <time>2015-01-11T08:35:55.000Z</time>
      </trkpt>
      <trkpt lat="43.44037" lon="5.51982">
        <ele>414.5</ele>
        <time>2015-01-11T08:35:56.000Z</time>
      </trkpt>
      <trkpt lat="43.4404" lon="5.51977">
        <ele>413.9</ele>
        <time>2015-01-11T08:35:57.000Z</time>
      </trkpt>
      <trkpt lat="43.44044" lon="5.51971">
        <ele>413.3</ele>
        <time>2015-01-11T08:35:58.000Z</time>
      </trkpt>
      <trkpt lat="43.44049" lon="5.51967">
        <ele>413.4</ele>
        <time>2015-01-11T08:35:59.000Z</time>
      </trkpt>
      <trkpt lat="43.44053" lon="5.51963">
        <ele>414.1</ele>
        <time>2015-01-11T08:36:00.000Z</time>
      </trkpt>
      <trkpt lat="43.44056" lon="5.51959">
        <ele>414.1</ele>
        <time>2015-01-11T08:36:01.000Z</time>
      </trkpt>
      <trkpt lat="43.44064" lon="5.51953">
        <ele>412.5</ele>
        <time>2015-01-11T08:36:03.000Z</time>
      </trkpt>
      <trkpt lat="43.44068" lon="5.5195">
        <ele>411.3</ele>
        <time>2015-01-11T08:36:04.000Z</time>
      </trkpt>
      <trkpt lat="43.44073" lon="5.51947">
        <ele>411.4</ele>
        <time>2015-01-11T08:36:05.000Z</time>
      </trkpt>
      <trkpt lat="43.44078" lon="5.51943">
        <ele>411.4</ele>
        <time>2015-01-11T08:36:06.000Z</time>
      </trkpt>
      <trkpt lat="43.44082" lon="5.51938">
        <ele>411.7</ele>
        <time>2015-01-11T08:36:07.000Z</time>
      </trkpt>
      <trkpt lat="43.44086" lon="5.51933">
        <ele>411.5</ele>
        <time>2015-01-11T08:36:08.000Z</time>
      </trkpt>
      <trkpt lat="43.44089" lon="5.51928">
        <ele>411.5</ele>
        <time>2015-01-11T08:36:09.000Z</time>
      </trkpt>
      <trkpt lat="43.44093" lon="5.51924">
        <ele>410.5</ele>
        <time>2015-01-11T08:36:10.000Z</time>
      </trkpt>
      <trkpt lat="43.44097" lon="5.51919">
        <ele>409.5</ele>
        <time>2015-01-11T08:36:11.000Z</time>
      </trkpt>
      <trkpt lat="43.44102" lon="5.51914">
        <ele>409.2</ele>
        <time>2015-01-11T08:36:12.000Z</time>
      </trkpt>
      <trkpt lat="43.44105" lon="5.51909">
        <ele>409.1</ele>
        <time>2015-01-11T08:36:13.000Z</time>
      </trkpt>
      <trkpt lat="43.44108" lon="5.51903">
        <ele>409</ele>
        <time>2015-01-11T08:36:14.000Z</time>
      </trkpt>
      <trkpt lat="43.44112" lon="5.51899">
        <ele>409.1</ele>
        <time>2015-01-11T08:36:15.000Z</time>
      </trkpt>
      <trkpt lat="43.4412" lon="5.51893">
        <ele>407.9</ele>
        <time>2015-01-11T08:36:17.000Z</time>
      </trkpt>
      <trkpt lat="43.44125" lon="5.5189">
        <ele>407.4</ele>
        <time>2015-01-11T08:36:18.000Z</time>
      </trkpt>
      <trkpt lat="43.4413" lon="5.51886">
        <ele>406.6</ele>
        <time>2015-01-11T08:36:19.000Z</time>
      </trkpt>
      <trkpt lat="43.44134" lon="5.51882">
        <ele>406.6</ele>
        <time>2015-01-11T08:36:20.000Z</time>
      </trkpt>
      <trkpt lat="43.44138" lon="5.51878">
        <ele>405.8</ele>
        <time>2015-01-11T08:36:21.000Z</time>
      </trkpt>
      <trkpt lat="43.44143" lon="5.51874">
        <ele>405.9</ele>
        <time>2015-01-11T08:36:22.000Z</time>
      </trkpt>
      <trkpt lat="43.44147" lon="5.5187">
        <ele>405.1</ele>
        <time>2015-01-11T08:36:23.000Z</time>
      </trkpt>
      <trkpt lat="43.44151" lon="5.51866">
        <ele>404.3</ele>
        <time>2015-01-11T08:36:24.000Z</time>
      </trkpt>
      <trkpt lat="43.44155" lon="5.51862">
        <ele>403.9</ele>
        <time>2015-01-11T08:36:25.000Z</time>
      </trkpt>
      <trkpt lat="43.44159" lon="5.51858">
        <ele>403.8</ele>
        <time>2015-01-11T08:36:26.000Z</time>
      </trkpt>
      <trkpt lat="43.44166" lon="5.51851">
        <ele>403.7</ele>
        <time>2015-01-11T08:36:28.000Z</time>
      </trkpt>
      <trkpt lat="43.4417" lon="5.51848">
        <ele>403.8</ele>
        <time>2015-01-11T08:36:29.000Z</time>
      </trkpt>
      <trkpt lat="43.44174" lon="5.51844">
        <ele>403.7</ele>
        <time>2015-01-11T08:36:30.000Z</time>
      </trkpt>
      <trkpt lat="43.44182" lon="5.51838">
        <ele>402.2</ele>
        <time>2015-01-11T08:36:32.000Z</time>
      </trkpt>
      <trkpt lat="43.44186" lon="5.51836">
        <ele>402</ele>
        <time>2015-01-11T08:36:33.000Z</time>
      </trkpt>
      <trkpt lat="43.4419" lon="5.51833">
        <ele>402.4</ele>
        <time>2015-01-11T08:36:34.000Z</time>
      </trkpt>
      <trkpt lat="43.44197" lon="5.51825">
        <ele>403.1</ele>
        <time>2015-01-11T08:36:36.000Z</time>
      </trkpt>
      <trkpt lat="43.44204" lon="5.5182">
        <ele>403.1</ele>
        <time>2015-01-11T08:36:38.000Z</time>
      </trkpt>
      <trkpt lat="43.4421" lon="5.51815">
        <ele>403.1</ele>
        <time>2015-01-11T08:36:40.000Z</time>
      </trkpt>
      <trkpt lat="43.44216" lon="5.51813">
        <ele>403</ele>
        <time>2015-01-11T08:36:42.000Z</time>
      </trkpt>
      <trkpt lat="43.44222" lon="5.51813">
        <ele>402.9</ele>
        <time>2015-01-11T08:36:44.000Z</time>
      </trkpt>
      <trkpt lat="43.44226" lon="5.51806">
        <ele>402.8</ele>
        <time>2015-01-11T08:36:46.000Z</time>
      </trkpt>
      <trkpt lat="43.4423" lon="5.51797">
        <ele>402.8</ele>
        <time>2015-01-11T08:36:48.000Z</time>
      </trkpt>
      <trkpt lat="43.44236" lon="5.51789">
        <ele>402.6</ele>
        <time>2015-01-11T08:36:50.000Z</time>
      </trkpt>
      <trkpt lat="43.44242" lon="5.51781">
        <ele>402.6</ele>
        <time>2015-01-11T08:36:52.000Z</time>
      </trkpt>
      <trkpt lat="43.44248" lon="5.51773">
        <ele>402</ele>
        <time>2015-01-11T08:36:54.000Z</time>
      </trkpt>
      <trkpt lat="43.44256" lon="5.51765">
        <ele>401.8</ele>
        <time>2015-01-11T08:36:56.000Z</time>
      </trkpt>
      <trkpt lat="43.44259" lon="5.51762">
        <ele>401.6</ele>
        <time>2015-01-11T08:36:57.000Z</time>
      </trkpt>
      <trkpt lat="43.44266" lon="5.51757">
        <ele>401.4</ele>
        <time>2015-01-11T08:36:59.000Z</time>
      </trkpt>
      <trkpt lat="43.44271" lon="5.51751">
        <ele>401</ele>
        <time>2015-01-11T08:37:01.000Z</time>
      </trkpt>
      <trkpt lat="43.44276" lon="5.51742">
        <ele>400.6</ele>
        <time>2015-01-11T08:37:03.000Z</time>
      </trkpt>
      <trkpt lat="43.4428" lon="5.51733">
        <ele>400.4</ele>
        <time>2015-01-11T08:37:05.000Z</time>
      </trkpt>
      <trkpt lat="43.44283" lon="5.51728">
        <ele>398.9</ele>
        <time>2015-01-11T08:37:06.000Z</time>
      </trkpt>
      <trkpt lat="43.44286" lon="5.51723">
        <ele>397.6</ele>
        <time>2015-01-11T08:37:07.000Z</time>
      </trkpt>
      <trkpt lat="43.44291" lon="5.51717">
        <ele>397.1</ele>
        <time>2015-01-11T08:37:09.000Z</time>
      </trkpt>
      <trkpt lat="43.44297" lon="5.51713">
        <ele>397.1</ele>
        <time>2015-01-11T08:37:11.000Z</time>
      </trkpt>
      <trkpt lat="43.44304" lon="5.5171">
        <ele>397.1</ele>
        <time>2015-01-11T08:37:13.000Z</time>
      </trkpt>
      <trkpt lat="43.44309" lon="5.51712">
        <ele>397</ele>
        <time>2015-01-11T08:37:15.000Z</time>
      </trkpt>
      <trkpt lat="43.44305" lon="5.51715">
        <ele>396.2</ele>
        <time>2015-01-11T08:37:38.000Z</time>
      </trkpt>
      <trkpt lat="43.44308" lon="5.51707">
        <ele>390.9</ele>
        <time>2015-01-11T08:38:44.000Z</time>
      </trkpt>
      <trkpt lat="43.44309" lon="5.51701">
        <ele>391</ele>
        <time>2015-01-11T08:38:46.000Z</time>
      </trkpt>
      <trkpt lat="43.4431" lon="5.51693">
        <ele>390.9</ele>
        <time>2015-01-11T08:38:48.000Z</time>
      </trkpt>
      <trkpt lat="43.44313" lon="5.51684">
        <ele>390.9</ele>
        <time>2015-01-11T08:38:50.000Z</time>
      </trkpt>
      <trkpt lat="43.44317" lon="5.51676">
        <ele>390.8</ele>
        <time>2015-01-11T08:38:52.000Z</time>
      </trkpt>
      <trkpt lat="43.4432" lon="5.51667">
        <ele>390.6</ele>
        <time>2015-01-11T08:38:54.000Z</time>
      </trkpt>
      <trkpt lat="43.44324" lon="5.51656">
        <ele>390.3</ele>
        <time>2015-01-11T08:38:56.000Z</time>
      </trkpt>
      <trkpt lat="43.44326" lon="5.51651">
        <ele>389.8</ele>
        <time>2015-01-11T08:39:05.000Z</time>
      </trkpt>
      <trkpt lat="43.44327" lon="5.51645">
        <ele>385.8</ele>
        <time>2015-01-11T08:39:36.000Z</time>
      </trkpt>
      <trkpt lat="43.44326" lon="5.51638">
        <ele>385.8</ele>
        <time>2015-01-11T08:39:40.000Z</time>
      </trkpt>
      <trkpt lat="43.44327" lon="5.51631">
        <ele>385.8</ele>
        <time>2015-01-11T08:39:46.000Z</time>
      </trkpt>
      <trkpt lat="43.44326" lon="5.51624">
        <ele>385.5</ele>
        <time>2015-01-11T08:39:51.000Z</time>
      </trkpt>
      <trkpt lat="43.44326" lon="5.51617">
        <ele>385.2</ele>
        <time>2015-01-11T08:39:54.000Z</time>
      </trkpt>
      <trkpt lat="43.44326" lon="5.5161">
        <ele>384.8</ele>
        <time>2015-01-11T08:39:58.000Z</time>
      </trkpt>
      <trkpt lat="43.44327" lon="5.51602">
        <ele>384.2</ele>
        <time>2015-01-11T08:40:03.000Z</time>
      </trkpt>
      <trkpt lat="43.44328" lon="5.51596">
        <ele>383.3</ele>
        <time>2015-01-11T08:40:08.000Z</time>
      </trkpt>
      <trkpt lat="43.44332" lon="5.51589">
        <ele>382.3</ele>
        <time>2015-01-11T08:40:13.000Z</time>
      </trkpt>
      <trkpt lat="43.44332" lon="5.51582">
        <ele>381.2</ele>
        <time>2015-01-11T08:40:17.000Z</time>
      </trkpt>
      <trkpt lat="43.4433" lon="5.51576">
        <ele>379.7</ele>
        <time>2015-01-11T08:40:22.000Z</time>
      </trkpt>
      <trkpt lat="43.4433" lon="5.51569">
        <ele>378.2</ele>
        <time>2015-01-11T08:40:27.000Z</time>
      </trkpt>
      <trkpt lat="43.44332" lon="5.51562">
        <ele>374.3</ele>
        <time>2015-01-11T08:40:47.000Z</time>
      </trkpt>
      <trkpt lat="43.44336" lon="5.51559">
        <ele>370.5</ele>
        <time>2015-01-11T08:41:04.000Z</time>
      </trkpt>
      <trkpt lat="43.44337" lon="5.51553">
        <ele>369.8</ele>
        <time>2015-01-11T08:41:09.000Z</time>
      </trkpt>
      <trkpt lat="43.44339" lon="5.51559">
        <ele>365.8</ele>
        <time>2015-01-11T08:41:37.000Z</time>
      </trkpt>
      <trkpt lat="43.44341" lon="5.51564">
        <ele>365</ele>
        <time>2015-01-11T08:41:48.000Z</time>
      </trkpt>
      <trkpt lat="43.44346" lon="5.51564">
        <ele>363.7</ele>
        <time>2015-01-11T08:42:04.000Z</time>
      </trkpt>
      <trkpt lat="43.4435" lon="5.51562">
        <ele>363.6</ele>
        <time>2015-01-11T08:42:06.000Z</time>
      </trkpt>
      <trkpt lat="43.44357" lon="5.51561">
        <ele>363.5</ele>
        <time>2015-01-11T08:42:08.000Z</time>
      </trkpt>
      <trkpt lat="43.44363" lon="5.51562">
        <ele>363.5</ele>
        <time>2015-01-11T08:42:11.000Z</time>
      </trkpt>
      <trkpt lat="43.44368" lon="5.51562">
        <ele>363.5</ele>
        <time>2015-01-11T08:42:13.000Z</time>
      </trkpt>
      <trkpt lat="43.44375" lon="5.51561">
        <ele>364</ele>
        <time>2015-01-11T08:42:15.000Z</time>
      </trkpt>
      <trkpt lat="43.44383" lon="5.51562">
        <ele>363.6</ele>
        <time>2015-01-11T08:42:17.000Z</time>
      </trkpt>
      <trkpt lat="43.4439" lon="5.51564">
        <ele>363.7</ele>
        <time>2015-01-11T08:42:19.000Z</time>
      </trkpt>
      <trkpt lat="43.44396" lon="5.51565">
        <ele>363.7</ele>
        <time>2015-01-11T08:42:21.000Z</time>
      </trkpt>
      <trkpt lat="43.44402" lon="5.51566">
        <ele>363.7</ele>
        <time>2015-01-11T08:42:23.000Z</time>
      </trkpt>
      <trkpt lat="43.44408" lon="5.51566">
        <ele>363.8</ele>
        <time>2015-01-11T08:42:25.000Z</time>
      </trkpt>
      <trkpt lat="43.44414" lon="5.51566">
        <ele>363.8</ele>
        <time>2015-01-11T08:42:27.000Z</time>
      </trkpt>
      <trkpt lat="43.44421" lon="5.51567">
        <ele>363.7</ele>
        <time>2015-01-11T08:42:29.000Z</time>
      </trkpt>
      <trkpt lat="43.44428" lon="5.51568">
        <ele>363.7</ele>
        <time>2015-01-11T08:42:31.000Z</time>
      </trkpt>
      <trkpt lat="43.44432" lon="5.51566">
        <ele>363.6</ele>
        <time>2015-01-11T08:42:33.000Z</time>
      </trkpt>
      <trkpt lat="43.44436" lon="5.51563">
        <ele>363.6</ele>
        <time>2015-01-11T08:42:35.000Z</time>
      </trkpt>
      <trkpt lat="43.44442" lon="5.51555">
        <ele>363.5</ele>
        <time>2015-01-11T08:42:37.000Z</time>
      </trkpt>
      <trkpt lat="43.44448" lon="5.51547">
        <ele>363.4</ele>
        <time>2015-01-11T08:42:39.000Z</time>
      </trkpt>
      <trkpt lat="43.44452" lon="5.51537">
        <ele>363.4</ele>
        <time>2015-01-11T08:42:41.000Z</time>
      </trkpt>
      <trkpt lat="43.44456" lon="5.5153">
        <ele>363.4</ele>
        <time>2015-01-11T08:42:43.000Z</time>
      </trkpt>
      <trkpt lat="43.44462" lon="5.51524">
        <ele>363.2</ele>
        <time>2015-01-11T08:42:45.000Z</time>
      </trkpt>
      <trkpt lat="43.44468" lon="5.51522">
        <ele>363</ele>
        <time>2015-01-11T08:42:47.000Z</time>
      </trkpt>
      <trkpt lat="43.44473" lon="5.51518">
        <ele>362.7</ele>
        <time>2015-01-11T08:42:49.000Z</time>
      </trkpt>
      <trkpt lat="43.44477" lon="5.51514">
        <ele>362.5</ele>
        <time>2015-01-11T08:42:51.000Z</time>
      </trkpt>
      <trkpt lat="43.44481" lon="5.51511">
        <ele>362</ele>
        <time>2015-01-11T08:43:00.000Z</time>
      </trkpt>
      <trkpt lat="43.44476" lon="5.51509">
        <ele>357.4</ele>
        <time>2015-01-11T08:44:08.000Z</time>
      </trkpt>
      <trkpt lat="43.44475" lon="5.51502">
        <ele>356.8</ele>
        <time>2015-01-11T08:45:14.000Z</time>
      </trkpt>
      <trkpt lat="43.44475" lon="5.51494">
        <ele>356.7</ele>
        <time>2015-01-11T08:45:19.000Z</time>
      </trkpt>
      <trkpt lat="43.44476" lon="5.51487">
        <ele>356.7</ele>
        <time>2015-01-11T08:45:21.000Z</time>
      </trkpt>
      <trkpt lat="43.44478" lon="5.5148">
        <ele>356.6</ele>
        <time>2015-01-11T08:45:23.000Z</time>
      </trkpt>
      <trkpt lat="43.44478" lon="5.51472">
        <ele>356.6</ele>
        <time>2015-01-11T08:45:25.000Z</time>
      </trkpt>
      <trkpt lat="43.4448" lon="5.51465">
        <ele>356.6</ele>
        <time>2015-01-11T08:45:27.000Z</time>
      </trkpt>
      <trkpt lat="43.44481" lon="5.51456">
        <ele>356.6</ele>
        <time>2015-01-11T08:45:29.000Z</time>
      </trkpt>
      <trkpt lat="43.44481" lon="5.51448">
        <ele>356.5</ele>
        <time>2015-01-11T08:45:31.000Z</time>
      </trkpt>
      <trkpt lat="43.44481" lon="5.51441">
        <ele>356.3</ele>
        <time>2015-01-11T08:45:33.000Z</time>
      </trkpt>
      <trkpt lat="43.44482" lon="5.51434">
        <ele>356.1</ele>
        <time>2015-01-11T08:45:35.000Z</time>
      </trkpt>
      <trkpt lat="43.44484" lon="5.51425">
        <ele>356.2</ele>
        <time>2015-01-11T08:45:37.000Z</time>
      </trkpt>
      <trkpt lat="43.44487" lon="5.51419">
        <ele>356.2</ele>
        <time>2015-01-11T08:45:39.000Z</time>
      </trkpt>
      <trkpt lat="43.44487" lon="5.51411">
        <ele>355.9</ele>
        <time>2015-01-11T08:45:43.000Z</time>
      </trkpt>
      <trkpt lat="43.44488" lon="5.51402">
        <ele>355.8</ele>
        <time>2015-01-11T08:45:46.000Z</time>
      </trkpt>
      <trkpt lat="43.44489" lon="5.51396">
        <ele>355.7</ele>
        <time>2015-01-11T08:45:48.000Z</time>
      </trkpt>
      <trkpt lat="43.44492" lon="5.5139">
        <ele>355.6</ele>
        <time>2015-01-11T08:45:50.000Z</time>
      </trkpt>
      <trkpt lat="43.44495" lon="5.51384">
        <ele>355.4</ele>
        <time>2015-01-11T08:45:52.000Z</time>
      </trkpt>
      <trkpt lat="43.44498" lon="5.51378">
        <ele>355</ele>
        <time>2015-01-11T08:45:55.000Z</time>
      </trkpt>
      <trkpt lat="43.44502" lon="5.51371">
        <ele>354.6</ele>
        <time>2015-01-11T08:45:58.000Z</time>
      </trkpt>
      <trkpt lat="43.44506" lon="5.51365">
        <ele>354.4</ele>
        <time>2015-01-11T08:46:00.000Z</time>
      </trkpt>
      <trkpt lat="43.44509" lon="5.5136">
        <ele>354.3</ele>
        <time>2015-01-11T08:46:02.000Z</time>
      </trkpt>
      <trkpt lat="43.44512" lon="5.51354">
        <ele>354.2</ele>
        <time>2015-01-11T08:46:04.000Z</time>
      </trkpt>
      <trkpt lat="43.44517" lon="5.51347">
        <ele>354.2</ele>
        <time>2015-01-11T08:46:06.000Z</time>
      </trkpt>
      <trkpt lat="43.44522" lon="5.5134">
        <ele>354</ele>
        <time>2015-01-11T08:46:08.000Z</time>
      </trkpt>
      <trkpt lat="43.44526" lon="5.51333">
        <ele>353.8</ele>
        <time>2015-01-11T08:46:10.000Z</time>
      </trkpt>
      <trkpt lat="43.44532" lon="5.51326">
        <ele>353.7</ele>
        <time>2015-01-11T08:46:12.000Z</time>
      </trkpt>
      <trkpt lat="43.44538" lon="5.51318">
        <ele>353.6</ele>
        <time>2015-01-11T08:46:14.000Z</time>
      </trkpt>
      <trkpt lat="43.44542" lon="5.51311">
        <ele>353.6</ele>
        <time>2015-01-11T08:46:16.000Z</time>
      </trkpt>
      <trkpt lat="43.44547" lon="5.51305">
        <ele>353.5</ele>
        <time>2015-01-11T08:46:18.000Z</time>
      </trkpt>
      <trkpt lat="43.4455" lon="5.51299">
        <ele>353.5</ele>
        <time>2015-01-11T08:46:20.000Z</time>
      </trkpt>
      <trkpt lat="43.44551" lon="5.51293">
        <ele>353.6</ele>
        <time>2015-01-11T08:46:22.000Z</time>
      </trkpt>
      <trkpt lat="43.44554" lon="5.51286">
        <ele>353.6</ele>
        <time>2015-01-11T08:46:25.000Z</time>
      </trkpt>
      <trkpt lat="43.44556" lon="5.5128">
        <ele>353.5</ele>
        <time>2015-01-11T08:46:28.000Z</time>
      </trkpt>
      <trkpt lat="43.44559" lon="5.51275">
        <ele>353.3</ele>
        <time>2015-01-11T08:46:30.000Z</time>
      </trkpt>
      <trkpt lat="43.44563" lon="5.51268">
        <ele>353.2</ele>
        <time>2015-01-11T08:46:33.000Z</time>
      </trkpt>
      <trkpt lat="43.44567" lon="5.51261">
        <ele>353</ele>
        <time>2015-01-11T08:46:36.000Z</time>
      </trkpt>
      <trkpt lat="43.4457" lon="5.51255">
        <ele>352.9</ele>
        <time>2015-01-11T08:46:38.000Z</time>
      </trkpt>
      <trkpt lat="43.44573" lon="5.51247">
        <ele>352.8</ele>
        <time>2015-01-11T08:46:40.000Z</time>
      </trkpt>
      <trkpt lat="43.44577" lon="5.51239">
        <ele>352.7</ele>
        <time>2015-01-11T08:46:42.000Z</time>
      </trkpt>
      <trkpt lat="43.44582" lon="5.51231">
        <ele>352.5</ele>
        <time>2015-01-11T08:46:44.000Z</time>
      </trkpt>
      <trkpt lat="43.44587" lon="5.51223">
        <ele>352.4</ele>
        <time>2015-01-11T08:46:46.000Z</time>
      </trkpt>
      <trkpt lat="43.44591" lon="5.51214">
        <ele>352</ele>
        <time>2015-01-11T08:46:48.000Z</time>
      </trkpt>
      <trkpt lat="43.44595" lon="5.51205">
        <ele>351.7</ele>
        <time>2015-01-11T08:46:50.000Z</time>
      </trkpt>
      <trkpt lat="43.446" lon="5.51196">
        <ele>351.6</ele>
        <time>2015-01-11T08:46:52.000Z</time>
      </trkpt>
      <trkpt lat="43.44605" lon="5.51188">
        <ele>351.5</ele>
        <time>2015-01-11T08:46:54.000Z</time>
      </trkpt>
      <trkpt lat="43.44608" lon="5.51179">
        <ele>351.4</ele>
        <time>2015-01-11T08:46:56.000Z</time>
      </trkpt>
      <trkpt lat="43.44611" lon="5.5117">
        <ele>351.3</ele>
        <time>2015-01-11T08:46:58.000Z</time>
      </trkpt>
      <trkpt lat="43.44614" lon="5.5116">
        <ele>351</ele>
        <time>2015-01-11T08:47:00.000Z</time>
      </trkpt>
      <trkpt lat="43.44616" lon="5.51154">
        <ele>350.9</ele>
        <time>2015-01-11T08:47:01.000Z</time>
      </trkpt>
      <trkpt lat="43.44618" lon="5.51148">
        <ele>350.8</ele>
        <time>2015-01-11T08:47:02.000Z</time>
      </trkpt>
      <trkpt lat="43.44621" lon="5.51139">
        <ele>350.7</ele>
        <time>2015-01-11T08:47:04.000Z</time>
      </trkpt>
      <trkpt lat="43.44624" lon="5.51129">
        <ele>350.7</ele>
        <time>2015-01-11T08:47:06.000Z</time>
      </trkpt>
      <trkpt lat="43.44627" lon="5.5112">
        <ele>350.7</ele>
        <time>2015-01-11T08:47:08.000Z</time>
      </trkpt>
      <trkpt lat="43.44628" lon="5.51114">
        <ele>350.7</ele>
        <time>2015-01-11T08:47:09.000Z</time>
      </trkpt>
      <trkpt lat="43.44629" lon="5.51108">
        <ele>350.7</ele>
        <time>2015-01-11T08:47:10.000Z</time>
      </trkpt>
      <trkpt lat="43.44631" lon="5.51101">
        <ele>350.7</ele>
        <time>2015-01-11T08:47:11.000Z</time>
      </trkpt>
      <trkpt lat="43.44634" lon="5.51089">
        <ele>350.1</ele>
        <time>2015-01-11T08:47:13.000Z</time>
      </trkpt>
      <trkpt lat="43.44635" lon="5.51081">
        <ele>350.3</ele>
        <time>2015-01-11T08:47:14.000Z</time>
      </trkpt>
      <trkpt lat="43.44636" lon="5.51075">
        <ele>350.6</ele>
        <time>2015-01-11T08:47:15.000Z</time>
      </trkpt>
      <trkpt lat="43.44639" lon="5.51065">
        <ele>349.9</ele>
        <time>2015-01-11T08:47:17.000Z</time>
      </trkpt>
      <trkpt lat="43.44641" lon="5.51056">
        <ele>349.8</ele>
        <time>2015-01-11T08:47:19.000Z</time>
      </trkpt>
      <trkpt lat="43.44644" lon="5.51043">
        <ele>349</ele>
        <time>2015-01-11T08:47:21.000Z</time>
      </trkpt>
      <trkpt lat="43.44645" lon="5.51036">
        <ele>349.1</ele>
        <time>2015-01-11T08:47:22.000Z</time>
      </trkpt>
      <trkpt lat="43.44646" lon="5.5103">
        <ele>348.4</ele>
        <time>2015-01-11T08:47:23.000Z</time>
      </trkpt>
      <trkpt lat="43.44648" lon="5.51024">
        <ele>348.1</ele>
        <time>2015-01-11T08:47:24.000Z</time>
      </trkpt>
      <trkpt lat="43.44651" lon="5.51018">
        <ele>347.6</ele>
        <time>2015-01-11T08:47:25.000Z</time>
      </trkpt>
      <trkpt lat="43.44653" lon="5.51012">
        <ele>347.2</ele>
        <time>2015-01-11T08:47:26.000Z</time>
      </trkpt>
      <trkpt lat="43.44656" lon="5.51002">
        <ele>346</ele>
        <time>2015-01-11T08:47:28.000Z</time>
      </trkpt>
      <trkpt lat="43.44661" lon="5.50991">
        <ele>346.2</ele>
        <time>2015-01-11T08:47:30.000Z</time>
      </trkpt>
      <trkpt lat="43.44664" lon="5.50986">
        <ele>345.9</ele>
        <time>2015-01-11T08:47:31.000Z</time>
      </trkpt>
      <trkpt lat="43.44667" lon="5.50982">
        <ele>344.9</ele>
        <time>2015-01-11T08:47:32.000Z</time>
      </trkpt>
      <trkpt lat="43.44673" lon="5.50973">
        <ele>343.1</ele>
        <time>2015-01-11T08:47:34.000Z</time>
      </trkpt>
      <trkpt lat="43.44677" lon="5.50967">
        <ele>343</ele>
        <time>2015-01-11T08:47:36.000Z</time>
      </trkpt>
      <trkpt lat="43.44682" lon="5.50964">
        <ele>342.8</ele>
        <time>2015-01-11T08:47:38.000Z</time>
      </trkpt>
      <trkpt lat="43.44687" lon="5.50958">
        <ele>342.6</ele>
        <time>2015-01-11T08:47:41.000Z</time>
      </trkpt>
      <trkpt lat="43.44691" lon="5.50954">
        <ele>341.9</ele>
        <time>2015-01-11T08:47:50.000Z</time>
      </trkpt>
      <trkpt lat="43.44695" lon="5.50953">
        <ele>341.6</ele>
        <time>2015-01-11T08:47:53.000Z</time>
      </trkpt>
      <trkpt lat="43.44701" lon="5.50945">
        <ele>341.3</ele>
        <time>2015-01-11T08:47:55.000Z</time>
      </trkpt>
      <trkpt lat="43.44705" lon="5.50938">
        <ele>341</ele>
        <time>2015-01-11T08:47:57.000Z</time>
      </trkpt>
      <trkpt lat="43.44709" lon="5.50929">
        <ele>339.7</ele>
        <time>2015-01-11T08:47:59.000Z</time>
      </trkpt>
      <trkpt lat="43.44712" lon="5.5092">
        <ele>339.3</ele>
        <time>2015-01-11T08:48:01.000Z</time>
      </trkpt>
      <trkpt lat="43.44717" lon="5.50909">
        <ele>339.2</ele>
        <time>2015-01-11T08:48:03.000Z</time>
      </trkpt>
      <trkpt lat="43.4472" lon="5.50899">
        <ele>339.2</ele>
        <time>2015-01-11T08:48:05.000Z</time>
      </trkpt>
      <trkpt lat="43.44725" lon="5.5089">
        <ele>339.1</ele>
        <time>2015-01-11T08:48:07.000Z</time>
      </trkpt>
      <trkpt lat="43.44729" lon="5.5088">
        <ele>339</ele>
        <time>2015-01-11T08:48:09.000Z</time>
      </trkpt>
      <trkpt lat="43.44733" lon="5.50872">
        <ele>339</ele>
        <time>2015-01-11T08:48:11.000Z</time>
      </trkpt>
      <trkpt lat="43.44738" lon="5.50864">
        <ele>339.1</ele>
        <time>2015-01-11T08:48:13.000Z</time>
      </trkpt>
      <trkpt lat="43.44742" lon="5.50857">
        <ele>339.3</ele>
        <time>2015-01-11T08:48:15.000Z</time>
      </trkpt>
      <trkpt lat="43.44743" lon="5.50846">
        <ele>339.3</ele>
        <time>2015-01-11T08:48:17.000Z</time>
      </trkpt>
      <trkpt lat="43.44741" lon="5.50838">
        <ele>339.3</ele>
        <time>2015-01-11T08:48:19.000Z</time>
      </trkpt>
      <trkpt lat="43.44738" lon="5.5083">
        <ele>339.3</ele>
        <time>2015-01-11T08:48:21.000Z</time>
      </trkpt>
      <trkpt lat="43.4474" lon="5.50823">
        <ele>339.3</ele>
        <time>2015-01-11T08:48:23.000Z</time>
      </trkpt>
      <trkpt lat="43.44742" lon="5.50816">
        <ele>339.4</ele>
        <time>2015-01-11T08:48:25.000Z</time>
      </trkpt>
      <trkpt lat="43.44744" lon="5.5081">
        <ele>339.5</ele>
        <time>2015-01-11T08:48:28.000Z</time>
      </trkpt>
      <trkpt lat="43.44748" lon="5.50806">
        <ele>340</ele>
        <time>2015-01-11T08:48:36.000Z</time>
      </trkpt>
      <trkpt lat="43.44749" lon="5.50799">
        <ele>340.4</ele>
        <time>2015-01-11T08:48:40.000Z</time>
      </trkpt>
      <trkpt lat="43.4475" lon="5.50792">
        <ele>340.6</ele>
        <time>2015-01-11T08:48:43.000Z</time>
      </trkpt>
      <trkpt lat="43.44748" lon="5.50784">
        <ele>340.7</ele>
        <time>2015-01-11T08:48:46.000Z</time>
      </trkpt>
      <trkpt lat="43.44748" lon="5.50775">
        <ele>340.7</ele>
        <time>2015-01-11T08:48:48.000Z</time>
      </trkpt>
      <trkpt lat="43.44748" lon="5.50766">
        <ele>340.6</ele>
        <time>2015-01-11T08:48:50.000Z</time>
      </trkpt>
      <trkpt lat="43.44748" lon="5.50757">
        <ele>340.6</ele>
        <time>2015-01-11T08:48:52.000Z</time>
      </trkpt>
      <trkpt lat="43.44748" lon="5.50747">
        <ele>340.9</ele>
        <time>2015-01-11T08:48:54.000Z</time>
      </trkpt>
      <trkpt lat="43.44748" lon="5.50736">
        <ele>340.1</ele>
        <time>2015-01-11T08:48:56.000Z</time>
      </trkpt>
      <trkpt lat="43.44748" lon="5.50728">
        <ele>340.1</ele>
        <time>2015-01-11T08:48:58.000Z</time>
      </trkpt>
      <trkpt lat="43.44749" lon="5.50717">
        <ele>340</ele>
        <time>2015-01-11T08:49:00.000Z</time>
      </trkpt>
      <trkpt lat="43.4475" lon="5.50706">
        <ele>337.9</ele>
        <time>2015-01-11T08:49:02.000Z</time>
      </trkpt>
      <trkpt lat="43.44751" lon="5.50696">
        <ele>337.8</ele>
        <time>2015-01-11T08:49:04.000Z</time>
      </trkpt>
      <trkpt lat="43.44753" lon="5.50686">
        <ele>337.3</ele>
        <time>2015-01-11T08:49:06.000Z</time>
      </trkpt>
      <trkpt lat="43.44754" lon="5.50675">
        <ele>337.3</ele>
        <time>2015-01-11T08:49:08.000Z</time>
      </trkpt>
      <trkpt lat="43.44756" lon="5.50665">
        <ele>337.2</ele>
        <time>2015-01-11T08:49:10.000Z</time>
      </trkpt>
      <trkpt lat="43.44756" lon="5.50656">
        <ele>337.1</ele>
        <time>2015-01-11T08:49:12.000Z</time>
      </trkpt>
      <trkpt lat="43.44757" lon="5.50649">
        <ele>337</ele>
        <time>2015-01-11T08:49:14.000Z</time>
      </trkpt>
      <trkpt lat="43.44751" lon="5.50646">
        <ele>336.9</ele>
        <time>2015-01-11T08:49:34.000Z</time>
      </trkpt>
      <trkpt lat="43.44749" lon="5.50638">
        <ele>336.8</ele>
        <time>2015-01-11T08:49:36.000Z</time>
      </trkpt>
      <trkpt lat="43.4475" lon="5.50631">
        <ele>336.6</ele>
        <time>2015-01-11T08:49:39.000Z</time>
      </trkpt>
      <trkpt lat="43.44752" lon="5.50625">
        <ele>336.4</ele>
        <time>2015-01-11T08:49:41.000Z</time>
      </trkpt>
      <trkpt lat="43.44752" lon="5.50618">
        <ele>336.4</ele>
        <time>2015-01-11T08:49:43.000Z</time>
      </trkpt>
      <trkpt lat="43.44754" lon="5.50609">
        <ele>336.3</ele>
        <time>2015-01-11T08:49:45.000Z</time>
      </trkpt>
      <trkpt lat="43.44756" lon="5.50598">
        <ele>336.3</ele>
        <time>2015-01-11T08:49:47.000Z</time>
      </trkpt>
      <trkpt lat="43.44757" lon="5.50587">
        <ele>336.4</ele>
        <time>2015-01-11T08:49:49.000Z</time>
      </trkpt>
      <trkpt lat="43.44759" lon="5.50576">
        <ele>336.3</ele>
        <time>2015-01-11T08:49:51.000Z</time>
      </trkpt>
      <trkpt lat="43.44761" lon="5.50563">
        <ele>334.6</ele>
        <time>2015-01-11T08:49:53.000Z</time>
      </trkpt>
      <trkpt lat="43.44763" lon="5.50557">
        <ele>333.9</ele>
        <time>2015-01-11T08:49:54.000Z</time>
      </trkpt>
      <trkpt lat="43.44765" lon="5.50546">
        <ele>333.5</ele>
        <time>2015-01-11T08:49:56.000Z</time>
      </trkpt>
      <trkpt lat="43.44765" lon="5.50539">
        <ele>333.4</ele>
        <time>2015-01-11T08:49:57.000Z</time>
      </trkpt>
      <trkpt lat="43.44762" lon="5.50527">
        <ele>332.8</ele>
        <time>2015-01-11T08:49:59.000Z</time>
      </trkpt>
      <trkpt lat="43.4476" lon="5.5052">
        <ele>332</ele>
        <time>2015-01-11T08:50:00.000Z</time>
      </trkpt>
      <trkpt lat="43.44757" lon="5.50514">
        <ele>332.3</ele>
        <time>2015-01-11T08:50:01.000Z</time>
      </trkpt>
      <trkpt lat="43.44752" lon="5.50503">
        <ele>332.7</ele>
        <time>2015-01-11T08:50:03.000Z</time>
      </trkpt>
      <trkpt lat="43.44748" lon="5.50492">
        <ele>331.4</ele>
        <time>2015-01-11T08:50:05.000Z</time>
      </trkpt>
      <trkpt lat="43.44748" lon="5.50482">
        <ele>330.8</ele>
        <time>2015-01-11T08:50:07.000Z</time>
      </trkpt>
      <trkpt lat="43.44749" lon="5.50474">
        <ele>330.2</ele>
        <time>2015-01-11T08:50:09.000Z</time>
      </trkpt>
      <trkpt lat="43.44751" lon="5.50464">
        <ele>329.7</ele>
        <time>2015-01-11T08:50:11.000Z</time>
      </trkpt>
      <trkpt lat="43.44752" lon="5.50458">
        <ele>329.4</ele>
        <time>2015-01-11T08:50:12.000Z</time>
      </trkpt>
      <trkpt lat="43.44754" lon="5.50446">
        <ele>328.8</ele>
        <time>2015-01-11T08:50:14.000Z</time>
      </trkpt>
      <trkpt lat="43.44759" lon="5.50434">
        <ele>328.6</ele>
        <time>2015-01-11T08:50:16.000Z</time>
      </trkpt>
      <trkpt lat="43.44761" lon="5.50428">
        <ele>328.3</ele>
        <time>2015-01-11T08:50:17.000Z</time>
      </trkpt>
      <trkpt lat="43.44763" lon="5.50421">
        <ele>328.2</ele>
        <time>2015-01-11T08:50:18.000Z</time>
      </trkpt>
      <trkpt lat="43.44766" lon="5.50413">
        <ele>327.9</ele>
        <time>2015-01-11T08:50:19.000Z</time>
      </trkpt>
      <trkpt lat="43.44768" lon="5.50406">
        <ele>327.3</ele>
        <time>2015-01-11T08:50:20.000Z</time>
      </trkpt>
      <trkpt lat="43.4477" lon="5.50399">
        <ele>327.5</ele>
        <time>2015-01-11T08:50:21.000Z</time>
      </trkpt>
      <trkpt lat="43.44772" lon="5.50392">
        <ele>327.4</ele>
        <time>2015-01-11T08:50:22.000Z</time>
      </trkpt>
      <trkpt lat="43.44774" lon="5.50386">
        <ele>326.8</ele>
        <time>2015-01-11T08:50:23.000Z</time>
      </trkpt>
      <trkpt lat="43.44778" lon="5.50378">
        <ele>326.3</ele>
        <time>2015-01-11T08:50:25.000Z</time>
      </trkpt>
      <trkpt lat="43.44782" lon="5.50368">
        <ele>327.1</ele>
        <time>2015-01-11T08:50:27.000Z</time>
      </trkpt>
      <trkpt lat="43.44788" lon="5.5036">
        <ele>327.6</ele>
        <time>2015-01-11T08:50:29.000Z</time>
      </trkpt>
      <trkpt lat="43.44794" lon="5.50353">
        <ele>328.6</ele>
        <time>2015-01-11T08:50:31.000Z</time>
      </trkpt>
      <trkpt lat="43.448" lon="5.50346">
        <ele>329</ele>
        <time>2015-01-11T08:50:33.000Z</time>
      </trkpt>
      <trkpt lat="43.44805" lon="5.50337">
        <ele>329.5</ele>
        <time>2015-01-11T08:50:35.000Z</time>
      </trkpt>
      <trkpt lat="43.44806" lon="5.50325">
        <ele>329.5</ele>
        <time>2015-01-11T08:50:37.000Z</time>
      </trkpt>
      <trkpt lat="43.44805" lon="5.50318">
        <ele>329.2</ele>
        <time>2015-01-11T08:50:38.000Z</time>
      </trkpt>
      <trkpt lat="43.44805" lon="5.5031">
        <ele>328.6</ele>
        <time>2015-01-11T08:50:39.000Z</time>
      </trkpt>
      <trkpt lat="43.44804" lon="5.50302">
        <ele>328</ele>
        <time>2015-01-11T08:50:40.000Z</time>
      </trkpt>
      <trkpt lat="43.44804" lon="5.50294">
        <ele>327.4</ele>
        <time>2015-01-11T08:50:41.000Z</time>
      </trkpt>
      <trkpt lat="43.44804" lon="5.50285">
        <ele>327.3</ele>
        <time>2015-01-11T08:50:42.000Z</time>
      </trkpt>
      <trkpt lat="43.44804" lon="5.50275">
        <ele>327.5</ele>
        <time>2015-01-11T08:50:43.000Z</time>
      </trkpt>
      <trkpt lat="43.44801" lon="5.50266">
        <ele>327.6</ele>
        <time>2015-01-11T08:50:44.000Z</time>
      </trkpt>
      <trkpt lat="43.44797" lon="5.50261">
        <ele>327.2</ele>
        <time>2015-01-11T08:50:45.000Z</time>
      </trkpt>
      <trkpt lat="43.44794" lon="5.50254">
        <ele>327.1</ele>
        <time>2015-01-11T08:50:47.000Z</time>
      </trkpt>
      <trkpt lat="43.44791" lon="5.50244">
        <ele>327.1</ele>
        <time>2015-01-11T08:50:50.000Z</time>
      </trkpt>
      <trkpt lat="43.44788" lon="5.50239">
        <ele>327.1</ele>
        <time>2015-01-11T08:50:52.000Z</time>
      </trkpt>
      <trkpt lat="43.44783" lon="5.50241">
        <ele>327.6</ele>
        <time>2015-01-11T08:51:05.000Z</time>
      </trkpt>
      <trkpt lat="43.44779" lon="5.50245">
        <ele>326.3</ele>
        <time>2015-01-11T08:52:13.000Z</time>
      </trkpt>
      <trkpt lat="43.44775" lon="5.50242">
        <ele>325.8</ele>
        <time>2015-01-11T08:52:18.000Z</time>
      </trkpt>
      <trkpt lat="43.44772" lon="5.50237">
        <ele>325.7</ele>
        <time>2015-01-11T08:52:21.000Z</time>
      </trkpt>
      <trkpt lat="43.44767" lon="5.50232">
        <ele>325.7</ele>
        <time>2015-01-11T08:52:23.000Z</time>
      </trkpt>
      <trkpt lat="43.44762" lon="5.50228">
        <ele>325.7</ele>
        <time>2015-01-11T08:52:25.000Z</time>
      </trkpt>
      <trkpt lat="43.44758" lon="5.50223">
        <ele>325.6</ele>
        <time>2015-01-11T08:52:27.000Z</time>
      </trkpt>
      <trkpt lat="43.44756" lon="5.50217">
        <ele>325.6</ele>
        <time>2015-01-11T08:52:29.000Z</time>
      </trkpt>
      <trkpt lat="43.44755" lon="5.50211">
        <ele>325.6</ele>
        <time>2015-01-11T08:52:31.000Z</time>
      </trkpt>
      <trkpt lat="43.44752" lon="5.50204">
        <ele>325.7</ele>
        <time>2015-01-11T08:52:33.000Z</time>
      </trkpt>
      <trkpt lat="43.4475" lon="5.50198">
        <ele>325.7</ele>
        <time>2015-01-11T08:52:35.000Z</time>
      </trkpt>
      <trkpt lat="43.44747" lon="5.50193">
        <ele>325.8</ele>
        <time>2015-01-11T08:52:37.000Z</time>
      </trkpt>
      <trkpt lat="43.44742" lon="5.50189">
        <ele>325.8</ele>
        <time>2015-01-11T08:52:40.000Z</time>
      </trkpt>
      <trkpt lat="43.44735" lon="5.50186">
        <ele>325.9</ele>
        <time>2015-01-11T08:52:43.000Z</time>
      </trkpt>
      <trkpt lat="43.44729" lon="5.50183">
        <ele>326</ele>
        <time>2015-01-11T08:52:46.000Z</time>
      </trkpt>
      <trkpt lat="43.44722" lon="5.50184">
        <ele>326.3</ele>
        <time>2015-01-11T08:52:49.000Z</time>
      </trkpt>
      <trkpt lat="43.44717" lon="5.50184">
        <ele>326.5</ele>
        <time>2015-01-11T08:52:51.000Z</time>
      </trkpt>
      <trkpt lat="43.44712" lon="5.50186">
        <ele>327.1</ele>
        <time>2015-01-11T08:52:54.000Z</time>
      </trkpt>
      <trkpt lat="43.44706" lon="5.50187">
        <ele>327.5</ele>
        <time>2015-01-11T08:52:57.000Z</time>
      </trkpt>
      <trkpt lat="43.447" lon="5.50188">
        <ele>328</ele>
        <time>2015-01-11T08:53:00.000Z</time>
      </trkpt>
      <trkpt lat="43.44695" lon="5.50189">
        <ele>328.6</ele>
        <time>2015-01-11T08:53:04.000Z</time>
      </trkpt>
      <trkpt lat="43.44689" lon="5.50188">
        <ele>329</ele>
        <time>2015-01-11T08:53:08.000Z</time>
      </trkpt>
      <trkpt lat="43.44684" lon="5.50188">
        <ele>329.3</ele>
        <time>2015-01-11T08:53:10.000Z</time>
      </trkpt>
      <trkpt lat="43.44678" lon="5.5019">
        <ele>329.5</ele>
        <time>2015-01-11T08:53:13.000Z</time>
      </trkpt>
      <trkpt lat="43.44674" lon="5.50192">
        <ele>330</ele>
        <time>2015-01-11T08:53:25.000Z</time>
      </trkpt>
      <trkpt lat="43.44669" lon="5.50196">
        <ele>330.1</ele>
        <time>2015-01-11T08:53:29.000Z</time>
      </trkpt>
      <trkpt lat="43.44664" lon="5.502">
        <ele>330.4</ele>
        <time>2015-01-11T08:53:33.000Z</time>
      </trkpt>
      <trkpt lat="43.44659" lon="5.50202">
        <ele>330.3</ele>
        <time>2015-01-11T08:53:36.000Z</time>
      </trkpt>
      <trkpt lat="43.44653" lon="5.50205">
        <ele>330.3</ele>
        <time>2015-01-11T08:53:40.000Z</time>
      </trkpt>
      <trkpt lat="43.44649" lon="5.50209">
        <ele>330.3</ele>
        <time>2015-01-11T08:53:43.000Z</time>
      </trkpt>
      <trkpt lat="43.44645" lon="5.50216">
        <ele>330.3</ele>
        <time>2015-01-11T08:53:45.000Z</time>
      </trkpt>
      <trkpt lat="43.44641" lon="5.50222">
        <ele>330.2</ele>
        <time>2015-01-11T08:53:47.000Z</time>
      </trkpt>
      <trkpt lat="43.44637" lon="5.50227">
        <ele>330.3</ele>
        <time>2015-01-11T08:53:50.000Z</time>
      </trkpt>
      <trkpt lat="43.44633" lon="5.50233">
        <ele>330.3</ele>
        <time>2015-01-11T08:53:53.000Z</time>
      </trkpt>
      <trkpt lat="43.44629" lon="5.50237">
        <ele>330.3</ele>
        <time>2015-01-11T08:53:56.000Z</time>
      </trkpt>
      <trkpt lat="43.44623" lon="5.50242">
        <ele>330.3</ele>
        <time>2015-01-11T08:53:59.000Z</time>
      </trkpt>
      <trkpt lat="43.44619" lon="5.50246">
        <ele>330.4</ele>
        <time>2015-01-11T08:54:01.000Z</time>
      </trkpt>
      <trkpt lat="43.44615" lon="5.50249">
        <ele>330.5</ele>
        <time>2015-01-11T08:54:03.000Z</time>
      </trkpt>
      <trkpt lat="43.4461" lon="5.50255">
        <ele>330.7</ele>
        <time>2015-01-11T08:54:06.000Z</time>
      </trkpt>
      <trkpt lat="43.44606" lon="5.5026">
        <ele>330.8</ele>
        <time>2015-01-11T08:54:08.000Z</time>
      </trkpt>
      <trkpt lat="43.44601" lon="5.50265">
        <ele>330.9</ele>
        <time>2015-01-11T08:54:11.000Z</time>
      </trkpt>
      <trkpt lat="43.44597" lon="5.50268">
        <ele>331</ele>
        <time>2015-01-11T08:54:13.000Z</time>
      </trkpt>
      <trkpt lat="43.44593" lon="5.50271">
        <ele>331</ele>
        <time>2015-01-11T08:54:15.000Z</time>
      </trkpt>
      <trkpt lat="43.44588" lon="5.50273">
        <ele>331.1</ele>
        <time>2015-01-11T08:54:17.000Z</time>
      </trkpt>
      <trkpt lat="43.44584" lon="5.50275">
        <ele>331</ele>
        <time>2015-01-11T08:54:19.000Z</time>
      </trkpt>
      <trkpt lat="43.44578" lon="5.50278">
        <ele>331.1</ele>
        <time>2015-01-11T08:54:22.000Z</time>
      </trkpt>
      <trkpt lat="43.44573" lon="5.50283">
        <ele>331.2</ele>
        <time>2015-01-11T08:54:25.000Z</time>
      </trkpt>
      <trkpt lat="43.44568" lon="5.50286">
        <ele>331.3</ele>
        <time>2015-01-11T08:54:28.000Z</time>
      </trkpt>
      <trkpt lat="43.44562" lon="5.5029">
        <ele>331.3</ele>
        <time>2015-01-11T08:54:31.000Z</time>
      </trkpt>
      <trkpt lat="43.44558" lon="5.50295">
        <ele>331.4</ele>
        <time>2015-01-11T08:54:34.000Z</time>
      </trkpt>
      <trkpt lat="43.44554" lon="5.50299">
        <ele>331.3</ele>
        <time>2015-01-11T08:54:36.000Z</time>
      </trkpt>
      <trkpt lat="43.4455" lon="5.50304">
        <ele>331.3</ele>
        <time>2015-01-11T08:54:38.000Z</time>
      </trkpt>
      <trkpt lat="43.44546" lon="5.50308">
        <ele>331.3</ele>
        <time>2015-01-11T08:54:40.000Z</time>
      </trkpt>
      <trkpt lat="43.44541" lon="5.50311">
        <ele>331.2</ele>
        <time>2015-01-11T08:54:42.000Z</time>
      </trkpt>
      <trkpt lat="43.44536" lon="5.50313">
        <ele>331.1</ele>
        <time>2015-01-11T08:54:44.000Z</time>
      </trkpt>
      <trkpt lat="43.44529" lon="5.50316">
        <ele>331</ele>
        <time>2015-01-11T08:54:46.000Z</time>
      </trkpt>
      <trkpt lat="43.44524" lon="5.50318">
        <ele>330.9</ele>
        <time>2015-01-11T08:54:48.000Z</time>
      </trkpt>
      <trkpt lat="43.4452" lon="5.5032">
        <ele>331</ele>
        <time>2015-01-11T08:54:50.000Z</time>
      </trkpt>
      <trkpt lat="43.44514" lon="5.50323">
        <ele>331.2</ele>
        <time>2015-01-11T08:54:53.000Z</time>
      </trkpt>
      <trkpt lat="43.44509" lon="5.50325">
        <ele>331.4</ele>
        <time>2015-01-11T08:54:56.000Z</time>
      </trkpt>
      <trkpt lat="43.44503" lon="5.50327">
        <ele>331.6</ele>
        <time>2015-01-11T08:54:59.000Z</time>
      </trkpt>
      <trkpt lat="43.44498" lon="5.50329">
        <ele>331.8</ele>
        <time>2015-01-11T08:55:01.000Z</time>
      </trkpt>
      <trkpt lat="43.44494" lon="5.5033">
        <ele>332</ele>
        <time>2015-01-11T08:55:03.000Z</time>
      </trkpt>
      <trkpt lat="43.44487" lon="5.50334">
        <ele>332.2</ele>
        <time>2015-01-11T08:55:06.000Z</time>
      </trkpt>
      <trkpt lat="43.44482" lon="5.50337">
        <ele>332.5</ele>
        <time>2015-01-11T08:55:09.000Z</time>
      </trkpt>
      <trkpt lat="43.44477" lon="5.50339">
        <ele>332.9</ele>
        <time>2015-01-11T08:55:12.000Z</time>
      </trkpt>
      <trkpt lat="43.44471" lon="5.50342">
        <ele>333.3</ele>
        <time>2015-01-11T08:55:15.000Z</time>
      </trkpt>
      <trkpt lat="43.44464" lon="5.50344">
        <ele>333.5</ele>
        <time>2015-01-11T08:55:18.000Z</time>
      </trkpt>
      <trkpt lat="43.44458" lon="5.50344">
        <ele>333.9</ele>
        <time>2015-01-11T08:55:21.000Z</time>
      </trkpt>
      <trkpt lat="43.44454" lon="5.50343">
        <ele>334.2</ele>
        <time>2015-01-11T08:55:23.000Z</time>
      </trkpt>
      <trkpt lat="43.44447" lon="5.50341">
        <ele>334.4</ele>
        <time>2015-01-11T08:55:25.000Z</time>
      </trkpt>
      <trkpt lat="43.44442" lon="5.50339">
        <ele>334.6</ele>
        <time>2015-01-11T08:55:27.000Z</time>
      </trkpt>
      <trkpt lat="43.44438" lon="5.50338">
        <ele>334.9</ele>
        <time>2015-01-11T08:55:29.000Z</time>
      </trkpt>
      <trkpt lat="43.44432" lon="5.50338">
        <ele>335</ele>
        <time>2015-01-11T08:55:31.000Z</time>
      </trkpt>
      <trkpt lat="43.44428" lon="5.50336">
        <ele>335.1</ele>
        <time>2015-01-11T08:55:33.000Z</time>
      </trkpt>
      <trkpt lat="43.44423" lon="5.50333">
        <ele>335</ele>
        <time>2015-01-11T08:55:36.000Z</time>
      </trkpt>
      <trkpt lat="43.44418" lon="5.50332">
        <ele>334.9</ele>
        <time>2015-01-11T08:55:38.000Z</time>
      </trkpt>
      <trkpt lat="43.44412" lon="5.50333">
        <ele>334.8</ele>
        <time>2015-01-11T08:55:41.000Z</time>
      </trkpt>
      <trkpt lat="43.44407" lon="5.50334">
        <ele>334.7</ele>
        <time>2015-01-11T08:55:43.000Z</time>
      </trkpt>
      <trkpt lat="43.44402" lon="5.50337">
        <ele>334.7</ele>
        <time>2015-01-11T08:55:46.000Z</time>
      </trkpt>
      <trkpt lat="43.44399" lon="5.50341">
        <ele>334.7</ele>
        <time>2015-01-11T08:56:02.000Z</time>
      </trkpt>
      <trkpt lat="43.44394" lon="5.50347">
        <ele>334.8</ele>
        <time>2015-01-11T08:56:09.000Z</time>
      </trkpt>
      <trkpt lat="43.44388" lon="5.50351">
        <ele>334.7</ele>
        <time>2015-01-11T08:56:11.000Z</time>
      </trkpt>
      <trkpt lat="43.44383" lon="5.50355">
        <ele>334.6</ele>
        <time>2015-01-11T08:56:13.000Z</time>
      </trkpt>
      <trkpt lat="43.44379" lon="5.50359">
        <ele>334.6</ele>
        <time>2015-01-11T08:56:15.000Z</time>
      </trkpt>
      <trkpt lat="43.44374" lon="5.50366">
        <ele>334.8</ele>
        <time>2015-01-11T08:56:17.000Z</time>
      </trkpt>
      <trkpt lat="43.4437" lon="5.50372">
        <ele>335</ele>
        <time>2015-01-11T08:56:19.000Z</time>
      </trkpt>
      <trkpt lat="43.44367" lon="5.50379">
        <ele>335</ele>
        <time>2015-01-11T08:56:22.000Z</time>
      </trkpt>
      <trkpt lat="43.44363" lon="5.50385">
        <ele>335.1</ele>
        <time>2015-01-11T08:56:26.000Z</time>
      </trkpt>
      <trkpt lat="43.4436" lon="5.50392">
        <ele>335.1</ele>
        <time>2015-01-11T08:56:29.000Z</time>
      </trkpt>
      <trkpt lat="43.44358" lon="5.504">
        <ele>335.1</ele>
        <time>2015-01-11T08:56:32.000Z</time>
      </trkpt>
      <trkpt lat="43.44355" lon="5.50404">
        <ele>335.2</ele>
        <time>2015-01-11T08:56:34.000Z</time>
      </trkpt>
      <trkpt lat="43.44351" lon="5.5041">
        <ele>335.5</ele>
        <time>2015-01-11T08:56:37.000Z</time>
      </trkpt>
      <trkpt lat="43.44347" lon="5.50417">
        <ele>335.8</ele>
        <time>2015-01-11T08:56:40.000Z</time>
      </trkpt>
      <trkpt lat="43.44344" lon="5.50424">
        <ele>336.2</ele>
        <time>2015-01-11T08:56:43.000Z</time>
      </trkpt>
      <trkpt lat="43.4434" lon="5.50431">
        <ele>336.8</ele>
        <time>2015-01-11T08:56:46.000Z</time>
      </trkpt>
      <trkpt lat="43.44336" lon="5.50437">
        <ele>337.7</ele>
        <time>2015-01-11T08:56:50.000Z</time>
      </trkpt>
      <trkpt lat="43.44333" lon="5.50441">
        <ele>338</ele>
        <time>2015-01-11T08:56:52.000Z</time>
      </trkpt>
      <trkpt lat="43.44329" lon="5.50446">
        <ele>338.3</ele>
        <time>2015-01-11T08:56:54.000Z</time>
      </trkpt>
      <trkpt lat="43.44325" lon="5.50452">
        <ele>338.9</ele>
        <time>2015-01-11T08:56:57.000Z</time>
      </trkpt>
      <trkpt lat="43.4432" lon="5.5046">
        <ele>339.2</ele>
        <time>2015-01-11T08:57:00.000Z</time>
      </trkpt>
      <trkpt lat="43.44316" lon="5.50466">
        <ele>339.5</ele>
        <time>2015-01-11T08:57:03.000Z</time>
      </trkpt>
      <trkpt lat="43.44313" lon="5.50471">
        <ele>339.7</ele>
        <time>2015-01-11T08:57:05.000Z</time>
      </trkpt>
      <trkpt lat="43.44309" lon="5.50476">
        <ele>340.1</ele>
        <time>2015-01-11T08:57:07.000Z</time>
      </trkpt>
      <trkpt lat="43.44305" lon="5.50481">
        <ele>340.5</ele>
        <time>2015-01-11T08:57:09.000Z</time>
      </trkpt>
      <trkpt lat="43.443" lon="5.50486">
        <ele>340.8</ele>
        <time>2015-01-11T08:57:11.000Z</time>
      </trkpt>
      <trkpt lat="43.44297" lon="5.50491">
        <ele>341.1</ele>
        <time>2015-01-11T08:57:13.000Z</time>
      </trkpt>
      <trkpt lat="43.44292" lon="5.50496">
        <ele>341.5</ele>
        <time>2015-01-11T08:57:15.000Z</time>
      </trkpt>
      <trkpt lat="43.44288" lon="5.50501">
        <ele>341.8</ele>
        <time>2015-01-11T08:57:17.000Z</time>
      </trkpt>
      <trkpt lat="43.44284" lon="5.50505">
        <ele>342.1</ele>
        <time>2015-01-11T08:57:19.000Z</time>
      </trkpt>
      <trkpt lat="43.4428" lon="5.5051">
        <ele>342.4</ele>
        <time>2015-01-11T08:57:21.000Z</time>
      </trkpt>
      <trkpt lat="43.44275" lon="5.50515">
        <ele>342.6</ele>
        <time>2015-01-11T08:57:23.000Z</time>
      </trkpt>
      <trkpt lat="43.44272" lon="5.5052">
        <ele>342.9</ele>
        <time>2015-01-11T08:57:25.000Z</time>
      </trkpt>
      <trkpt lat="43.44268" lon="5.50525">
        <ele>343.1</ele>
        <time>2015-01-11T08:57:27.000Z</time>
      </trkpt>
      <trkpt lat="43.44265" lon="5.5053">
        <ele>343.4</ele>
        <time>2015-01-11T08:57:29.000Z</time>
      </trkpt>
      <trkpt lat="43.4426" lon="5.50537">
        <ele>343.9</ele>
        <time>2015-01-11T08:57:32.000Z</time>
      </trkpt>
      <trkpt lat="43.44257" lon="5.50541">
        <ele>344.2</ele>
        <time>2015-01-11T08:57:34.000Z</time>
      </trkpt>
      <trkpt lat="43.44252" lon="5.50546">
        <ele>344.7</ele>
        <time>2015-01-11T08:57:37.000Z</time>
      </trkpt>
      <trkpt lat="43.44248" lon="5.5055">
        <ele>345.1</ele>
        <time>2015-01-11T08:57:39.000Z</time>
      </trkpt>
      <trkpt lat="43.44244" lon="5.50555">
        <ele>345.4</ele>
        <time>2015-01-11T08:57:41.000Z</time>
      </trkpt>
      <trkpt lat="43.44241" lon="5.50561">
        <ele>345.8</ele>
        <time>2015-01-11T08:57:44.000Z</time>
      </trkpt>
      <trkpt lat="43.44238" lon="5.50566">
        <ele>346.1</ele>
        <time>2015-01-11T08:57:46.000Z</time>
      </trkpt>
      <trkpt lat="43.44235" lon="5.50572">
        <ele>346.3</ele>
        <time>2015-01-11T08:57:48.000Z</time>
      </trkpt>
      <trkpt lat="43.44231" lon="5.50579">
        <ele>346.6</ele>
        <time>2015-01-11T08:57:51.000Z</time>
      </trkpt>
      <trkpt lat="43.44228" lon="5.50585">
        <ele>346.8</ele>
        <time>2015-01-11T08:57:53.000Z</time>
      </trkpt>
      <trkpt lat="43.44225" lon="5.5059">
        <ele>347</ele>
        <time>2015-01-11T08:57:55.000Z</time>
      </trkpt>
      <trkpt lat="43.44222" lon="5.50595">
        <ele>347.2</ele>
        <time>2015-01-11T08:57:57.000Z</time>
      </trkpt>
      <trkpt lat="43.44218" lon="5.50601">
        <ele>347.6</ele>
        <time>2015-01-11T08:58:00.000Z</time>
      </trkpt>
      <trkpt lat="43.44214" lon="5.50606">
        <ele>348</ele>
        <time>2015-01-11T08:58:03.000Z</time>
      </trkpt>
      <trkpt lat="43.44209" lon="5.50609">
        <ele>348.3</ele>
        <time>2015-01-11T08:58:05.000Z</time>
      </trkpt>
      <trkpt lat="43.44204" lon="5.50611">
        <ele>348.5</ele>
        <time>2015-01-11T08:58:07.000Z</time>
      </trkpt>
      <trkpt lat="43.44198" lon="5.50613">
        <ele>348.7</ele>
        <time>2015-01-11T08:58:09.000Z</time>
      </trkpt>
      <trkpt lat="43.44192" lon="5.50616">
        <ele>349</ele>
        <time>2015-01-11T08:58:11.000Z</time>
      </trkpt>
      <trkpt lat="43.44187" lon="5.50618">
        <ele>349.2</ele>
        <time>2015-01-11T08:58:13.000Z</time>
      </trkpt>
      <trkpt lat="43.44181" lon="5.5062">
        <ele>349.4</ele>
        <time>2015-01-11T08:58:15.000Z</time>
      </trkpt>
      <trkpt lat="43.44175" lon="5.50623">
        <ele>349.5</ele>
        <time>2015-01-11T08:58:17.000Z</time>
      </trkpt>
      <trkpt lat="43.44166" lon="5.50625">
        <ele>348.9</ele>
        <time>2015-01-11T08:58:19.000Z</time>
      </trkpt>
      <trkpt lat="43.44161" lon="5.50625">
        <ele>348.8</ele>
        <time>2015-01-11T08:58:20.000Z</time>
      </trkpt>
      <trkpt lat="43.44154" lon="5.50627">
        <ele>348.9</ele>
        <time>2015-01-11T08:58:22.000Z</time>
      </trkpt>
      <trkpt lat="43.44149" lon="5.5063">
        <ele>348.9</ele>
        <time>2015-01-11T08:58:24.000Z</time>
      </trkpt>
      <trkpt lat="43.44143" lon="5.50636">
        <ele>348.9</ele>
        <time>2015-01-11T08:58:27.000Z</time>
      </trkpt>
      <trkpt lat="43.44138" lon="5.5064">
        <ele>348.9</ele>
        <time>2015-01-11T08:58:30.000Z</time>
      </trkpt>
      <trkpt lat="43.44134" lon="5.50643">
        <ele>349</ele>
        <time>2015-01-11T08:58:33.000Z</time>
      </trkpt>
      <trkpt lat="43.44129" lon="5.5064">
        <ele>349.3</ele>
        <time>2015-01-11T08:58:50.000Z</time>
      </trkpt>
      <trkpt lat="43.44128" lon="5.50633">
        <ele>349.4</ele>
        <time>2015-01-11T08:59:00.000Z</time>
      </trkpt>
      <trkpt lat="43.44124" lon="5.50628">
        <ele>349.2</ele>
        <time>2015-01-11T08:59:03.000Z</time>
      </trkpt>
      <trkpt lat="43.44118" lon="5.50626">
        <ele>349.2</ele>
        <time>2015-01-11T08:59:07.000Z</time>
      </trkpt>
      <trkpt lat="43.44112" lon="5.50626">
        <ele>349.3</ele>
        <time>2015-01-11T08:59:10.000Z</time>
      </trkpt>
      <trkpt lat="43.44108" lon="5.50623">
        <ele>349.3</ele>
        <time>2015-01-11T08:59:13.000Z</time>
      </trkpt>
      <trkpt lat="43.44103" lon="5.50621">
        <ele>349.6</ele>
        <time>2015-01-11T08:59:16.000Z</time>
      </trkpt>
      <trkpt lat="43.441" lon="5.50615">
        <ele>350.1</ele>
        <time>2015-01-11T08:59:20.000Z</time>
      </trkpt>
      <trkpt lat="43.44095" lon="5.50611">
        <ele>350.5</ele>
        <time>2015-01-11T08:59:22.000Z</time>
      </trkpt>
      <trkpt lat="43.44089" lon="5.50607">
        <ele>351.1</ele>
        <time>2015-01-11T08:59:24.000Z</time>
      </trkpt>
      <trkpt lat="43.44085" lon="5.50605">
        <ele>351.5</ele>
        <time>2015-01-11T08:59:26.000Z</time>
      </trkpt>
      <trkpt lat="43.44078" lon="5.50602">
        <ele>352.1</ele>
        <time>2015-01-11T08:59:29.000Z</time>
      </trkpt>
      <trkpt lat="43.44072" lon="5.506">
        <ele>352.7</ele>
        <time>2015-01-11T08:59:32.000Z</time>
      </trkpt>
      <trkpt lat="43.44066" lon="5.50597">
        <ele>353.1</ele>
        <time>2015-01-11T08:59:34.000Z</time>
      </trkpt>
      <trkpt lat="43.44061" lon="5.50596">
        <ele>353.4</ele>
        <time>2015-01-11T08:59:36.000Z</time>
      </trkpt>
      <trkpt lat="43.44055" lon="5.50595">
        <ele>353.7</ele>
        <time>2015-01-11T08:59:38.000Z</time>
      </trkpt>
      <trkpt lat="43.4405" lon="5.50593">
        <ele>353.9</ele>
        <time>2015-01-11T08:59:40.000Z</time>
      </trkpt>
      <trkpt lat="43.44044" lon="5.50593">
        <ele>354.3</ele>
        <time>2015-01-11T08:59:43.000Z</time>
      </trkpt>
      <trkpt lat="43.44038" lon="5.50595">
        <ele>354.7</ele>
        <time>2015-01-11T08:59:46.000Z</time>
      </trkpt>
      <trkpt lat="43.44032" lon="5.50595">
        <ele>354.8</ele>
        <time>2015-01-11T08:59:49.000Z</time>
      </trkpt>
      <trkpt lat="43.44027" lon="5.50591">
        <ele>354.9</ele>
        <time>2015-01-11T08:59:52.000Z</time>
      </trkpt>
      <trkpt lat="43.44022" lon="5.50589">
        <ele>355</ele>
        <time>2015-01-11T08:59:54.000Z</time>
      </trkpt>
      <trkpt lat="43.44017" lon="5.50584">
        <ele>355.1</ele>
        <time>2015-01-11T08:59:57.000Z</time>
      </trkpt>
      <trkpt lat="43.44011" lon="5.50579">
        <ele>355.2</ele>
        <time>2015-01-11T09:00:00.000Z</time>
      </trkpt>
      <trkpt lat="43.44006" lon="5.50576">
        <ele>355.3</ele>
        <time>2015-01-11T09:00:03.000Z</time>
      </trkpt>
      <trkpt lat="43.44" lon="5.50575">
        <ele>355.4</ele>
        <time>2015-01-11T09:00:06.000Z</time>
      </trkpt>
      <trkpt lat="43.43995" lon="5.50574">
        <ele>355.6</ele>
        <time>2015-01-11T09:00:09.000Z</time>
      </trkpt>
      <trkpt lat="43.4399" lon="5.50571">
        <ele>355.9</ele>
        <time>2015-01-11T09:00:12.000Z</time>
      </trkpt>
      <trkpt lat="43.43984" lon="5.50571">
        <ele>356.2</ele>
        <time>2015-01-11T09:00:15.000Z</time>
      </trkpt>
      <trkpt lat="43.43977" lon="5.50572">
        <ele>356.6</ele>
        <time>2015-01-11T09:00:18.000Z</time>
      </trkpt>
      <trkpt lat="43.43972" lon="5.50572">
        <ele>357</ele>
        <time>2015-01-11T09:00:20.000Z</time>
      </trkpt>
      <trkpt lat="43.43966" lon="5.50572">
        <ele>357.3</ele>
        <time>2015-01-11T09:00:23.000Z</time>
      </trkpt>
      <trkpt lat="43.4396" lon="5.5057">
        <ele>357.9</ele>
        <time>2015-01-11T09:00:28.000Z</time>
      </trkpt>
      <trkpt lat="43.43956" lon="5.50567">
        <ele>358.2</ele>
        <time>2015-01-11T09:00:31.000Z</time>
      </trkpt>
      <trkpt lat="43.43951" lon="5.50566">
        <ele>358.4</ele>
        <time>2015-01-11T09:00:34.000Z</time>
      </trkpt>
      <trkpt lat="43.43947" lon="5.50563">
        <ele>358.6</ele>
        <time>2015-01-11T09:00:36.000Z</time>
      </trkpt>
      <trkpt lat="43.43942" lon="5.50561">
        <ele>358.8</ele>
        <time>2015-01-11T09:00:39.000Z</time>
      </trkpt>
      <trkpt lat="43.43936" lon="5.50558">
        <ele>359.2</ele>
        <time>2015-01-11T09:00:42.000Z</time>
      </trkpt>
      <trkpt lat="43.43931" lon="5.50553">
        <ele>359.7</ele>
        <time>2015-01-11T09:00:45.000Z</time>
      </trkpt>
      <trkpt lat="43.43926" lon="5.50549">
        <ele>360.1</ele>
        <time>2015-01-11T09:00:48.000Z</time>
      </trkpt>
      <trkpt lat="43.4392" lon="5.50547">
        <ele>360.6</ele>
        <time>2015-01-11T09:00:52.000Z</time>
      </trkpt>
      <trkpt lat="43.43915" lon="5.50545">
        <ele>360.9</ele>
        <time>2015-01-11T09:00:55.000Z</time>
      </trkpt>
      <trkpt lat="43.43909" lon="5.50543">
        <ele>361.4</ele>
        <time>2015-01-11T09:00:59.000Z</time>
      </trkpt>
      <trkpt lat="43.43903" lon="5.50543">
        <ele>361.5</ele>
        <time>2015-01-11T09:01:02.000Z</time>
      </trkpt>
      <trkpt lat="43.43897" lon="5.5054">
        <ele>361.7</ele>
        <time>2015-01-11T09:01:06.000Z</time>
      </trkpt>
      <trkpt lat="43.4389" lon="5.50538">
        <ele>362</ele>
        <time>2015-01-11T09:01:09.000Z</time>
      </trkpt>
      <trkpt lat="43.43884" lon="5.50538">
        <ele>362.3</ele>
        <time>2015-01-11T09:01:12.000Z</time>
      </trkpt>
      <trkpt lat="43.43876" lon="5.50538">
        <ele>362.4</ele>
        <time>2015-01-11T09:01:15.000Z</time>
      </trkpt>
      <trkpt lat="43.43872" lon="5.50538">
        <ele>362.4</ele>
        <time>2015-01-11T09:01:17.000Z</time>
      </trkpt>
      <trkpt lat="43.43866" lon="5.50536">
        <ele>362.6</ele>
        <time>2015-01-11T09:01:20.000Z</time>
      </trkpt>
      <trkpt lat="43.4386" lon="5.50536">
        <ele>362.9</ele>
        <time>2015-01-11T09:01:23.000Z</time>
      </trkpt>
      <trkpt lat="43.43854" lon="5.50538">
        <ele>363.1</ele>
        <time>2015-01-11T09:01:26.000Z</time>
      </trkpt>
      <trkpt lat="43.4385" lon="5.50541">
        <ele>363.1</ele>
        <time>2015-01-11T09:01:28.000Z</time>
      </trkpt>
      <trkpt lat="43.43846" lon="5.50544">
        <ele>362.9</ele>
        <time>2015-01-11T09:01:30.000Z</time>
      </trkpt>
      <trkpt lat="43.43841" lon="5.50549">
        <ele>362.8</ele>
        <time>2015-01-11T09:01:32.000Z</time>
      </trkpt>
      <trkpt lat="43.43837" lon="5.50552">
        <ele>362.8</ele>
        <time>2015-01-11T09:01:34.000Z</time>
      </trkpt>
      <trkpt lat="43.43832" lon="5.50557">
        <ele>362.9</ele>
        <time>2015-01-11T09:01:36.000Z</time>
      </trkpt>
      <trkpt lat="43.43827" lon="5.50562">
        <ele>363.3</ele>
        <time>2015-01-11T09:01:38.000Z</time>
      </trkpt>
      <trkpt lat="43.43822" lon="5.50565">
        <ele>363.6</ele>
        <time>2015-01-11T09:01:40.000Z</time>
      </trkpt>
      <trkpt lat="43.43818" lon="5.5057">
        <ele>363.9</ele>
        <time>2015-01-11T09:01:42.000Z</time>
      </trkpt>
      <trkpt lat="43.43814" lon="5.50573">
        <ele>364.2</ele>
        <time>2015-01-11T09:01:44.000Z</time>
      </trkpt>
      <trkpt lat="43.43811" lon="5.50576">
        <ele>364.4</ele>
        <time>2015-01-11T09:01:46.000Z</time>
      </trkpt>
      <trkpt lat="43.43805" lon="5.50581">
        <ele>365</ele>
        <time>2015-01-11T09:01:49.000Z</time>
      </trkpt>
      <trkpt lat="43.43802" lon="5.50585">
        <ele>365.4</ele>
        <time>2015-01-11T09:01:51.000Z</time>
      </trkpt>
      <trkpt lat="43.43798" lon="5.50589">
        <ele>366.2</ele>
        <time>2015-01-11T09:01:54.000Z</time>
      </trkpt>
      <trkpt lat="43.43794" lon="5.50594">
        <ele>367</ele>
        <time>2015-01-11T09:01:57.000Z</time>
      </trkpt>
      <trkpt lat="43.43789" lon="5.50596">
        <ele>367.6</ele>
        <time>2015-01-11T09:02:00.000Z</time>
      </trkpt>
      <trkpt lat="43.43785" lon="5.50597">
        <ele>368.1</ele>
        <time>2015-01-11T09:02:02.000Z</time>
      </trkpt>
      <trkpt lat="43.4378" lon="5.506">
        <ele>368.7</ele>
        <time>2015-01-11T09:02:04.000Z</time>
      </trkpt>
      <trkpt lat="43.43775" lon="5.50604">
        <ele>369.6</ele>
        <time>2015-01-11T09:02:07.000Z</time>
      </trkpt>
      <trkpt lat="43.4377" lon="5.50608">
        <ele>370.7</ele>
        <time>2015-01-11T09:02:12.000Z</time>
      </trkpt>
      <trkpt lat="43.43764" lon="5.50607">
        <ele>371.3</ele>
        <time>2015-01-11T09:02:15.000Z</time>
      </trkpt>
      <trkpt lat="43.43759" lon="5.50603">
        <ele>371.8</ele>
        <time>2015-01-11T09:02:18.000Z</time>
      </trkpt>
      <trkpt lat="43.43754" lon="5.506">
        <ele>372.1</ele>
        <time>2015-01-11T09:02:20.000Z</time>
      </trkpt>
      <trkpt lat="43.43748" lon="5.506">
        <ele>373</ele>
        <time>2015-01-11T09:02:24.000Z</time>
      </trkpt>
      <trkpt lat="43.43744" lon="5.506">
        <ele>373.3</ele>
        <time>2015-01-11T09:02:26.000Z</time>
      </trkpt>
      <trkpt lat="43.43738" lon="5.506">
        <ele>373.9</ele>
        <time>2015-01-11T09:02:29.000Z</time>
      </trkpt>
      <trkpt lat="43.43732" lon="5.506">
        <ele>374.4</ele>
        <time>2015-01-11T09:02:33.000Z</time>
      </trkpt>
      <trkpt lat="43.43726" lon="5.50599">
        <ele>374.8</ele>
        <time>2015-01-11T09:02:36.000Z</time>
      </trkpt>
      <trkpt lat="43.4372" lon="5.50595">
        <ele>375.5</ele>
        <time>2015-01-11T09:02:39.000Z</time>
      </trkpt>
      <trkpt lat="43.43716" lon="5.50596">
        <ele>376.1</ele>
        <time>2015-01-11T09:02:41.000Z</time>
      </trkpt>
      <trkpt lat="43.4371" lon="5.50596">
        <ele>376.9</ele>
        <time>2015-01-11T09:02:44.000Z</time>
      </trkpt>
      <trkpt lat="43.43704" lon="5.50594">
        <ele>377.6</ele>
        <time>2015-01-11T09:02:47.000Z</time>
      </trkpt>
      <trkpt lat="43.43699" lon="5.5059">
        <ele>378</ele>
        <time>2015-01-11T09:02:49.000Z</time>
      </trkpt>
      <trkpt lat="43.43694" lon="5.50586">
        <ele>378.3</ele>
        <time>2015-01-11T09:02:51.000Z</time>
      </trkpt>
      <trkpt lat="43.4369" lon="5.50582">
        <ele>378.6</ele>
        <time>2015-01-11T09:02:53.000Z</time>
      </trkpt>
      <trkpt lat="43.43686" lon="5.50578">
        <ele>379.1</ele>
        <time>2015-01-11T09:02:56.000Z</time>
      </trkpt>
      <trkpt lat="43.43681" lon="5.50575">
        <ele>379.3</ele>
        <time>2015-01-11T09:03:00.000Z</time>
      </trkpt>
      <trkpt lat="43.43676" lon="5.50574">
        <ele>379.9</ele>
        <time>2015-01-11T09:03:05.000Z</time>
      </trkpt>
      <trkpt lat="43.4367" lon="5.50577">
        <ele>380.1</ele>
        <time>2015-01-11T09:03:08.000Z</time>
      </trkpt>
      <trkpt lat="43.43664" lon="5.50578">
        <ele>380.6</ele>
        <time>2015-01-11T09:03:11.000Z</time>
      </trkpt>
      <trkpt lat="43.43661" lon="5.50572">
        <ele>381.4</ele>
        <time>2015-01-11T09:03:16.000Z</time>
      </trkpt>
      <trkpt lat="43.4366" lon="5.50565">
        <ele>383.2</ele>
        <time>2015-01-11T09:03:35.000Z</time>
      </trkpt>
      <trkpt lat="43.43656" lon="5.50561">
        <ele>383.7</ele>
        <time>2015-01-11T09:03:55.000Z</time>
      </trkpt>
      <trkpt lat="43.43654" lon="5.50567">
        <ele>383.4</ele>
        <time>2015-01-11T09:05:04.000Z</time>
      </trkpt>
      <trkpt lat="43.43652" lon="5.50572">
        <ele>380.8</ele>
        <time>2015-01-11T09:06:18.000Z</time>
      </trkpt>
      <trkpt lat="43.43655" lon="5.50568">
        <ele>378.6</ele>
        <time>2015-01-11T09:07:35.000Z</time>
      </trkpt>
      <trkpt lat="43.43659" lon="5.50571">
        <ele>379.1</ele>
        <time>2015-01-11T09:07:59.000Z</time>
      </trkpt>
      <trkpt lat="43.43654" lon="5.50569">
        <ele>376.6</ele>
        <time>2015-01-11T09:08:24.000Z</time>
      </trkpt>
      <trkpt lat="43.43651" lon="5.50564">
        <ele>374.1</ele>
        <time>2015-01-11T09:08:34.000Z</time>
      </trkpt>
      <trkpt lat="43.43648" lon="5.50559">
        <ele>372.9</ele>
        <time>2015-01-11T09:08:40.000Z</time>
      </trkpt>
      <trkpt lat="43.43652" lon="5.50558">
        <ele>374.7</ele>
        <time>2015-01-11T09:09:55.000Z</time>
      </trkpt>
      <trkpt lat="43.43648" lon="5.50561">
        <ele>374.7</ele>
        <time>2015-01-11T09:09:58.000Z</time>
      </trkpt>
      <trkpt lat="43.43651" lon="5.50556">
        <ele>375.8</ele>
        <time>2015-01-11T09:10:22.000Z</time>
      </trkpt>
      <trkpt lat="43.43652" lon="5.50549">
        <ele>376</ele>
        <time>2015-01-11T09:10:27.000Z</time>
      </trkpt>
      <trkpt lat="43.43648" lon="5.50546">
        <ele>376</ele>
        <time>2015-01-11T09:10:50.000Z</time>
      </trkpt>
      <trkpt lat="43.43649" lon="5.50553">
        <ele>376.8</ele>
        <time>2015-01-11T09:11:17.000Z</time>
      </trkpt>
      <trkpt lat="43.43649" lon="5.50559">
        <ele>377.9</ele>
        <time>2015-01-11T09:11:37.000Z</time>
      </trkpt>
      <trkpt lat="43.43647" lon="5.50553">
        <ele>378.1</ele>
        <time>2015-01-11T09:11:46.000Z</time>
      </trkpt>
      <trkpt lat="43.43645" lon="5.50545">
        <ele>378.2</ele>
        <time>2015-01-11T09:11:49.000Z</time>
      </trkpt>
      <trkpt lat="43.43643" lon="5.50539">
        <ele>378.5</ele>
        <time>2015-01-11T09:11:51.000Z</time>
      </trkpt>
      <trkpt lat="43.43641" lon="5.50532">
        <ele>378.9</ele>
        <time>2015-01-11T09:11:54.000Z</time>
      </trkpt>
      <trkpt lat="43.43638" lon="5.50525">
        <ele>379.5</ele>
        <time>2015-01-11T09:11:57.000Z</time>
      </trkpt>
      <trkpt lat="43.43634" lon="5.5052">
        <ele>380.1</ele>
        <time>2015-01-11T09:12:00.000Z</time>
      </trkpt>
      <trkpt lat="43.4363" lon="5.50517">
        <ele>380.6</ele>
        <time>2015-01-11T09:12:03.000Z</time>
      </trkpt>
      <trkpt lat="43.43625" lon="5.50513">
        <ele>380.8</ele>
        <time>2015-01-11T09:12:06.000Z</time>
      </trkpt>
      <trkpt lat="43.43623" lon="5.50506">
        <ele>381.2</ele>
        <time>2015-01-11T09:12:09.000Z</time>
      </trkpt>
      <trkpt lat="43.43622" lon="5.50499">
        <ele>382</ele>
        <time>2015-01-11T09:12:15.000Z</time>
      </trkpt>
      <trkpt lat="43.43623" lon="5.50491">
        <ele>382.5</ele>
        <time>2015-01-11T09:12:20.000Z</time>
      </trkpt>
      <trkpt lat="43.43624" lon="5.50484">
        <ele>382.4</ele>
        <time>2015-01-11T09:12:24.000Z</time>
      </trkpt>
      <trkpt lat="43.43626" lon="5.50477">
        <ele>382.6</ele>
        <time>2015-01-11T09:12:27.000Z</time>
      </trkpt>
      <trkpt lat="43.43631" lon="5.50472">
        <ele>383</ele>
        <time>2015-01-11T09:12:31.000Z</time>
      </trkpt>
      <trkpt lat="43.43637" lon="5.50469">
        <ele>383.3</ele>
        <time>2015-01-11T09:12:34.000Z</time>
      </trkpt>
      <trkpt lat="43.43642" lon="5.50472">
        <ele>383.6</ele>
        <time>2015-01-11T09:12:37.000Z</time>
      </trkpt>
      <trkpt lat="43.43647" lon="5.50474">
        <ele>383.9</ele>
        <time>2015-01-11T09:12:40.000Z</time>
      </trkpt>
      <trkpt lat="43.4365" lon="5.50479">
        <ele>384.1</ele>
        <time>2015-01-11T09:12:42.000Z</time>
      </trkpt>
      <trkpt lat="43.43655" lon="5.50483">
        <ele>384.5</ele>
        <time>2015-01-11T09:12:44.000Z</time>
      </trkpt>
      <trkpt lat="43.4366" lon="5.50484">
        <ele>384.9</ele>
        <time>2015-01-11T09:12:46.000Z</time>
      </trkpt>
      <trkpt lat="43.43666" lon="5.50482">
        <ele>385.4</ele>
        <time>2015-01-11T09:12:49.000Z</time>
      </trkpt>
      <trkpt lat="43.43671" lon="5.50482">
        <ele>385.8</ele>
        <time>2015-01-11T09:12:51.000Z</time>
      </trkpt>
      <trkpt lat="43.43676" lon="5.50486">
        <ele>386.6</ele>
        <time>2015-01-11T09:12:54.000Z</time>
      </trkpt>
      <trkpt lat="43.4368" lon="5.50489">
        <ele>387.5</ele>
        <time>2015-01-11T09:12:58.000Z</time>
      </trkpt>
      <trkpt lat="43.43685" lon="5.50494">
        <ele>388.4</ele>
        <time>2015-01-11T09:13:02.000Z</time>
      </trkpt>
      <trkpt lat="43.4369" lon="5.50492">
        <ele>389.2</ele>
        <time>2015-01-11T09:13:05.000Z</time>
      </trkpt>
      <trkpt lat="43.4369" lon="5.50485">
        <ele>389.4</ele>
        <time>2015-01-11T09:13:09.000Z</time>
      </trkpt>
      <trkpt lat="43.43691" lon="5.50477">
        <ele>389.6</ele>
        <time>2015-01-11T09:13:12.000Z</time>
      </trkpt>
      <trkpt lat="43.43692" lon="5.50468">
        <ele>389.4</ele>
        <time>2015-01-11T09:13:15.000Z</time>
      </trkpt>
      <trkpt lat="43.43694" lon="5.5046">
        <ele>389.5</ele>
        <time>2015-01-11T09:13:18.000Z</time>
      </trkpt>
      <trkpt lat="43.43696" lon="5.50454">
        <ele>389.5</ele>
        <time>2015-01-11T09:13:21.000Z</time>
      </trkpt>
      <trkpt lat="43.43698" lon="5.50447">
        <ele>389.2</ele>
        <time>2015-01-11T09:13:24.000Z</time>
      </trkpt>
      <trkpt lat="43.437" lon="5.50441">
        <ele>389</ele>
        <time>2015-01-11T09:13:27.000Z</time>
      </trkpt>
      <trkpt lat="43.437" lon="5.50433">
        <ele>388.8</ele>
        <time>2015-01-11T09:13:30.000Z</time>
      </trkpt>
      <trkpt lat="43.43701" lon="5.50426">
        <ele>388.6</ele>
        <time>2015-01-11T09:13:33.000Z</time>
      </trkpt>
      <trkpt lat="43.43701" lon="5.5042">
        <ele>388.4</ele>
        <time>2015-01-11T09:13:36.000Z</time>
      </trkpt>
      <trkpt lat="43.43701" lon="5.50405">
        <ele>388.2</ele>
        <time>2015-01-11T09:13:43.000Z</time>
      </trkpt>
      <trkpt lat="43.43704" lon="5.504">
        <ele>387.9</ele>
        <time>2015-01-11T09:13:47.000Z</time>
      </trkpt>
      <trkpt lat="43.43707" lon="5.50394">
        <ele>387.5</ele>
        <time>2015-01-11T09:13:51.000Z</time>
      </trkpt>
      <trkpt lat="43.43712" lon="5.50389">
        <ele>387.4</ele>
        <time>2015-01-11T09:13:53.000Z</time>
      </trkpt>
      <trkpt lat="43.43716" lon="5.50382">
        <ele>387.3</ele>
        <time>2015-01-11T09:13:56.000Z</time>
      </trkpt>
      <trkpt lat="43.43721" lon="5.50378">
        <ele>387.6</ele>
        <time>2015-01-11T09:13:59.000Z</time>
      </trkpt>
      <trkpt lat="43.43726" lon="5.50375">
        <ele>388.4</ele>
        <time>2015-01-11T09:14:02.000Z</time>
      </trkpt>
      <trkpt lat="43.43732" lon="5.50371">
        <ele>389</ele>
        <time>2015-01-11T09:14:05.000Z</time>
      </trkpt>
      <trkpt lat="43.43737" lon="5.5037">
        <ele>389.5</ele>
        <time>2015-01-11T09:14:07.000Z</time>
      </trkpt>
      <trkpt lat="43.43739" lon="5.50364">
        <ele>390.9</ele>
        <time>2015-01-11T09:14:12.000Z</time>
      </trkpt>
      <trkpt lat="43.43739" lon="5.50357">
        <ele>393.7</ele>
        <time>2015-01-11T09:14:23.000Z</time>
      </trkpt>
      <trkpt lat="43.4374" lon="5.50351">
        <ele>397.1</ele>
        <time>2015-01-11T09:14:38.000Z</time>
      </trkpt>
      <trkpt lat="43.43743" lon="5.50345">
        <ele>406.6</ele>
        <time>2015-01-11T09:18:37.000Z</time>
      </trkpt>
      <trkpt lat="43.43738" lon="5.50347">
        <ele>407.2</ele>
        <time>2015-01-11T09:18:53.000Z</time>
      </trkpt>
      <trkpt lat="43.43732" lon="5.50351">
        <ele>407</ele>
        <time>2015-01-11T09:18:55.000Z</time>
      </trkpt>
      <trkpt lat="43.43726" lon="5.50355">
        <ele>406.9</ele>
        <time>2015-01-11T09:18:57.000Z</time>
      </trkpt>
      <trkpt lat="43.43721" lon="5.50357">
        <ele>406.8</ele>
        <time>2015-01-11T09:18:59.000Z</time>
      </trkpt>
      <trkpt lat="43.43714" lon="5.50358">
        <ele>406.9</ele>
        <time>2015-01-11T09:19:02.000Z</time>
      </trkpt>
      <trkpt lat="43.43708" lon="5.50358">
        <ele>406.9</ele>
        <time>2015-01-11T09:19:04.000Z</time>
      </trkpt>
      <trkpt lat="43.43702" lon="5.50358">
        <ele>407</ele>
        <time>2015-01-11T09:19:06.000Z</time>
      </trkpt>
      <trkpt lat="43.43696" lon="5.50358">
        <ele>407.2</ele>
        <time>2015-01-11T09:19:08.000Z</time>
      </trkpt>
      <trkpt lat="43.4369" lon="5.50357">
        <ele>407.4</ele>
        <time>2015-01-11T09:19:10.000Z</time>
      </trkpt>
      <trkpt lat="43.43683" lon="5.50356">
        <ele>407.6</ele>
        <time>2015-01-11T09:19:12.000Z</time>
      </trkpt>
      <trkpt lat="43.43676" lon="5.50356">
        <ele>407.9</ele>
        <time>2015-01-11T09:19:14.000Z</time>
      </trkpt>
      <trkpt lat="43.43668" lon="5.50358">
        <ele>408.8</ele>
        <time>2015-01-11T09:19:16.000Z</time>
      </trkpt>
      <trkpt lat="43.43663" lon="5.50357">
        <ele>409.3</ele>
        <time>2015-01-11T09:19:17.000Z</time>
      </trkpt>
      <trkpt lat="43.43658" lon="5.50355">
        <ele>409.1</ele>
        <time>2015-01-11T09:19:18.000Z</time>
      </trkpt>
      <trkpt lat="43.43654" lon="5.50352">
        <ele>409.2</ele>
        <time>2015-01-11T09:19:19.000Z</time>
      </trkpt>
      <trkpt lat="43.4365" lon="5.5035">
        <ele>408.7</ele>
        <time>2015-01-11T09:19:20.000Z</time>
      </trkpt>
      <trkpt lat="43.43644" lon="5.50348">
        <ele>408.3</ele>
        <time>2015-01-11T09:19:21.000Z</time>
      </trkpt>
      <trkpt lat="43.43638" lon="5.50348">
        <ele>407.5</ele>
        <time>2015-01-11T09:19:22.000Z</time>
      </trkpt>
      <trkpt lat="43.43632" lon="5.5035">
        <ele>407.4</ele>
        <time>2015-01-11T09:19:23.000Z</time>
      </trkpt>
      <trkpt lat="43.43627" lon="5.50352">
        <ele>407.4</ele>
        <time>2015-01-11T09:19:24.000Z</time>
      </trkpt>
      <trkpt lat="43.43622" lon="5.50353">
        <ele>407.4</ele>
        <time>2015-01-11T09:19:25.000Z</time>
      </trkpt>
      <trkpt lat="43.43617" lon="5.50354">
        <ele>407.4</ele>
        <time>2015-01-11T09:19:26.000Z</time>
      </trkpt>
      <trkpt lat="43.4361" lon="5.50359">
        <ele>407.4</ele>
        <time>2015-01-11T09:19:28.000Z</time>
      </trkpt>
      <trkpt lat="43.43605" lon="5.50362">
        <ele>407.4</ele>
        <time>2015-01-11T09:19:30.000Z</time>
      </trkpt>
      <trkpt lat="43.43599" lon="5.50365">
        <ele>407.3</ele>
        <time>2015-01-11T09:19:32.000Z</time>
      </trkpt>
      <trkpt lat="43.43593" lon="5.50369">
        <ele>407.2</ele>
        <time>2015-01-11T09:19:34.000Z</time>
      </trkpt>
      <trkpt lat="43.43586" lon="5.50374">
        <ele>407.1</ele>
        <time>2015-01-11T09:19:36.000Z</time>
      </trkpt>
      <trkpt lat="43.43578" lon="5.50379">
        <ele>407</ele>
        <time>2015-01-11T09:19:38.000Z</time>
      </trkpt>
      <trkpt lat="43.43571" lon="5.50385">
        <ele>406.9</ele>
        <time>2015-01-11T09:19:40.000Z</time>
      </trkpt>
      <trkpt lat="43.43564" lon="5.50391">
        <ele>406.5</ele>
        <time>2015-01-11T09:19:42.000Z</time>
      </trkpt>
      <trkpt lat="43.43556" lon="5.50397">
        <ele>405.8</ele>
        <time>2015-01-11T09:19:44.000Z</time>
      </trkpt>
      <trkpt lat="43.43552" lon="5.504">
        <ele>405.1</ele>
        <time>2015-01-11T09:19:45.000Z</time>
      </trkpt>
      <trkpt lat="43.43544" lon="5.50406">
        <ele>404.8</ele>
        <time>2015-01-11T09:19:47.000Z</time>
      </trkpt>
      <trkpt lat="43.43539" lon="5.5041">
        <ele>404.8</ele>
        <time>2015-01-11T09:19:48.000Z</time>
      </trkpt>
      <trkpt lat="43.43534" lon="5.50413">
        <ele>405</ele>
        <time>2015-01-11T09:19:49.000Z</time>
      </trkpt>
      <trkpt lat="43.4353" lon="5.50417">
        <ele>405.4</ele>
        <time>2015-01-11T09:19:50.000Z</time>
      </trkpt>
      <trkpt lat="43.43525" lon="5.5042">
        <ele>405.2</ele>
        <time>2015-01-11T09:19:51.000Z</time>
      </trkpt>
      <trkpt lat="43.43521" lon="5.50423">
        <ele>404.6</ele>
        <time>2015-01-11T09:19:52.000Z</time>
      </trkpt>
      <trkpt lat="43.43512" lon="5.50428">
        <ele>405.3</ele>
        <time>2015-01-11T09:19:54.000Z</time>
      </trkpt>
      <trkpt lat="43.43505" lon="5.50435">
        <ele>405.7</ele>
        <time>2015-01-11T09:19:56.000Z</time>
      </trkpt>
      <trkpt lat="43.43498" lon="5.5044">
        <ele>406.8</ele>
        <time>2015-01-11T09:19:58.000Z</time>
      </trkpt>
      <trkpt lat="43.43494" lon="5.50443">
        <ele>407.1</ele>
        <time>2015-01-11T09:19:59.000Z</time>
      </trkpt>
      <trkpt lat="43.43489" lon="5.50447">
        <ele>407</ele>
        <time>2015-01-11T09:20:00.000Z</time>
      </trkpt>
      <trkpt lat="43.43485" lon="5.5045">
        <ele>407.2</ele>
        <time>2015-01-11T09:20:01.000Z</time>
      </trkpt>
      <trkpt lat="43.43481" lon="5.50454">
        <ele>407.4</ele>
        <time>2015-01-11T09:20:02.000Z</time>
      </trkpt>
      <trkpt lat="43.43473" lon="5.50462">
        <ele>407.2</ele>
        <time>2015-01-11T09:20:04.000Z</time>
      </trkpt>
      <trkpt lat="43.43469" lon="5.50465">
        <ele>407.8</ele>
        <time>2015-01-11T09:20:05.000Z</time>
      </trkpt>
      <trkpt lat="43.43465" lon="5.50469">
        <ele>408.3</ele>
        <time>2015-01-11T09:20:06.000Z</time>
      </trkpt>
      <trkpt lat="43.4346" lon="5.50473">
        <ele>408.1</ele>
        <time>2015-01-11T09:20:07.000Z</time>
      </trkpt>
      <trkpt lat="43.43455" lon="5.50477">
        <ele>408.2</ele>
        <time>2015-01-11T09:20:08.000Z</time>
      </trkpt>
      <trkpt lat="43.43451" lon="5.50481">
        <ele>408</ele>
        <time>2015-01-11T09:20:09.000Z</time>
      </trkpt>
      <trkpt lat="43.43446" lon="5.50486">
        <ele>407.7</ele>
        <time>2015-01-11T09:20:10.000Z</time>
      </trkpt>
      <trkpt lat="43.43442" lon="5.50491">
        <ele>407.4</ele>
        <time>2015-01-11T09:20:11.000Z</time>
      </trkpt>
      <trkpt lat="43.43438" lon="5.50494">
        <ele>407.2</ele>
        <time>2015-01-11T09:20:12.000Z</time>
      </trkpt>
      <trkpt lat="43.43433" lon="5.50499">
        <ele>406.9</ele>
        <time>2015-01-11T09:20:13.000Z</time>
      </trkpt>
      <trkpt lat="43.43429" lon="5.50503">
        <ele>406.5</ele>
        <time>2015-01-11T09:20:14.000Z</time>
      </trkpt>
      <trkpt lat="43.43425" lon="5.50507">
        <ele>406.4</ele>
        <time>2015-01-11T09:20:15.000Z</time>
      </trkpt>
      <trkpt lat="43.43421" lon="5.50512">
        <ele>406</ele>
        <time>2015-01-11T09:20:16.000Z</time>
      </trkpt>
      <trkpt lat="43.43417" lon="5.50517">
        <ele>405.7</ele>
        <time>2015-01-11T09:20:17.000Z</time>
      </trkpt>
      <trkpt lat="43.43415" lon="5.50522">
        <ele>406</ele>
        <time>2015-01-11T09:20:18.000Z</time>
      </trkpt>
      <trkpt lat="43.43412" lon="5.50528">
        <ele>405.8</ele>
        <time>2015-01-11T09:20:19.000Z</time>
      </trkpt>
      <trkpt lat="43.4341" lon="5.50534">
        <ele>406.1</ele>
        <time>2015-01-11T09:20:20.000Z</time>
      </trkpt>
      <trkpt lat="43.43405" lon="5.50543">
        <ele>407.6</ele>
        <time>2015-01-11T09:20:22.000Z</time>
      </trkpt>
      <trkpt lat="43.43401" lon="5.50548">
        <ele>408.4</ele>
        <time>2015-01-11T09:20:23.000Z</time>
      </trkpt>
      <trkpt lat="43.43398" lon="5.50553">
        <ele>409.3</ele>
        <time>2015-01-11T09:20:24.000Z</time>
      </trkpt>
      <trkpt lat="43.43393" lon="5.50559">
        <ele>410</ele>
        <time>2015-01-11T09:20:26.000Z</time>
      </trkpt>
      <trkpt lat="43.43386" lon="5.50568">
        <ele>410.1</ele>
        <time>2015-01-11T09:20:28.000Z</time>
      </trkpt>
      <trkpt lat="43.43381" lon="5.50575">
        <ele>410</ele>
        <time>2015-01-11T09:20:30.000Z</time>
      </trkpt>
      <trkpt lat="43.43375" lon="5.50582">
        <ele>410.6</ele>
        <time>2015-01-11T09:20:32.000Z</time>
      </trkpt>
      <trkpt lat="43.43369" lon="5.50589">
        <ele>410.6</ele>
        <time>2015-01-11T09:20:34.000Z</time>
      </trkpt>
      <trkpt lat="43.43363" lon="5.50594">
        <ele>410.8</ele>
        <time>2015-01-11T09:20:36.000Z</time>
      </trkpt>
      <trkpt lat="43.43357" lon="5.50601">
        <ele>410.9</ele>
        <time>2015-01-11T09:20:38.000Z</time>
      </trkpt>
      <trkpt lat="43.43352" lon="5.50606">
        <ele>411.1</ele>
        <time>2015-01-11T09:20:40.000Z</time>
      </trkpt>
      <trkpt lat="43.43347" lon="5.5061">
        <ele>411.4</ele>
        <time>2015-01-11T09:20:42.000Z</time>
      </trkpt>
      <trkpt lat="43.43342" lon="5.50615">
        <ele>411.7</ele>
        <time>2015-01-11T09:20:45.000Z</time>
      </trkpt>
      <trkpt lat="43.43337" lon="5.50619">
        <ele>412.1</ele>
        <time>2015-01-11T09:20:48.000Z</time>
      </trkpt>
      <trkpt lat="43.43332" lon="5.50624">
        <ele>412.3</ele>
        <time>2015-01-11T09:20:50.000Z</time>
      </trkpt>
      <trkpt lat="43.43328" lon="5.50627">
        <ele>412.4</ele>
        <time>2015-01-11T09:20:52.000Z</time>
      </trkpt>
      <trkpt lat="43.43323" lon="5.50631">
        <ele>412.7</ele>
        <time>2015-01-11T09:20:54.000Z</time>
      </trkpt>
      <trkpt lat="43.43318" lon="5.50635">
        <ele>412.9</ele>
        <time>2015-01-11T09:20:56.000Z</time>
      </trkpt>
      <trkpt lat="43.43312" lon="5.50638">
        <ele>413.2</ele>
        <time>2015-01-11T09:20:58.000Z</time>
      </trkpt>
      <trkpt lat="43.43308" lon="5.50642">
        <ele>413.5</ele>
        <time>2015-01-11T09:21:00.000Z</time>
      </trkpt>
      <trkpt lat="43.43303" lon="5.50646">
        <ele>413.8</ele>
        <time>2015-01-11T09:21:03.000Z</time>
      </trkpt>
      <trkpt lat="43.43297" lon="5.50649">
        <ele>414.2</ele>
        <time>2015-01-11T09:21:06.000Z</time>
      </trkpt>
      <trkpt lat="43.43292" lon="5.50653">
        <ele>414.4</ele>
        <time>2015-01-11T09:21:08.000Z</time>
      </trkpt>
      <trkpt lat="43.43288" lon="5.50658">
        <ele>414.6</ele>
        <time>2015-01-11T09:21:10.000Z</time>
      </trkpt>
      <trkpt lat="43.43285" lon="5.50665">
        <ele>414.7</ele>
        <time>2015-01-11T09:21:13.000Z</time>
      </trkpt>
      <trkpt lat="43.43283" lon="5.50672">
        <ele>414.8</ele>
        <time>2015-01-11T09:21:16.000Z</time>
      </trkpt>
      <trkpt lat="43.43282" lon="5.5068">
        <ele>415.1</ele>
        <time>2015-01-11T09:21:18.000Z</time>
      </trkpt>
      <trkpt lat="43.4328" lon="5.50688">
        <ele>415.3</ele>
        <time>2015-01-11T09:21:20.000Z</time>
      </trkpt>
      <trkpt lat="43.43277" lon="5.50696">
        <ele>415.5</ele>
        <time>2015-01-11T09:21:22.000Z</time>
      </trkpt>
      <trkpt lat="43.43274" lon="5.50706">
        <ele>415.7</ele>
        <time>2015-01-11T09:21:24.000Z</time>
      </trkpt>
      <trkpt lat="43.4327" lon="5.50715">
        <ele>416</ele>
        <time>2015-01-11T09:21:26.000Z</time>
      </trkpt>
      <trkpt lat="43.43268" lon="5.50723">
        <ele>416.3</ele>
        <time>2015-01-11T09:21:28.000Z</time>
      </trkpt>
      <trkpt lat="43.43266" lon="5.50732">
        <ele>416.4</ele>
        <time>2015-01-11T09:21:30.000Z</time>
      </trkpt>
      <trkpt lat="43.43262" lon="5.50738">
        <ele>416.5</ele>
        <time>2015-01-11T09:21:32.000Z</time>
      </trkpt>
      <trkpt lat="43.43259" lon="5.50744">
        <ele>416.6</ele>
        <time>2015-01-11T09:21:34.000Z</time>
      </trkpt>
      <trkpt lat="43.43256" lon="5.50751">
        <ele>416.8</ele>
        <time>2015-01-11T09:21:36.000Z</time>
      </trkpt>
      <trkpt lat="43.43252" lon="5.50758">
        <ele>417</ele>
        <time>2015-01-11T09:21:38.000Z</time>
      </trkpt>
      <trkpt lat="43.4325" lon="5.50763">
        <ele>417.2</ele>
        <time>2015-01-11T09:21:40.000Z</time>
      </trkpt>
      <trkpt lat="43.43247" lon="5.50769">
        <ele>417.4</ele>
        <time>2015-01-11T09:21:42.000Z</time>
      </trkpt>
      <trkpt lat="43.43244" lon="5.50774">
        <ele>417.6</ele>
        <time>2015-01-11T09:21:44.000Z</time>
      </trkpt>
      <trkpt lat="43.43239" lon="5.50782">
        <ele>417.9</ele>
        <time>2015-01-11T09:21:46.000Z</time>
      </trkpt>
      <trkpt lat="43.43233" lon="5.50788">
        <ele>418.1</ele>
        <time>2015-01-11T09:21:48.000Z</time>
      </trkpt>
      <trkpt lat="43.43227" lon="5.50793">
        <ele>418.4</ele>
        <time>2015-01-11T09:21:50.000Z</time>
      </trkpt>
      <trkpt lat="43.4322" lon="5.50796">
        <ele>418.7</ele>
        <time>2015-01-11T09:21:52.000Z</time>
      </trkpt>
      <trkpt lat="43.43214" lon="5.508">
        <ele>419</ele>
        <time>2015-01-11T09:21:54.000Z</time>
      </trkpt>
      <trkpt lat="43.43208" lon="5.50801">
        <ele>419.2</ele>
        <time>2015-01-11T09:21:56.000Z</time>
      </trkpt>
      <trkpt lat="43.43202" lon="5.50802">
        <ele>419.4</ele>
        <time>2015-01-11T09:21:58.000Z</time>
      </trkpt>
      <trkpt lat="43.43196" lon="5.50802">
        <ele>419.6</ele>
        <time>2015-01-11T09:22:00.000Z</time>
      </trkpt>
      <trkpt lat="43.43192" lon="5.50803">
        <ele>420</ele>
        <time>2015-01-11T09:22:02.000Z</time>
      </trkpt>
      <trkpt lat="43.43186" lon="5.50806">
        <ele>420.5</ele>
        <time>2015-01-11T09:22:05.000Z</time>
      </trkpt>
      <trkpt lat="43.43181" lon="5.50808">
        <ele>420.8</ele>
        <time>2015-01-11T09:22:07.000Z</time>
      </trkpt>
      <trkpt lat="43.43174" lon="5.50812">
        <ele>421</ele>
        <time>2015-01-11T09:22:09.000Z</time>
      </trkpt>
      <trkpt lat="43.43167" lon="5.50817">
        <ele>421.3</ele>
        <time>2015-01-11T09:22:11.000Z</time>
      </trkpt>
      <trkpt lat="43.43161" lon="5.50821">
        <ele>421.6</ele>
        <time>2015-01-11T09:22:13.000Z</time>
      </trkpt>
      <trkpt lat="43.43154" lon="5.50827">
        <ele>421.9</ele>
        <time>2015-01-11T09:22:15.000Z</time>
      </trkpt>
      <trkpt lat="43.43148" lon="5.50828">
        <ele>423.3</ele>
        <time>2015-01-11T09:22:16.000Z</time>
      </trkpt>
      <trkpt lat="43.43143" lon="5.50829">
        <ele>424.5</ele>
        <time>2015-01-11T09:22:17.000Z</time>
      </trkpt>
      <trkpt lat="43.43137" lon="5.5083">
        <ele>424.7</ele>
        <time>2015-01-11T09:22:18.000Z</time>
      </trkpt>
      <trkpt lat="43.43131" lon="5.5083">
        <ele>424.5</ele>
        <time>2015-01-11T09:22:19.000Z</time>
      </trkpt>
      <trkpt lat="43.43125" lon="5.50831">
        <ele>424.7</ele>
        <time>2015-01-11T09:22:20.000Z</time>
      </trkpt>
      <trkpt lat="43.43121" lon="5.50832">
        <ele>424.7</ele>
        <time>2015-01-11T09:22:21.000Z</time>
      </trkpt>
      <trkpt lat="43.43116" lon="5.50834">
        <ele>424.7</ele>
        <time>2015-01-11T09:22:22.000Z</time>
      </trkpt>
      <trkpt lat="43.43112" lon="5.50838">
        <ele>424.7</ele>
        <time>2015-01-11T09:22:24.000Z</time>
      </trkpt>
      <trkpt lat="43.43106" lon="5.50843">
        <ele>424.7</ele>
        <time>2015-01-11T09:22:26.000Z</time>
      </trkpt>
      <trkpt lat="43.431" lon="5.5085">
        <ele>424.6</ele>
        <time>2015-01-11T09:22:28.000Z</time>
      </trkpt>
      <trkpt lat="43.43096" lon="5.50856">
        <ele>424.5</ele>
        <time>2015-01-11T09:22:30.000Z</time>
      </trkpt>
      <trkpt lat="43.4309" lon="5.50863">
        <ele>424.5</ele>
        <time>2015-01-11T09:22:32.000Z</time>
      </trkpt>
      <trkpt lat="43.43085" lon="5.50866">
        <ele>424.4</ele>
        <time>2015-01-11T09:22:34.000Z</time>
      </trkpt>
      <trkpt lat="43.43081" lon="5.50867">
        <ele>424.3</ele>
        <time>2015-01-11T09:22:36.000Z</time>
      </trkpt>
      <trkpt lat="43.43076" lon="5.50867">
        <ele>424.2</ele>
        <time>2015-01-11T09:22:38.000Z</time>
      </trkpt>
      <trkpt lat="43.43072" lon="5.50871">
        <ele>423.8</ele>
        <time>2015-01-11T09:22:56.000Z</time>
      </trkpt>
      <trkpt lat="43.43071" lon="5.50878">
        <ele>423.6</ele>
        <time>2015-01-11T09:23:00.000Z</time>
      </trkpt>
      <trkpt lat="43.43068" lon="5.50883">
        <ele>424.7</ele>
        <time>2015-01-11T09:24:22.000Z</time>
      </trkpt>
      <trkpt lat="43.43066" lon="5.5089">
        <ele>421.6</ele>
        <time>2015-01-11T09:24:55.000Z</time>
      </trkpt>
      <trkpt lat="43.43062" lon="5.50899">
        <ele>421.6</ele>
        <time>2015-01-11T09:24:58.000Z</time>
      </trkpt>
      <trkpt lat="43.4306" lon="5.50907">
        <ele>421.6</ele>
        <time>2015-01-11T09:25:00.000Z</time>
      </trkpt>
      <trkpt lat="43.43056" lon="5.50917">
        <ele>421.6</ele>
        <time>2015-01-11T09:25:02.000Z</time>
      </trkpt>
      <trkpt lat="43.43053" lon="5.50927">
        <ele>421.6</ele>
        <time>2015-01-11T09:25:04.000Z</time>
      </trkpt>
      <trkpt lat="43.4305" lon="5.50937">
        <ele>421.5</ele>
        <time>2015-01-11T09:25:06.000Z</time>
      </trkpt>
      <trkpt lat="43.43045" lon="5.50946">
        <ele>420</ele>
        <time>2015-01-11T09:25:08.000Z</time>
      </trkpt>
      <trkpt lat="43.4304" lon="5.50955">
        <ele>418.7</ele>
        <time>2015-01-11T09:25:10.000Z</time>
      </trkpt>
      <trkpt lat="43.43037" lon="5.50961">
        <ele>417.8</ele>
        <time>2015-01-11T09:25:11.000Z</time>
      </trkpt>
      <trkpt lat="43.43034" lon="5.50968">
        <ele>417.3</ele>
        <time>2015-01-11T09:25:12.000Z</time>
      </trkpt>
      <trkpt lat="43.43031" lon="5.50974">
        <ele>416.8</ele>
        <time>2015-01-11T09:25:13.000Z</time>
      </trkpt>
      <trkpt lat="43.43028" lon="5.50981">
        <ele>416.6</ele>
        <time>2015-01-11T09:25:14.000Z</time>
      </trkpt>
      <trkpt lat="43.43025" lon="5.50987">
        <ele>416.3</ele>
        <time>2015-01-11T09:25:15.000Z</time>
      </trkpt>
      <trkpt lat="43.43023" lon="5.50993">
        <ele>416</ele>
        <time>2015-01-11T09:25:16.000Z</time>
      </trkpt>
      <trkpt lat="43.43021" lon="5.51">
        <ele>415.5</ele>
        <time>2015-01-11T09:25:17.000Z</time>
      </trkpt>
      <trkpt lat="43.43023" lon="5.5101">
        <ele>415.3</ele>
        <time>2015-01-11T09:25:19.000Z</time>
      </trkpt>
      <trkpt lat="43.43026" lon="5.51016">
        <ele>415.2</ele>
        <time>2015-01-11T09:25:21.000Z</time>
      </trkpt>
      <trkpt lat="43.4303" lon="5.5102">
        <ele>413.8</ele>
        <time>2015-01-11T09:25:23.000Z</time>
      </trkpt>
      <trkpt lat="43.43035" lon="5.51018">
        <ele>412.7</ele>
        <time>2015-01-11T09:25:24.000Z</time>
      </trkpt>
      <trkpt lat="43.4304" lon="5.51016">
        <ele>412.5</ele>
        <time>2015-01-11T09:25:25.000Z</time>
      </trkpt>
      <trkpt lat="43.43044" lon="5.51014">
        <ele>412.2</ele>
        <time>2015-01-11T09:25:26.000Z</time>
      </trkpt>
      <trkpt lat="43.43052" lon="5.51013">
        <ele>412</ele>
        <time>2015-01-11T09:25:28.000Z</time>
      </trkpt>
      <trkpt lat="43.4306" lon="5.51014">
        <ele>411.5</ele>
        <time>2015-01-11T09:25:30.000Z</time>
      </trkpt>
      <trkpt lat="43.43067" lon="5.51016">
        <ele>411.8</ele>
        <time>2015-01-11T09:25:32.000Z</time>
      </trkpt>
      <trkpt lat="43.43074" lon="5.5102">
        <ele>412.9</ele>
        <time>2015-01-11T09:25:34.000Z</time>
      </trkpt>
      <trkpt lat="43.43081" lon="5.51025">
        <ele>414.3</ele>
        <time>2015-01-11T09:25:36.000Z</time>
      </trkpt>
      <trkpt lat="43.43083" lon="5.51033">
        <ele>414.8</ele>
        <time>2015-01-11T09:25:38.000Z</time>
      </trkpt>
      <trkpt lat="43.4308" lon="5.51039">
        <ele>414.8</ele>
        <time>2015-01-11T09:25:40.000Z</time>
      </trkpt>
      <trkpt lat="43.43075" lon="5.51044">
        <ele>414.6</ele>
        <time>2015-01-11T09:25:41.000Z</time>
      </trkpt>
      <trkpt lat="43.43068" lon="5.51048">
        <ele>414.4</ele>
        <time>2015-01-11T09:25:42.000Z</time>
      </trkpt>
      <trkpt lat="43.43061" lon="5.51054">
        <ele>413.9</ele>
        <time>2015-01-11T09:25:43.000Z</time>
      </trkpt>
      <trkpt lat="43.43054" lon="5.51059">
        <ele>413.4</ele>
        <time>2015-01-11T09:25:44.000Z</time>
      </trkpt>
      <trkpt lat="43.43049" lon="5.51065">
        <ele>412.2</ele>
        <time>2015-01-11T09:25:45.000Z</time>
      </trkpt>
      <trkpt lat="43.43045" lon="5.5107">
        <ele>411.6</ele>
        <time>2015-01-11T09:25:46.000Z</time>
      </trkpt>
      <trkpt lat="43.43041" lon="5.51075">
        <ele>411.2</ele>
        <time>2015-01-11T09:25:47.000Z</time>
      </trkpt>
      <trkpt lat="43.43035" lon="5.5108">
        <ele>411.7</ele>
        <time>2015-01-11T09:25:48.000Z</time>
      </trkpt>
      <trkpt lat="43.43029" lon="5.51084">
        <ele>411.6</ele>
        <time>2015-01-11T09:25:49.000Z</time>
      </trkpt>
      <trkpt lat="43.43024" lon="5.51088">
        <ele>411</ele>
        <time>2015-01-11T09:25:50.000Z</time>
      </trkpt>
      <trkpt lat="43.43019" lon="5.51091">
        <ele>410.6</ele>
        <time>2015-01-11T09:25:51.000Z</time>
      </trkpt>
      <trkpt lat="43.43014" lon="5.51094">
        <ele>409.7</ele>
        <time>2015-01-11T09:25:52.000Z</time>
      </trkpt>
      <trkpt lat="43.43009" lon="5.51095">
        <ele>408.5</ele>
        <time>2015-01-11T09:25:53.000Z</time>
      </trkpt>
      <trkpt lat="43.43005" lon="5.51099">
        <ele>407.4</ele>
        <time>2015-01-11T09:25:54.000Z</time>
      </trkpt>
      <trkpt lat="43.43002" lon="5.5111">
        <ele>406.1</ele>
        <time>2015-01-11T09:25:56.000Z</time>
      </trkpt>
      <trkpt lat="43.43" lon="5.51116">
        <ele>405.7</ele>
        <time>2015-01-11T09:25:57.000Z</time>
      </trkpt>
      <trkpt lat="43.42999" lon="5.51123">
        <ele>405.5</ele>
        <time>2015-01-11T09:25:58.000Z</time>
      </trkpt>
      <trkpt lat="43.42999" lon="5.5113">
        <ele>405.8</ele>
        <time>2015-01-11T09:25:59.000Z</time>
      </trkpt>
      <trkpt lat="43.43" lon="5.51143">
        <ele>406</ele>
        <time>2015-01-11T09:26:01.000Z</time>
      </trkpt>
      <trkpt lat="43.43" lon="5.5115">
        <ele>406.2</ele>
        <time>2015-01-11T09:26:02.000Z</time>
      </trkpt>
      <trkpt lat="43.43" lon="5.51161">
        <ele>406.8</ele>
        <time>2015-01-11T09:26:04.000Z</time>
      </trkpt>
      <trkpt lat="43.43001" lon="5.51168">
        <ele>407.2</ele>
        <time>2015-01-11T09:26:05.000Z</time>
      </trkpt>
      <trkpt lat="43.43002" lon="5.51176">
        <ele>407.7</ele>
        <time>2015-01-11T09:26:06.000Z</time>
      </trkpt>
      <trkpt lat="43.43003" lon="5.51183">
        <ele>407.8</ele>
        <time>2015-01-11T09:26:07.000Z</time>
      </trkpt>
      <trkpt lat="43.43002" lon="5.51192">
        <ele>407.8</ele>
        <time>2015-01-11T09:26:09.000Z</time>
      </trkpt>
      <trkpt lat="43.43001" lon="5.51199">
        <ele>407.8</ele>
        <time>2015-01-11T09:26:11.000Z</time>
      </trkpt>
      <trkpt lat="43.42999" lon="5.51205">
        <ele>407.7</ele>
        <time>2015-01-11T09:26:14.000Z</time>
      </trkpt>
      <trkpt lat="43.42996" lon="5.51213">
        <ele>407.8</ele>
        <time>2015-01-11T09:26:17.000Z</time>
      </trkpt>
      <trkpt lat="43.42993" lon="5.51219">
        <ele>407.8</ele>
        <time>2015-01-11T09:26:20.000Z</time>
      </trkpt>
      <trkpt lat="43.4299" lon="5.51223">
        <ele>407.9</ele>
        <time>2015-01-11T09:26:24.000Z</time>
      </trkpt>
      <trkpt lat="43.42984" lon="5.51227">
        <ele>407.9</ele>
        <time>2015-01-11T09:26:27.000Z</time>
      </trkpt>
      <trkpt lat="43.42979" lon="5.51231">
        <ele>408.2</ele>
        <time>2015-01-11T09:26:30.000Z</time>
      </trkpt>
      <trkpt lat="43.42973" lon="5.51234">
        <ele>408.5</ele>
        <time>2015-01-11T09:26:33.000Z</time>
      </trkpt>
      <trkpt lat="43.42967" lon="5.51238">
        <ele>408.6</ele>
        <time>2015-01-11T09:26:36.000Z</time>
      </trkpt>
      <trkpt lat="43.42963" lon="5.5124">
        <ele>408.8</ele>
        <time>2015-01-11T09:26:39.000Z</time>
      </trkpt>
      <trkpt lat="43.42958" lon="5.51242">
        <ele>409.1</ele>
        <time>2015-01-11T09:26:42.000Z</time>
      </trkpt>
      <trkpt lat="43.42953" lon="5.51243">
        <ele>409.2</ele>
        <time>2015-01-11T09:26:44.000Z</time>
      </trkpt>
      <trkpt lat="43.42948" lon="5.51241">
        <ele>409.5</ele>
        <time>2015-01-11T09:26:46.000Z</time>
      </trkpt>
      <trkpt lat="43.42942" lon="5.51244">
        <ele>409.7</ele>
        <time>2015-01-11T09:26:48.000Z</time>
      </trkpt>
      <trkpt lat="43.42936" lon="5.51248">
        <ele>409.9</ele>
        <time>2015-01-11T09:26:50.000Z</time>
      </trkpt>
      <trkpt lat="43.42931" lon="5.51254">
        <ele>410.2</ele>
        <time>2015-01-11T09:26:52.000Z</time>
      </trkpt>
      <trkpt lat="43.42925" lon="5.51259">
        <ele>410.3</ele>
        <time>2015-01-11T09:26:54.000Z</time>
      </trkpt>
      <trkpt lat="43.42918" lon="5.51264">
        <ele>410.5</ele>
        <time>2015-01-11T09:26:56.000Z</time>
      </trkpt>
      <trkpt lat="43.42913" lon="5.5127">
        <ele>410.6</ele>
        <time>2015-01-11T09:26:58.000Z</time>
      </trkpt>
      <trkpt lat="43.42909" lon="5.51276">
        <ele>410.8</ele>
        <time>2015-01-11T09:27:00.000Z</time>
      </trkpt>
      <trkpt lat="43.42908" lon="5.51283">
        <ele>411</ele>
        <time>2015-01-11T09:27:02.000Z</time>
      </trkpt>
      <trkpt lat="43.42906" lon="5.51291">
        <ele>411.1</ele>
        <time>2015-01-11T09:27:05.000Z</time>
      </trkpt>
      <trkpt lat="43.42904" lon="5.51298">
        <ele>411.4</ele>
        <time>2015-01-11T09:27:08.000Z</time>
      </trkpt>
      <trkpt lat="43.42903" lon="5.51307">
        <ele>411.6</ele>
        <time>2015-01-11T09:27:11.000Z</time>
      </trkpt>
      <trkpt lat="43.42903" lon="5.51314">
        <ele>411.7</ele>
        <time>2015-01-11T09:27:14.000Z</time>
      </trkpt>
      <trkpt lat="43.42903" lon="5.51321">
        <ele>411.7</ele>
        <time>2015-01-11T09:27:17.000Z</time>
      </trkpt>
      <trkpt lat="43.42903" lon="5.5133">
        <ele>412.3</ele>
        <time>2015-01-11T09:27:21.000Z</time>
      </trkpt>
      <trkpt lat="43.42904" lon="5.51337">
        <ele>412.7</ele>
        <time>2015-01-11T09:27:24.000Z</time>
      </trkpt>
      <trkpt lat="43.42904" lon="5.51345">
        <ele>412.8</ele>
        <time>2015-01-11T09:27:27.000Z</time>
      </trkpt>
      <trkpt lat="43.42902" lon="5.51351">
        <ele>412.9</ele>
        <time>2015-01-11T09:27:30.000Z</time>
      </trkpt>
      <trkpt lat="43.42899" lon="5.51359">
        <ele>412.9</ele>
        <time>2015-01-11T09:27:33.000Z</time>
      </trkpt>
      <trkpt lat="43.42898" lon="5.51365">
        <ele>412.8</ele>
        <time>2015-01-11T09:27:35.000Z</time>
      </trkpt>
      <trkpt lat="43.42895" lon="5.5137">
        <ele>412.7</ele>
        <time>2015-01-11T09:27:37.000Z</time>
      </trkpt>
      <trkpt lat="43.42891" lon="5.51377">
        <ele>412.5</ele>
        <time>2015-01-11T09:27:40.000Z</time>
      </trkpt>
      <trkpt lat="43.42889" lon="5.51385">
        <ele>412.1</ele>
        <time>2015-01-11T09:27:43.000Z</time>
      </trkpt>
      <trkpt lat="43.42886" lon="5.5139">
        <ele>412</ele>
        <time>2015-01-11T09:27:45.000Z</time>
      </trkpt>
      <trkpt lat="43.42884" lon="5.51397">
        <ele>411.9</ele>
        <time>2015-01-11T09:27:47.000Z</time>
      </trkpt>
      <trkpt lat="43.42882" lon="5.51404">
        <ele>411.8</ele>
        <time>2015-01-11T09:27:49.000Z</time>
      </trkpt>
      <trkpt lat="43.4288" lon="5.51409">
        <ele>411.8</ele>
        <time>2015-01-11T09:27:51.000Z</time>
      </trkpt>
      <trkpt lat="43.42877" lon="5.51416">
        <ele>411.7</ele>
        <time>2015-01-11T09:27:53.000Z</time>
      </trkpt>
      <trkpt lat="43.42874" lon="5.51424">
        <ele>411.7</ele>
        <time>2015-01-11T09:27:55.000Z</time>
      </trkpt>
      <trkpt lat="43.42871" lon="5.51433">
        <ele>411.6</ele>
        <time>2015-01-11T09:27:57.000Z</time>
      </trkpt>
      <trkpt lat="43.42869" lon="5.51441">
        <ele>411.7</ele>
        <time>2015-01-11T09:27:59.000Z</time>
      </trkpt>
      <trkpt lat="43.42868" lon="5.51447">
        <ele>411.8</ele>
        <time>2015-01-11T09:28:03.000Z</time>
      </trkpt>
      <trkpt lat="43.42864" lon="5.51453">
        <ele>411.6</ele>
        <time>2015-01-11T09:28:13.000Z</time>
      </trkpt>
      <trkpt lat="43.42861" lon="5.51458">
        <ele>410.5</ele>
        <time>2015-01-11T09:28:23.000Z</time>
      </trkpt>
      <trkpt lat="43.42858" lon="5.51464">
        <ele>410.4</ele>
        <time>2015-01-11T09:28:25.000Z</time>
      </trkpt>
      <trkpt lat="43.42856" lon="5.51469">
        <ele>410.6</ele>
        <time>2015-01-11T09:28:28.000Z</time>
      </trkpt>
      <trkpt lat="43.42852" lon="5.51473">
        <ele>410.6</ele>
        <time>2015-01-11T09:28:31.000Z</time>
      </trkpt>
      <trkpt lat="43.42849" lon="5.51478">
        <ele>410.6</ele>
        <time>2015-01-11T09:28:34.000Z</time>
      </trkpt>
      <trkpt lat="43.42848" lon="5.51485">
        <ele>410.7</ele>
        <time>2015-01-11T09:28:37.000Z</time>
      </trkpt>
      <trkpt lat="43.42845" lon="5.5149">
        <ele>411.2</ele>
        <time>2015-01-11T09:28:41.000Z</time>
      </trkpt>
      <trkpt lat="43.42843" lon="5.51497">
        <ele>411.6</ele>
        <time>2015-01-11T09:28:45.000Z</time>
      </trkpt>
      <trkpt lat="43.42842" lon="5.51504">
        <ele>412.1</ele>
        <time>2015-01-11T09:28:49.000Z</time>
      </trkpt>
      <trkpt lat="43.42842" lon="5.51512">
        <ele>412.5</ele>
        <time>2015-01-11T09:28:52.000Z</time>
      </trkpt>
      <trkpt lat="43.42841" lon="5.51519">
        <ele>412.9</ele>
        <time>2015-01-11T09:28:55.000Z</time>
      </trkpt>
      <trkpt lat="43.42838" lon="5.51526">
        <ele>413.4</ele>
        <time>2015-01-11T09:28:58.000Z</time>
      </trkpt>
      <trkpt lat="43.42835" lon="5.51533">
        <ele>413.8</ele>
        <time>2015-01-11T09:29:01.000Z</time>
      </trkpt>
      <trkpt lat="43.42835" lon="5.5154">
        <ele>414.2</ele>
        <time>2015-01-11T09:29:04.000Z</time>
      </trkpt>
      <trkpt lat="43.42833" lon="5.51546">
        <ele>414.8</ele>
        <time>2015-01-11T09:29:07.000Z</time>
      </trkpt>
      <trkpt lat="43.42832" lon="5.51553">
        <ele>415.6</ele>
        <time>2015-01-11T09:29:10.000Z</time>
      </trkpt>
      <trkpt lat="43.42831" lon="5.51561">
        <ele>416.8</ele>
        <time>2015-01-11T09:29:14.000Z</time>
      </trkpt>
      <trkpt lat="43.4283" lon="5.51568">
        <ele>417.6</ele>
        <time>2015-01-11T09:29:18.000Z</time>
      </trkpt>
      <trkpt lat="43.4283" lon="5.51575">
        <ele>418</ele>
        <time>2015-01-11T09:29:21.000Z</time>
      </trkpt>
      <trkpt lat="43.42828" lon="5.51582">
        <ele>418.6</ele>
        <time>2015-01-11T09:29:25.000Z</time>
      </trkpt>
      <trkpt lat="43.42826" lon="5.51589">
        <ele>419.1</ele>
        <time>2015-01-11T09:29:28.000Z</time>
      </trkpt>
      <trkpt lat="43.42826" lon="5.51596">
        <ele>419.6</ele>
        <time>2015-01-11T09:29:31.000Z</time>
      </trkpt>
      <trkpt lat="43.42824" lon="5.51602">
        <ele>420.8</ele>
        <time>2015-01-11T09:29:37.000Z</time>
      </trkpt>
      <trkpt lat="43.42821" lon="5.51608">
        <ele>421.3</ele>
        <time>2015-01-11T09:29:39.000Z</time>
      </trkpt>
      <trkpt lat="43.42818" lon="5.51613">
        <ele>421.8</ele>
        <time>2015-01-11T09:29:41.000Z</time>
      </trkpt>
      <trkpt lat="43.42813" lon="5.51615">
        <ele>422.1</ele>
        <time>2015-01-11T09:29:43.000Z</time>
      </trkpt>
      <trkpt lat="43.42808" lon="5.51619">
        <ele>422.4</ele>
        <time>2015-01-11T09:29:45.000Z</time>
      </trkpt>
      <trkpt lat="43.42804" lon="5.51624">
        <ele>422.7</ele>
        <time>2015-01-11T09:29:47.000Z</time>
      </trkpt>
      <trkpt lat="43.42799" lon="5.51632">
        <ele>423.1</ele>
        <time>2015-01-11T09:29:49.000Z</time>
      </trkpt>
      <trkpt lat="43.42798" lon="5.51639">
        <ele>423.5</ele>
        <time>2015-01-11T09:29:51.000Z</time>
      </trkpt>
      <trkpt lat="43.42796" lon="5.51644">
        <ele>423.8</ele>
        <time>2015-01-11T09:29:53.000Z</time>
      </trkpt>
      <trkpt lat="43.42791" lon="5.5165">
        <ele>424.1</ele>
        <time>2015-01-11T09:29:56.000Z</time>
      </trkpt>
      <trkpt lat="43.42783" lon="5.51654">
        <ele>424.2</ele>
        <time>2015-01-11T09:29:58.000Z</time>
      </trkpt>
      <trkpt lat="43.42778" lon="5.51657">
        <ele>425.5</ele>
        <time>2015-01-11T09:29:59.000Z</time>
      </trkpt>
      <trkpt lat="43.42771" lon="5.51665">
        <ele>425.6</ele>
        <time>2015-01-11T09:30:01.000Z</time>
      </trkpt>
      <trkpt lat="43.42767" lon="5.51671">
        <ele>425.7</ele>
        <time>2015-01-11T09:30:02.000Z</time>
      </trkpt>
      <trkpt lat="43.42763" lon="5.5168">
        <ele>425.8</ele>
        <time>2015-01-11T09:30:04.000Z</time>
      </trkpt>
      <trkpt lat="43.42761" lon="5.5169">
        <ele>426.2</ele>
        <time>2015-01-11T09:30:06.000Z</time>
      </trkpt>
      <trkpt lat="43.42762" lon="5.51699">
        <ele>426.5</ele>
        <time>2015-01-11T09:30:08.000Z</time>
      </trkpt>
      <trkpt lat="43.42763" lon="5.51706">
        <ele>426.8</ele>
        <time>2015-01-11T09:30:10.000Z</time>
      </trkpt>
      <trkpt lat="43.42761" lon="5.51713">
        <ele>427.1</ele>
        <time>2015-01-11T09:30:12.000Z</time>
      </trkpt>
      <trkpt lat="43.42758" lon="5.51721">
        <ele>427.4</ele>
        <time>2015-01-11T09:30:14.000Z</time>
      </trkpt>
      <trkpt lat="43.42754" lon="5.51727">
        <ele>427.7</ele>
        <time>2015-01-11T09:30:16.000Z</time>
      </trkpt>
      <trkpt lat="43.42751" lon="5.51734">
        <ele>427.9</ele>
        <time>2015-01-11T09:30:18.000Z</time>
      </trkpt>
      <trkpt lat="43.4275" lon="5.51741">
        <ele>428</ele>
        <time>2015-01-11T09:30:20.000Z</time>
      </trkpt>
      <trkpt lat="43.42752" lon="5.51749">
        <ele>428.3</ele>
        <time>2015-01-11T09:30:22.000Z</time>
      </trkpt>
      <trkpt lat="43.42753" lon="5.51755">
        <ele>428.7</ele>
        <time>2015-01-11T09:30:24.000Z</time>
      </trkpt>
      <trkpt lat="43.42755" lon="5.51761">
        <ele>428.8</ele>
        <time>2015-01-11T09:30:26.000Z</time>
      </trkpt>
      <trkpt lat="43.42759" lon="5.51768">
        <ele>428.9</ele>
        <time>2015-01-11T09:30:29.000Z</time>
      </trkpt>
      <trkpt lat="43.42762" lon="5.51775">
        <ele>429.2</ele>
        <time>2015-01-11T09:30:32.000Z</time>
      </trkpt>
      <trkpt lat="43.42765" lon="5.5178">
        <ele>429.5</ele>
        <time>2015-01-11T09:30:34.000Z</time>
      </trkpt>
      <trkpt lat="43.42768" lon="5.51787">
        <ele>429.8</ele>
        <time>2015-01-11T09:30:37.000Z</time>
      </trkpt>
      <trkpt lat="43.42769" lon="5.51794">
        <ele>430.3</ele>
        <time>2015-01-11T09:30:41.000Z</time>
      </trkpt>
      <trkpt lat="43.42774" lon="5.51798">
        <ele>430.8</ele>
        <time>2015-01-11T09:30:44.000Z</time>
      </trkpt>
      <trkpt lat="43.42779" lon="5.51797">
        <ele>431.2</ele>
        <time>2015-01-11T09:30:47.000Z</time>
      </trkpt>
      <trkpt lat="43.42784" lon="5.51795">
        <ele>431.3</ele>
        <time>2015-01-11T09:30:50.000Z</time>
      </trkpt>
      <trkpt lat="43.42788" lon="5.518">
        <ele>432.1</ele>
        <time>2015-01-11T09:30:56.000Z</time>
      </trkpt>
      <trkpt lat="43.42793" lon="5.51802">
        <ele>432.6</ele>
        <time>2015-01-11T09:31:00.000Z</time>
      </trkpt>
      <trkpt lat="43.42794" lon="5.51796">
        <ele>433.7</ele>
        <time>2015-01-11T09:31:24.000Z</time>
      </trkpt>
      <trkpt lat="43.42794" lon="5.51802">
        <ele>433.9</ele>
        <time>2015-01-11T09:32:25.000Z</time>
      </trkpt>
      <trkpt lat="43.42791" lon="5.51796">
        <ele>433</ele>
        <time>2015-01-11T09:33:36.000Z</time>
      </trkpt>
      <trkpt lat="43.42796" lon="5.51796">
        <ele>433.4</ele>
        <time>2015-01-11T09:34:16.000Z</time>
      </trkpt>
      <trkpt lat="43.428" lon="5.51799">
        <ele>433.7</ele>
        <time>2015-01-11T09:34:30.000Z</time>
      </trkpt>
      <trkpt lat="43.42796" lon="5.51804">
        <ele>435.9</ele>
        <time>2015-01-11T09:35:02.000Z</time>
      </trkpt>
      <trkpt lat="43.42791" lon="5.51804">
        <ele>436.9</ele>
        <time>2015-01-11T09:35:35.000Z</time>
      </trkpt>
      <trkpt lat="43.42796" lon="5.51801">
        <ele>436.2</ele>
        <time>2015-01-11T09:36:14.000Z</time>
      </trkpt>
      <trkpt lat="43.42793" lon="5.51806">
        <ele>436.2</ele>
        <time>2015-01-11T09:36:32.000Z</time>
      </trkpt>
      <trkpt lat="43.42798" lon="5.51804">
        <ele>436.7</ele>
        <time>2015-01-11T09:37:25.000Z</time>
      </trkpt>
      <trkpt lat="43.42803" lon="5.51805">
        <ele>435</ele>
        <time>2015-01-11T09:38:10.000Z</time>
      </trkpt>
      <trkpt lat="43.42809" lon="5.51809">
        <ele>435.1</ele>
        <time>2015-01-11T09:38:14.000Z</time>
      </trkpt>
      <trkpt lat="43.42813" lon="5.51812">
        <ele>435.3</ele>
        <time>2015-01-11T09:38:17.000Z</time>
      </trkpt>
      <trkpt lat="43.42818" lon="5.51817">
        <ele>435.4</ele>
        <time>2015-01-11T09:38:20.000Z</time>
      </trkpt>
      <trkpt lat="43.42822" lon="5.51822">
        <ele>435.5</ele>
        <time>2015-01-11T09:38:22.000Z</time>
      </trkpt>
      <trkpt lat="43.42828" lon="5.51828">
        <ele>435.6</ele>
        <time>2015-01-11T09:38:24.000Z</time>
      </trkpt>
      <trkpt lat="43.42834" lon="5.51834">
        <ele>436.6</ele>
        <time>2015-01-11T09:38:26.000Z</time>
      </trkpt>
      <trkpt lat="43.42838" lon="5.51838">
        <ele>437.3</ele>
        <time>2015-01-11T09:38:27.000Z</time>
      </trkpt>
      <trkpt lat="43.42842" lon="5.51842">
        <ele>437.7</ele>
        <time>2015-01-11T09:38:28.000Z</time>
      </trkpt>
      <trkpt lat="43.42846" lon="5.51847">
        <ele>438</ele>
        <time>2015-01-11T09:38:29.000Z</time>
      </trkpt>
      <trkpt lat="43.42851" lon="5.51852">
        <ele>438.2</ele>
        <time>2015-01-11T09:38:30.000Z</time>
      </trkpt>
      <trkpt lat="43.42856" lon="5.51857">
        <ele>438.5</ele>
        <time>2015-01-11T09:38:31.000Z</time>
      </trkpt>
      <trkpt lat="43.4286" lon="5.51864">
        <ele>438.5</ele>
        <time>2015-01-11T09:38:32.000Z</time>
      </trkpt>
      <trkpt lat="43.42866" lon="5.5187">
        <ele>438.5</ele>
        <time>2015-01-11T09:38:33.000Z</time>
      </trkpt>
      <trkpt lat="43.42872" lon="5.51877">
        <ele>438.5</ele>
        <time>2015-01-11T09:38:34.000Z</time>
      </trkpt>
      <trkpt lat="43.42877" lon="5.51882">
        <ele>438.6</ele>
        <time>2015-01-11T09:38:35.000Z</time>
      </trkpt>
      <trkpt lat="43.42882" lon="5.51888">
        <ele>438.6</ele>
        <time>2015-01-11T09:38:36.000Z</time>
      </trkpt>
      <trkpt lat="43.42888" lon="5.51894">
        <ele>438.6</ele>
        <time>2015-01-11T09:38:37.000Z</time>
      </trkpt>
      <trkpt lat="43.42894" lon="5.51899">
        <ele>438.7</ele>
        <time>2015-01-11T09:38:38.000Z</time>
      </trkpt>
      <trkpt lat="43.42899" lon="5.51905">
        <ele>438.7</ele>
        <time>2015-01-11T09:38:39.000Z</time>
      </trkpt>
      <trkpt lat="43.42904" lon="5.5191">
        <ele>438.7</ele>
        <time>2015-01-11T09:38:40.000Z</time>
      </trkpt>
      <trkpt lat="43.42909" lon="5.51915">
        <ele>438.6</ele>
        <time>2015-01-11T09:38:41.000Z</time>
      </trkpt>
      <trkpt lat="43.42914" lon="5.5192">
        <ele>438.5</ele>
        <time>2015-01-11T09:38:42.000Z</time>
      </trkpt>
      <trkpt lat="43.42919" lon="5.51925">
        <ele>437.9</ele>
        <time>2015-01-11T09:38:43.000Z</time>
      </trkpt>
      <trkpt lat="43.42924" lon="5.5193">
        <ele>437.2</ele>
        <time>2015-01-11T09:38:44.000Z</time>
      </trkpt>
      <trkpt lat="43.42928" lon="5.51934">
        <ele>436.2</ele>
        <time>2015-01-11T09:38:45.000Z</time>
      </trkpt>
      <trkpt lat="43.42932" lon="5.51938">
        <ele>435.5</ele>
        <time>2015-01-11T09:38:46.000Z</time>
      </trkpt>
      <trkpt lat="43.42936" lon="5.51941">
        <ele>435.4</ele>
        <time>2015-01-11T09:38:47.000Z</time>
      </trkpt>
      <trkpt lat="43.4294" lon="5.51946">
        <ele>435.6</ele>
        <time>2015-01-11T09:38:48.000Z</time>
      </trkpt>
      <trkpt lat="43.42945" lon="5.51951">
        <ele>435.7</ele>
        <time>2015-01-11T09:38:49.000Z</time>
      </trkpt>
      <trkpt lat="43.4295" lon="5.51956">
        <ele>435.8</ele>
        <time>2015-01-11T09:38:50.000Z</time>
      </trkpt>
      <trkpt lat="43.42954" lon="5.5196">
        <ele>435.7</ele>
        <time>2015-01-11T09:38:51.000Z</time>
      </trkpt>
      <trkpt lat="43.42959" lon="5.51963">
        <ele>435.4</ele>
        <time>2015-01-11T09:38:52.000Z</time>
      </trkpt>
      <trkpt lat="43.42963" lon="5.51966">
        <ele>434.7</ele>
        <time>2015-01-11T09:38:53.000Z</time>
      </trkpt>
      <trkpt lat="43.42967" lon="5.51969">
        <ele>434.7</ele>
        <time>2015-01-11T09:38:54.000Z</time>
      </trkpt>
      <trkpt lat="43.42975" lon="5.51976">
        <ele>433.7</ele>
        <time>2015-01-11T09:38:56.000Z</time>
      </trkpt>
      <trkpt lat="43.42979" lon="5.5198">
        <ele>433.2</ele>
        <time>2015-01-11T09:38:57.000Z</time>
      </trkpt>
      <trkpt lat="43.42983" lon="5.51984">
        <ele>433</ele>
        <time>2015-01-11T09:38:58.000Z</time>
      </trkpt>
      <trkpt lat="43.42988" lon="5.51988">
        <ele>432.7</ele>
        <time>2015-01-11T09:38:59.000Z</time>
      </trkpt>
      <trkpt lat="43.42993" lon="5.51992">
        <ele>432.1</ele>
        <time>2015-01-11T09:39:00.000Z</time>
      </trkpt>
      <trkpt lat="43.42999" lon="5.51996">
        <ele>432.2</ele>
        <time>2015-01-11T09:39:01.000Z</time>
      </trkpt>
      <trkpt lat="43.43006" lon="5.51998">
        <ele>432.1</ele>
        <time>2015-01-11T09:39:03.000Z</time>
      </trkpt>
      <trkpt lat="43.43012" lon="5.52002">
        <ele>432.1</ele>
        <time>2015-01-11T09:39:05.000Z</time>
      </trkpt>
      <trkpt lat="43.43018" lon="5.52006">
        <ele>432.2</ele>
        <time>2015-01-11T09:39:07.000Z</time>
      </trkpt>
      <trkpt lat="43.43022" lon="5.52009">
        <ele>432.6</ele>
        <time>2015-01-11T09:39:08.000Z</time>
      </trkpt>
      <trkpt lat="43.43026" lon="5.52012">
        <ele>432.9</ele>
        <time>2015-01-11T09:39:09.000Z</time>
      </trkpt>
      <trkpt lat="43.4303" lon="5.52016">
        <ele>433.5</ele>
        <time>2015-01-11T09:39:10.000Z</time>
      </trkpt>
      <trkpt lat="43.43034" lon="5.5202">
        <ele>434.3</ele>
        <time>2015-01-11T09:39:11.000Z</time>
      </trkpt>
      <trkpt lat="43.43039" lon="5.52025">
        <ele>434.7</ele>
        <time>2015-01-11T09:39:12.000Z</time>
      </trkpt>
      <trkpt lat="43.43043" lon="5.52028">
        <ele>435.3</ele>
        <time>2015-01-11T09:39:13.000Z</time>
      </trkpt>
      <trkpt lat="43.4305" lon="5.52035">
        <ele>436.2</ele>
        <time>2015-01-11T09:39:15.000Z</time>
      </trkpt>
      <trkpt lat="43.43056" lon="5.5204">
        <ele>436.4</ele>
        <time>2015-01-11T09:39:17.000Z</time>
      </trkpt>
      <trkpt lat="43.43062" lon="5.5205">
        <ele>437.5</ele>
        <time>2015-01-11T09:39:19.000Z</time>
      </trkpt>
      <trkpt lat="43.43067" lon="5.52056">
        <ele>437.3</ele>
        <time>2015-01-11T09:39:20.000Z</time>
      </trkpt>
      <trkpt lat="43.43073" lon="5.5206">
        <ele>436.6</ele>
        <time>2015-01-11T09:39:21.000Z</time>
      </trkpt>
      <trkpt lat="43.43078" lon="5.52064">
        <ele>436</ele>
        <time>2015-01-11T09:39:22.000Z</time>
      </trkpt>
      <trkpt lat="43.43083" lon="5.52068">
        <ele>435.8</ele>
        <time>2015-01-11T09:39:23.000Z</time>
      </trkpt>
      <trkpt lat="43.4309" lon="5.52074">
        <ele>435.2</ele>
        <time>2015-01-11T09:39:24.000Z</time>
      </trkpt>
      <trkpt lat="43.43095" lon="5.5208">
        <ele>435.1</ele>
        <time>2015-01-11T09:39:25.000Z</time>
      </trkpt>
      <trkpt lat="43.43101" lon="5.52087">
        <ele>434.5</ele>
        <time>2015-01-11T09:39:26.000Z</time>
      </trkpt>
      <trkpt lat="43.43107" lon="5.52094">
        <ele>434</ele>
        <time>2015-01-11T09:39:27.000Z</time>
      </trkpt>
      <trkpt lat="43.43111" lon="5.521">
        <ele>433.4</ele>
        <time>2015-01-11T09:39:28.000Z</time>
      </trkpt>
      <trkpt lat="43.43116" lon="5.52107">
        <ele>433</ele>
        <time>2015-01-11T09:39:29.000Z</time>
      </trkpt>
      <trkpt lat="43.43122" lon="5.52114">
        <ele>432.9</ele>
        <time>2015-01-11T09:39:30.000Z</time>
      </trkpt>
      <trkpt lat="43.43127" lon="5.5212">
        <ele>433.4</ele>
        <time>2015-01-11T09:39:31.000Z</time>
      </trkpt>
      <trkpt lat="43.43131" lon="5.52127">
        <ele>434</ele>
        <time>2015-01-11T09:39:32.000Z</time>
      </trkpt>
      <trkpt lat="43.43136" lon="5.52133">
        <ele>434.1</ele>
        <time>2015-01-11T09:39:33.000Z</time>
      </trkpt>
      <trkpt lat="43.43142" lon="5.52141">
        <ele>433.8</ele>
        <time>2015-01-11T09:39:34.000Z</time>
      </trkpt>
      <trkpt lat="43.43148" lon="5.52149">
        <ele>433.9</ele>
        <time>2015-01-11T09:39:35.000Z</time>
      </trkpt>
      <trkpt lat="43.43153" lon="5.52156">
        <ele>433.7</ele>
        <time>2015-01-11T09:39:36.000Z</time>
      </trkpt>
      <trkpt lat="43.43159" lon="5.52164">
        <ele>432.7</ele>
        <time>2015-01-11T09:39:37.000Z</time>
      </trkpt>
      <trkpt lat="43.43164" lon="5.5217">
        <ele>432.3</ele>
        <time>2015-01-11T09:39:38.000Z</time>
      </trkpt>
      <trkpt lat="43.43169" lon="5.52176">
        <ele>432.3</ele>
        <time>2015-01-11T09:39:39.000Z</time>
      </trkpt>
      <trkpt lat="43.43173" lon="5.5218">
        <ele>432</ele>
        <time>2015-01-11T09:39:40.000Z</time>
      </trkpt>
      <trkpt lat="43.43176" lon="5.52183">
        <ele>431.8</ele>
        <time>2015-01-11T09:39:41.000Z</time>
      </trkpt>
      <trkpt lat="43.4318" lon="5.52186">
        <ele>431.3</ele>
        <time>2015-01-11T09:39:42.000Z</time>
      </trkpt>
      <trkpt lat="43.43185" lon="5.5219">
        <ele>430.7</ele>
        <time>2015-01-11T09:39:43.000Z</time>
      </trkpt>
      <trkpt lat="43.4319" lon="5.52193">
        <ele>430.6</ele>
        <time>2015-01-11T09:39:45.000Z</time>
      </trkpt>
      <trkpt lat="43.43194" lon="5.52196">
        <ele>430.6</ele>
        <time>2015-01-11T09:39:46.000Z</time>
      </trkpt>
      <trkpt lat="43.43199" lon="5.52199">
        <ele>431.1</ele>
        <time>2015-01-11T09:39:47.000Z</time>
      </trkpt>
      <trkpt lat="43.43205" lon="5.52202">
        <ele>431.1</ele>
        <time>2015-01-11T09:39:49.000Z</time>
      </trkpt>
      <trkpt lat="43.43212" lon="5.52205">
        <ele>431.2</ele>
        <time>2015-01-11T09:39:51.000Z</time>
      </trkpt>
      <trkpt lat="43.43219" lon="5.52206">
        <ele>431.2</ele>
        <time>2015-01-11T09:39:53.000Z</time>
      </trkpt>
      <trkpt lat="43.43227" lon="5.52207">
        <ele>431</ele>
        <time>2015-01-11T09:39:55.000Z</time>
      </trkpt>
      <trkpt lat="43.43232" lon="5.52209">
        <ele>430.8</ele>
        <time>2015-01-11T09:39:57.000Z</time>
      </trkpt>
      <trkpt lat="43.43237" lon="5.52213">
        <ele>430.5</ele>
        <time>2015-01-11T09:39:59.000Z</time>
      </trkpt>
      <trkpt lat="43.43245" lon="5.52216">
        <ele>430.2</ele>
        <time>2015-01-11T09:40:01.000Z</time>
      </trkpt>
      <trkpt lat="43.4325" lon="5.52218">
        <ele>429.8</ele>
        <time>2015-01-11T09:40:03.000Z</time>
      </trkpt>
      <trkpt lat="43.43256" lon="5.52222">
        <ele>429.4</ele>
        <time>2015-01-11T09:40:05.000Z</time>
      </trkpt>
      <trkpt lat="43.43261" lon="5.52224">
        <ele>429</ele>
        <time>2015-01-11T09:40:07.000Z</time>
      </trkpt>
      <trkpt lat="43.43266" lon="5.52229">
        <ele>428.7</ele>
        <time>2015-01-11T09:40:09.000Z</time>
      </trkpt>
      <trkpt lat="43.43272" lon="5.52234">
        <ele>428.5</ele>
        <time>2015-01-11T09:40:11.000Z</time>
      </trkpt>
      <trkpt lat="43.43277" lon="5.52236">
        <ele>428.3</ele>
        <time>2015-01-11T09:40:13.000Z</time>
      </trkpt>
      <trkpt lat="43.43281" lon="5.52242">
        <ele>428</ele>
        <time>2015-01-11T09:40:16.000Z</time>
      </trkpt>
      <trkpt lat="43.43287" lon="5.52246">
        <ele>427.6</ele>
        <time>2015-01-11T09:40:18.000Z</time>
      </trkpt>
      <trkpt lat="43.43293" lon="5.5225">
        <ele>427.4</ele>
        <time>2015-01-11T09:40:20.000Z</time>
      </trkpt>
      <trkpt lat="43.43299" lon="5.52249">
        <ele>427.2</ele>
        <time>2015-01-11T09:40:22.000Z</time>
      </trkpt>
      <trkpt lat="43.43304" lon="5.52252">
        <ele>426.9</ele>
        <time>2015-01-11T09:40:24.000Z</time>
      </trkpt>
      <trkpt lat="43.43311" lon="5.52255">
        <ele>426.4</ele>
        <time>2015-01-11T09:40:26.000Z</time>
      </trkpt>
      <trkpt lat="43.43316" lon="5.5226">
        <ele>426</ele>
        <time>2015-01-11T09:40:28.000Z</time>
      </trkpt>
      <trkpt lat="43.43322" lon="5.52266">
        <ele>425.6</ele>
        <time>2015-01-11T09:40:30.000Z</time>
      </trkpt>
      <trkpt lat="43.43327" lon="5.5227">
        <ele>425.2</ele>
        <time>2015-01-11T09:40:32.000Z</time>
      </trkpt>
      <trkpt lat="43.43332" lon="5.52272">
        <ele>424.8</ele>
        <time>2015-01-11T09:40:34.000Z</time>
      </trkpt>
      <trkpt lat="43.43337" lon="5.52276">
        <ele>424.4</ele>
        <time>2015-01-11T09:40:36.000Z</time>
      </trkpt>
      <trkpt lat="43.43342" lon="5.52279">
        <ele>423.9</ele>
        <time>2015-01-11T09:40:38.000Z</time>
      </trkpt>
      <trkpt lat="43.43346" lon="5.52282">
        <ele>423.3</ele>
        <time>2015-01-11T09:40:40.000Z</time>
      </trkpt>
      <trkpt lat="43.4335" lon="5.52287">
        <ele>422.7</ele>
        <time>2015-01-11T09:40:42.000Z</time>
      </trkpt>
      <trkpt lat="43.43354" lon="5.52291">
        <ele>422</ele>
        <time>2015-01-11T09:40:44.000Z</time>
      </trkpt>
      <trkpt lat="43.43358" lon="5.52297">
        <ele>421.3</ele>
        <time>2015-01-11T09:40:46.000Z</time>
      </trkpt>
      <trkpt lat="43.43364" lon="5.52302">
        <ele>420.6</ele>
        <time>2015-01-11T09:40:48.000Z</time>
      </trkpt>
      <trkpt lat="43.43369" lon="5.52307">
        <ele>419.9</ele>
        <time>2015-01-11T09:40:50.000Z</time>
      </trkpt>
      <trkpt lat="43.43373" lon="5.52316">
        <ele>419.2</ele>
        <time>2015-01-11T09:40:52.000Z</time>
      </trkpt>
      <trkpt lat="43.43376" lon="5.52321">
        <ele>418.9</ele>
        <time>2015-01-11T09:40:53.000Z</time>
      </trkpt>
      <trkpt lat="43.4338" lon="5.52326">
        <ele>416</ele>
        <time>2015-01-11T09:40:54.000Z</time>
      </trkpt>
      <trkpt lat="43.43385" lon="5.52333">
        <ele>415.6</ele>
        <time>2015-01-11T09:40:56.000Z</time>
      </trkpt>
      <trkpt lat="43.43387" lon="5.5234">
        <ele>415.2</ele>
        <time>2015-01-11T09:40:58.000Z</time>
      </trkpt>
      <trkpt lat="43.43394" lon="5.52346">
        <ele>412.3</ele>
        <time>2015-01-11T09:41:00.000Z</time>
      </trkpt>
      <trkpt lat="43.43397" lon="5.5235">
        <ele>410</ele>
        <time>2015-01-11T09:41:01.000Z</time>
      </trkpt>
      <trkpt lat="43.43401" lon="5.52355">
        <ele>408.1</ele>
        <time>2015-01-11T09:41:02.000Z</time>
      </trkpt>
      <trkpt lat="43.43405" lon="5.52358">
        <ele>407</ele>
        <time>2015-01-11T09:41:03.000Z</time>
      </trkpt>
      <trkpt lat="43.43409" lon="5.52363">
        <ele>406.9</ele>
        <time>2015-01-11T09:41:05.000Z</time>
      </trkpt>
      <trkpt lat="43.43413" lon="5.5237">
        <ele>406.7</ele>
        <time>2015-01-11T09:41:07.000Z</time>
      </trkpt>
      <trkpt lat="43.43414" lon="5.52377">
        <ele>406.4</ele>
        <time>2015-01-11T09:41:10.000Z</time>
      </trkpt>
      <trkpt lat="43.43419" lon="5.5238">
        <ele>406.3</ele>
        <time>2015-01-11T09:41:14.000Z</time>
      </trkpt>
      <trkpt lat="43.43424" lon="5.52379">
        <ele>406.2</ele>
        <time>2015-01-11T09:41:16.000Z</time>
      </trkpt>
      <trkpt lat="43.43434" lon="5.52376">
        <ele>405.7</ele>
        <time>2015-01-11T09:41:22.000Z</time>
      </trkpt>
      <trkpt lat="43.43439" lon="5.5237">
        <ele>405.5</ele>
        <time>2015-01-11T09:41:25.000Z</time>
      </trkpt>
      <trkpt lat="43.43443" lon="5.5236">
        <ele>405.3</ele>
        <time>2015-01-11T09:41:27.000Z</time>
      </trkpt>
      <trkpt lat="43.43452" lon="5.52354">
        <ele>405.2</ele>
        <time>2015-01-11T09:41:30.000Z</time>
      </trkpt>
      <trkpt lat="43.43457" lon="5.52346">
        <ele>405.1</ele>
        <time>2015-01-11T09:41:32.000Z</time>
      </trkpt>
      <trkpt lat="43.43464" lon="5.52338">
        <ele>405</ele>
        <time>2015-01-11T09:41:34.000Z</time>
      </trkpt>
      <trkpt lat="43.43469" lon="5.52331">
        <ele>404.9</ele>
        <time>2015-01-11T09:41:36.000Z</time>
      </trkpt>
      <trkpt lat="43.43473" lon="5.52324">
        <ele>404.7</ele>
        <time>2015-01-11T09:41:38.000Z</time>
      </trkpt>
      <trkpt lat="43.43476" lon="5.52319">
        <ele>404.5</ele>
        <time>2015-01-11T09:41:40.000Z</time>
      </trkpt>
      <trkpt lat="43.43479" lon="5.52314">
        <ele>404.1</ele>
        <time>2015-01-11T09:41:43.000Z</time>
      </trkpt>
      <trkpt lat="43.43483" lon="5.52311">
        <ele>403.9</ele>
        <time>2015-01-11T09:41:45.000Z</time>
      </trkpt>
      <trkpt lat="43.43488" lon="5.52307">
        <ele>403.8</ele>
        <time>2015-01-11T09:41:47.000Z</time>
      </trkpt>
      <trkpt lat="43.43494" lon="5.52303">
        <ele>403.7</ele>
        <time>2015-01-11T09:41:49.000Z</time>
      </trkpt>
      <trkpt lat="43.435" lon="5.52301">
        <ele>403.5</ele>
        <time>2015-01-11T09:41:51.000Z</time>
      </trkpt>
      <trkpt lat="43.43505" lon="5.523">
        <ele>403.3</ele>
        <time>2015-01-11T09:41:54.000Z</time>
      </trkpt>
      <trkpt lat="43.43511" lon="5.523">
        <ele>403.2</ele>
        <time>2015-01-11T09:41:57.000Z</time>
      </trkpt>
      <trkpt lat="43.43516" lon="5.52298">
        <ele>403.1</ele>
        <time>2015-01-11T09:42:01.000Z</time>
      </trkpt>
      <trkpt lat="43.43521" lon="5.52296">
        <ele>403.1</ele>
        <time>2015-01-11T09:42:07.000Z</time>
      </trkpt>
      <trkpt lat="43.43524" lon="5.5229">
        <ele>403</ele>
        <time>2015-01-11T09:42:09.000Z</time>
      </trkpt>
      <trkpt lat="43.43527" lon="5.52285">
        <ele>403.1</ele>
        <time>2015-01-11T09:42:11.000Z</time>
      </trkpt>
      <trkpt lat="43.43532" lon="5.52281">
        <ele>403.2</ele>
        <time>2015-01-11T09:42:14.000Z</time>
      </trkpt>
      <trkpt lat="43.43536" lon="5.52278">
        <ele>403.3</ele>
        <time>2015-01-11T09:42:17.000Z</time>
      </trkpt>
      <trkpt lat="43.4354" lon="5.52272">
        <ele>403.3</ele>
        <time>2015-01-11T09:42:23.000Z</time>
      </trkpt>
      <trkpt lat="43.4354" lon="5.52272">
        <ele>403.3</ele>
        <time>2015-01-11T09:42:23.000Z</time>
      </trkpt>
      <trkpt lat="43.4354" lon="5.52272">
        <ele>402</ele>
        <time>2015-01-11T09:44:39.000Z</time>
      </trkpt>
      <trkpt lat="43.43541" lon="5.52265">
        <ele>402</ele>
        <time>2015-01-11T09:44:40.000Z</time>
      </trkpt>
      <trkpt lat="43.43541" lon="5.52271">
        <ele>403.9</ele>
        <time>2015-01-11T09:45:58.000Z</time>
      </trkpt>
      <trkpt lat="43.43542" lon="5.52278">
        <ele>403.7</ele>
        <time>2015-01-11T09:46:03.000Z</time>
      </trkpt>
      <trkpt lat="43.43542" lon="5.52285">
        <ele>403.6</ele>
        <time>2015-01-11T09:46:05.000Z</time>
      </trkpt>
      <trkpt lat="43.43543" lon="5.52293">
        <ele>403.6</ele>
        <time>2015-01-11T09:46:07.000Z</time>
      </trkpt>
      <trkpt lat="43.43544" lon="5.52302">
        <ele>403.6</ele>
        <time>2015-01-11T09:46:10.000Z</time>
      </trkpt>
      <trkpt lat="43.43544" lon="5.5231">
        <ele>403.4</ele>
        <time>2015-01-11T09:46:13.000Z</time>
      </trkpt>
      <trkpt lat="43.43545" lon="5.52318">
        <ele>403.3</ele>
        <time>2015-01-11T09:46:16.000Z</time>
      </trkpt>
      <trkpt lat="43.43545" lon="5.52325">
        <ele>403</ele>
        <time>2015-01-11T09:46:20.000Z</time>
      </trkpt>
      <trkpt lat="43.43544" lon="5.52332">
        <ele>402.9</ele>
        <time>2015-01-11T09:46:23.000Z</time>
      </trkpt>
      <trkpt lat="43.43545" lon="5.5234">
        <ele>403</ele>
        <time>2015-01-11T09:46:26.000Z</time>
      </trkpt>
      <trkpt lat="43.43546" lon="5.52348">
        <ele>403.1</ele>
        <time>2015-01-11T09:46:29.000Z</time>
      </trkpt>
      <trkpt lat="43.43545" lon="5.52356">
        <ele>403.2</ele>
        <time>2015-01-11T09:46:31.000Z</time>
      </trkpt>
      <trkpt lat="43.43545" lon="5.52363">
        <ele>403.5</ele>
        <time>2015-01-11T09:46:33.000Z</time>
      </trkpt>
      <trkpt lat="43.43544" lon="5.5237">
        <ele>404.1</ele>
        <time>2015-01-11T09:46:36.000Z</time>
      </trkpt>
      <trkpt lat="43.43544" lon="5.52379">
        <ele>404.5</ele>
        <time>2015-01-11T09:46:39.000Z</time>
      </trkpt>
      <trkpt lat="43.43544" lon="5.52387">
        <ele>404.8</ele>
        <time>2015-01-11T09:46:42.000Z</time>
      </trkpt>
      <trkpt lat="43.43544" lon="5.52394">
        <ele>405.1</ele>
        <time>2015-01-11T09:46:45.000Z</time>
      </trkpt>
      <trkpt lat="43.43541" lon="5.52402">
        <ele>405.3</ele>
        <time>2015-01-11T09:46:48.000Z</time>
      </trkpt>
      <trkpt lat="43.43539" lon="5.52408">
        <ele>405.6</ele>
        <time>2015-01-11T09:46:51.000Z</time>
      </trkpt>
      <trkpt lat="43.43537" lon="5.52414">
        <ele>405.9</ele>
        <time>2015-01-11T09:46:53.000Z</time>
      </trkpt>
      <trkpt lat="43.43536" lon="5.52422">
        <ele>406.1</ele>
        <time>2015-01-11T09:46:55.000Z</time>
      </trkpt>
      <trkpt lat="43.43535" lon="5.52429">
        <ele>406.2</ele>
        <time>2015-01-11T09:46:57.000Z</time>
      </trkpt>
      <trkpt lat="43.43533" lon="5.52438">
        <ele>406.3</ele>
        <time>2015-01-11T09:47:00.000Z</time>
      </trkpt>
      <trkpt lat="43.4353" lon="5.52447">
        <ele>406.5</ele>
        <time>2015-01-11T09:47:03.000Z</time>
      </trkpt>
      <trkpt lat="43.43528" lon="5.52454">
        <ele>406.6</ele>
        <time>2015-01-11T09:47:05.000Z</time>
      </trkpt>
      <trkpt lat="43.43527" lon="5.5246">
        <ele>406.8</ele>
        <time>2015-01-11T09:47:07.000Z</time>
      </trkpt>
      <trkpt lat="43.43525" lon="5.52468">
        <ele>407.4</ele>
        <time>2015-01-11T09:47:10.000Z</time>
      </trkpt>
      <trkpt lat="43.43524" lon="5.52474">
        <ele>407.8</ele>
        <time>2015-01-11T09:47:12.000Z</time>
      </trkpt>
      <trkpt lat="43.43524" lon="5.5248">
        <ele>408.2</ele>
        <time>2015-01-11T09:47:14.000Z</time>
      </trkpt>
      <trkpt lat="43.43524" lon="5.52488">
        <ele>409</ele>
        <time>2015-01-11T09:47:17.000Z</time>
      </trkpt>
      <trkpt lat="43.43524" lon="5.52496">
        <ele>409.9</ele>
        <time>2015-01-11T09:47:20.000Z</time>
      </trkpt>
      <trkpt lat="43.43523" lon="5.52504">
        <ele>410.8</ele>
        <time>2015-01-11T09:47:23.000Z</time>
      </trkpt>
      <trkpt lat="43.43522" lon="5.52512">
        <ele>411.7</ele>
        <time>2015-01-11T09:47:26.000Z</time>
      </trkpt>
      <trkpt lat="43.43523" lon="5.5252">
        <ele>413</ele>
        <time>2015-01-11T09:47:30.000Z</time>
      </trkpt>
      <trkpt lat="43.43524" lon="5.52528">
        <ele>413.8</ele>
        <time>2015-01-11T09:47:33.000Z</time>
      </trkpt>
      <trkpt lat="43.43525" lon="5.52535">
        <ele>414.6</ele>
        <time>2015-01-11T09:47:36.000Z</time>
      </trkpt>
      <trkpt lat="43.43527" lon="5.52542">
        <ele>415</ele>
        <time>2015-01-11T09:47:38.000Z</time>
      </trkpt>
      <trkpt lat="43.43528" lon="5.5255">
        <ele>415.6</ele>
        <time>2015-01-11T09:47:41.000Z</time>
      </trkpt>
      <trkpt lat="43.4353" lon="5.52556">
        <ele>416</ele>
        <time>2015-01-11T09:47:43.000Z</time>
      </trkpt>
      <trkpt lat="43.43533" lon="5.52564">
        <ele>416.5</ele>
        <time>2015-01-11T09:47:46.000Z</time>
      </trkpt>
      <trkpt lat="43.43536" lon="5.52572">
        <ele>416.9</ele>
        <time>2015-01-11T09:47:49.000Z</time>
      </trkpt>
      <trkpt lat="43.43538" lon="5.52577">
        <ele>417.3</ele>
        <time>2015-01-11T09:47:51.000Z</time>
      </trkpt>
      <trkpt lat="43.43542" lon="5.52585">
        <ele>417.6</ele>
        <time>2015-01-11T09:47:54.000Z</time>
      </trkpt>
      <trkpt lat="43.43546" lon="5.52592">
        <ele>417.6</ele>
        <time>2015-01-11T09:47:56.000Z</time>
      </trkpt>
      <trkpt lat="43.4355" lon="5.52599">
        <ele>417.7</ele>
        <time>2015-01-11T09:47:58.000Z</time>
      </trkpt>
      <trkpt lat="43.43553" lon="5.52605">
        <ele>417.5</ele>
        <time>2015-01-11T09:48:01.000Z</time>
      </trkpt>
      <trkpt lat="43.43557" lon="5.52608">
        <ele>417.6</ele>
        <time>2015-01-11T09:48:04.000Z</time>
      </trkpt>
      <trkpt lat="43.43562" lon="5.52611">
        <ele>417.7</ele>
        <time>2015-01-11T09:48:07.000Z</time>
      </trkpt>
      <trkpt lat="43.43568" lon="5.52615">
        <ele>417.7</ele>
        <time>2015-01-11T09:48:10.000Z</time>
      </trkpt>
      <trkpt lat="43.43573" lon="5.52619">
        <ele>418</ele>
        <time>2015-01-11T09:48:13.000Z</time>
      </trkpt>
      <trkpt lat="43.43578" lon="5.52619">
        <ele>419.1</ele>
        <time>2015-01-11T09:48:24.000Z</time>
      </trkpt>
      <trkpt lat="43.43582" lon="5.52624">
        <ele>418.6</ele>
        <time>2015-01-11T09:49:46.000Z</time>
      </trkpt>
      <trkpt lat="43.43585" lon="5.52629">
        <ele>418.5</ele>
        <time>2015-01-11T09:49:49.000Z</time>
      </trkpt>
      <trkpt lat="43.43589" lon="5.52634">
        <ele>418.5</ele>
        <time>2015-01-11T09:49:51.000Z</time>
      </trkpt>
      <trkpt lat="43.43593" lon="5.52641">
        <ele>418.6</ele>
        <time>2015-01-11T09:49:53.000Z</time>
      </trkpt>
      <trkpt lat="43.43597" lon="5.52646">
        <ele>418.7</ele>
        <time>2015-01-11T09:49:55.000Z</time>
      </trkpt>
      <trkpt lat="43.43602" lon="5.52652">
        <ele>419</ele>
        <time>2015-01-11T09:49:57.000Z</time>
      </trkpt>
      <trkpt lat="43.43607" lon="5.52656">
        <ele>419.2</ele>
        <time>2015-01-11T09:49:59.000Z</time>
      </trkpt>
      <trkpt lat="43.43612" lon="5.52662">
        <ele>419.4</ele>
        <time>2015-01-11T09:50:01.000Z</time>
      </trkpt>
      <trkpt lat="43.43617" lon="5.52671">
        <ele>419.5</ele>
        <time>2015-01-11T09:50:03.000Z</time>
      </trkpt>
      <trkpt lat="43.43622" lon="5.52679">
        <ele>419.6</ele>
        <time>2015-01-11T09:50:05.000Z</time>
      </trkpt>
      <trkpt lat="43.43625" lon="5.52685">
        <ele>419.6</ele>
        <time>2015-01-11T09:50:06.000Z</time>
      </trkpt>
      <trkpt lat="43.43628" lon="5.5269">
        <ele>419.6</ele>
        <time>2015-01-11T09:50:07.000Z</time>
      </trkpt>
      <trkpt lat="43.43634" lon="5.52698">
        <ele>419.7</ele>
        <time>2015-01-11T09:50:09.000Z</time>
      </trkpt>
      <trkpt lat="43.4364" lon="5.52706">
        <ele>419.8</ele>
        <time>2015-01-11T09:50:11.000Z</time>
      </trkpt>
      <trkpt lat="43.43646" lon="5.52713">
        <ele>419.8</ele>
        <time>2015-01-11T09:50:13.000Z</time>
      </trkpt>
      <trkpt lat="43.43651" lon="5.52719">
        <ele>419.8</ele>
        <time>2015-01-11T09:50:15.000Z</time>
      </trkpt>
      <trkpt lat="43.43656" lon="5.52726">
        <ele>419.9</ele>
        <time>2015-01-11T09:50:17.000Z</time>
      </trkpt>
      <trkpt lat="43.43658" lon="5.52733">
        <ele>420</ele>
        <time>2015-01-11T09:50:21.000Z</time>
      </trkpt>
      <trkpt lat="43.43664" lon="5.52737">
        <ele>420.3</ele>
        <time>2015-01-11T09:50:24.000Z</time>
      </trkpt>
      <trkpt lat="43.43669" lon="5.52742">
        <ele>420.4</ele>
        <time>2015-01-11T09:50:26.000Z</time>
      </trkpt>
      <trkpt lat="43.43672" lon="5.52748">
        <ele>420.2</ele>
        <time>2015-01-11T09:50:27.000Z</time>
      </trkpt>
      <trkpt lat="43.43676" lon="5.52758">
        <ele>420.5</ele>
        <time>2015-01-11T09:50:29.000Z</time>
      </trkpt>
      <trkpt lat="43.4368" lon="5.52763">
        <ele>419.9</ele>
        <time>2015-01-11T09:50:30.000Z</time>
      </trkpt>
      <trkpt lat="43.43684" lon="5.52768">
        <ele>419.7</ele>
        <time>2015-01-11T09:50:31.000Z</time>
      </trkpt>
      <trkpt lat="43.43689" lon="5.52772">
        <ele>419.5</ele>
        <time>2015-01-11T09:50:32.000Z</time>
      </trkpt>
      <trkpt lat="43.43697" lon="5.52777">
        <ele>418.8</ele>
        <time>2015-01-11T09:50:34.000Z</time>
      </trkpt>
      <trkpt lat="43.43704" lon="5.52782">
        <ele>418.6</ele>
        <time>2015-01-11T09:50:36.000Z</time>
      </trkpt>
      <trkpt lat="43.43711" lon="5.52788">
        <ele>418.4</ele>
        <time>2015-01-11T09:50:38.000Z</time>
      </trkpt>
      <trkpt lat="43.43719" lon="5.52792">
        <ele>418.3</ele>
        <time>2015-01-11T09:50:40.000Z</time>
      </trkpt>
      <trkpt lat="43.43725" lon="5.52797">
        <ele>418.5</ele>
        <time>2015-01-11T09:50:42.000Z</time>
      </trkpt>
      <trkpt lat="43.4373" lon="5.52802">
        <ele>418.7</ele>
        <time>2015-01-11T09:50:44.000Z</time>
      </trkpt>
      <trkpt lat="43.43734" lon="5.52805">
        <ele>418.8</ele>
        <time>2015-01-11T09:50:46.000Z</time>
      </trkpt>
      <trkpt lat="43.4374" lon="5.5281">
        <ele>419</ele>
        <time>2015-01-11T09:50:49.000Z</time>
      </trkpt>
      <trkpt lat="43.43744" lon="5.52814">
        <ele>419.1</ele>
        <time>2015-01-11T09:50:51.000Z</time>
      </trkpt>
      <trkpt lat="43.43748" lon="5.5282">
        <ele>419.1</ele>
        <time>2015-01-11T09:50:53.000Z</time>
      </trkpt>
      <trkpt lat="43.43752" lon="5.52824">
        <ele>419.3</ele>
        <time>2015-01-11T09:50:55.000Z</time>
      </trkpt>
      <trkpt lat="43.43758" lon="5.52828">
        <ele>419.4</ele>
        <time>2015-01-11T09:50:57.000Z</time>
      </trkpt>
      <trkpt lat="43.43762" lon="5.52831">
        <ele>419.5</ele>
        <time>2015-01-11T09:50:59.000Z</time>
      </trkpt>
      <trkpt lat="43.43767" lon="5.52835">
        <ele>419.6</ele>
        <time>2015-01-11T09:51:01.000Z</time>
      </trkpt>
      <trkpt lat="43.43772" lon="5.52838">
        <ele>419.7</ele>
        <time>2015-01-11T09:51:03.000Z</time>
      </trkpt>
      <trkpt lat="43.43776" lon="5.52841">
        <ele>419.8</ele>
        <time>2015-01-11T09:51:05.000Z</time>
      </trkpt>
      <trkpt lat="43.43782" lon="5.52844">
        <ele>420.2</ele>
        <time>2015-01-11T09:51:08.000Z</time>
      </trkpt>
      <trkpt lat="43.43786" lon="5.52847">
        <ele>420.5</ele>
        <time>2015-01-11T09:51:10.000Z</time>
      </trkpt>
      <trkpt lat="43.43792" lon="5.5285">
        <ele>420.8</ele>
        <time>2015-01-11T09:51:12.000Z</time>
      </trkpt>
      <trkpt lat="43.43796" lon="5.52852">
        <ele>421.1</ele>
        <time>2015-01-11T09:51:14.000Z</time>
      </trkpt>
      <trkpt lat="43.43801" lon="5.52854">
        <ele>421.4</ele>
        <time>2015-01-11T09:51:16.000Z</time>
      </trkpt>
      <trkpt lat="43.43806" lon="5.52855">
        <ele>421.7</ele>
        <time>2015-01-11T09:51:18.000Z</time>
      </trkpt>
      <trkpt lat="43.4381" lon="5.52856">
        <ele>422</ele>
        <time>2015-01-11T09:51:20.000Z</time>
      </trkpt>
      <trkpt lat="43.43816" lon="5.52856">
        <ele>422.3</ele>
        <time>2015-01-11T09:51:22.000Z</time>
      </trkpt>
      <trkpt lat="43.43821" lon="5.52856">
        <ele>422.6</ele>
        <time>2015-01-11T09:51:24.000Z</time>
      </trkpt>
      <trkpt lat="43.43827" lon="5.52857">
        <ele>422.8</ele>
        <time>2015-01-11T09:51:26.000Z</time>
      </trkpt>
      <trkpt lat="43.43833" lon="5.52859">
        <ele>423</ele>
        <time>2015-01-11T09:51:28.000Z</time>
      </trkpt>
      <trkpt lat="43.43839" lon="5.52861">
        <ele>423.2</ele>
        <time>2015-01-11T09:51:30.000Z</time>
      </trkpt>
      <trkpt lat="43.43846" lon="5.52864">
        <ele>423.4</ele>
        <time>2015-01-11T09:51:32.000Z</time>
      </trkpt>
      <trkpt lat="43.43851" lon="5.52868">
        <ele>423.6</ele>
        <time>2015-01-11T09:51:34.000Z</time>
      </trkpt>
      <trkpt lat="43.43855" lon="5.52871">
        <ele>423.9</ele>
        <time>2015-01-11T09:51:36.000Z</time>
      </trkpt>
      <trkpt lat="43.43861" lon="5.52876">
        <ele>424.1</ele>
        <time>2015-01-11T09:51:38.000Z</time>
      </trkpt>
      <trkpt lat="43.43868" lon="5.52881">
        <ele>424.4</ele>
        <time>2015-01-11T09:51:40.000Z</time>
      </trkpt>
      <trkpt lat="43.43872" lon="5.52884">
        <ele>426</ele>
        <time>2015-01-11T09:51:41.000Z</time>
      </trkpt>
      <trkpt lat="43.43877" lon="5.52887">
        <ele>426.5</ele>
        <time>2015-01-11T09:51:42.000Z</time>
      </trkpt>
      <trkpt lat="43.43881" lon="5.52889">
        <ele>427.4</ele>
        <time>2015-01-11T09:51:43.000Z</time>
      </trkpt>
      <trkpt lat="43.43886" lon="5.52893">
        <ele>428.5</ele>
        <time>2015-01-11T09:51:44.000Z</time>
      </trkpt>
      <trkpt lat="43.4389" lon="5.52896">
        <ele>429</ele>
        <time>2015-01-11T09:51:45.000Z</time>
      </trkpt>
      <trkpt lat="43.43896" lon="5.52899">
        <ele>429.2</ele>
        <time>2015-01-11T09:51:46.000Z</time>
      </trkpt>
      <trkpt lat="43.43901" lon="5.52902">
        <ele>430.2</ele>
        <time>2015-01-11T09:51:47.000Z</time>
      </trkpt>
      <trkpt lat="43.43907" lon="5.52904">
        <ele>430.3</ele>
        <time>2015-01-11T09:51:48.000Z</time>
      </trkpt>
      <trkpt lat="43.43912" lon="5.52906">
        <ele>430.2</ele>
        <time>2015-01-11T09:51:49.000Z</time>
      </trkpt>
      <trkpt lat="43.43918" lon="5.52907">
        <ele>429.7</ele>
        <time>2015-01-11T09:51:50.000Z</time>
      </trkpt>
      <trkpt lat="43.43923" lon="5.52908">
        <ele>429.8</ele>
        <time>2015-01-11T09:51:51.000Z</time>
      </trkpt>
      <trkpt lat="43.43928" lon="5.52909">
        <ele>430</ele>
        <time>2015-01-11T09:51:52.000Z</time>
      </trkpt>
      <trkpt lat="43.43932" lon="5.52911">
        <ele>430.3</ele>
        <time>2015-01-11T09:51:53.000Z</time>
      </trkpt>
      <trkpt lat="43.43937" lon="5.52912">
        <ele>430.2</ele>
        <time>2015-01-11T09:51:54.000Z</time>
      </trkpt>
      <trkpt lat="43.43942" lon="5.52913">
        <ele>430.2</ele>
        <time>2015-01-11T09:51:55.000Z</time>
      </trkpt>
      <trkpt lat="43.43948" lon="5.52912">
        <ele>430.2</ele>
        <time>2015-01-11T09:51:57.000Z</time>
      </trkpt>
      <trkpt lat="43.43953" lon="5.52912">
        <ele>430.1</ele>
        <time>2015-01-11T09:51:59.000Z</time>
      </trkpt>
      <trkpt lat="43.43959" lon="5.52914">
        <ele>430</ele>
        <time>2015-01-11T09:52:02.000Z</time>
      </trkpt>
      <trkpt lat="43.43965" lon="5.52918">
        <ele>430</ele>
        <time>2015-01-11T09:52:04.000Z</time>
      </trkpt>
      <trkpt lat="43.43971" lon="5.52922">
        <ele>429.9</ele>
        <time>2015-01-11T09:52:06.000Z</time>
      </trkpt>
      <trkpt lat="43.43975" lon="5.52924">
        <ele>429.9</ele>
        <time>2015-01-11T09:52:08.000Z</time>
      </trkpt>
      <trkpt lat="43.43975" lon="5.52931">
        <ele>429.6</ele>
        <time>2015-01-11T09:52:12.000Z</time>
      </trkpt>
      <trkpt lat="43.43968" lon="5.5293">
        <ele>429.4</ele>
        <time>2015-01-11T09:52:15.000Z</time>
      </trkpt>
      <trkpt lat="43.43961" lon="5.52928">
        <ele>429.3</ele>
        <time>2015-01-11T09:52:17.000Z</time>
      </trkpt>
      <trkpt lat="43.43952" lon="5.52926">
        <ele>428.3</ele>
        <time>2015-01-11T09:52:19.000Z</time>
      </trkpt>
      <trkpt lat="43.43944" lon="5.52925">
        <ele>427.8</ele>
        <time>2015-01-11T09:52:21.000Z</time>
      </trkpt>
      <trkpt lat="43.43937" lon="5.52925">
        <ele>427.9</ele>
        <time>2015-01-11T09:52:23.000Z</time>
      </trkpt>
      <trkpt lat="43.4393" lon="5.52928">
        <ele>427.9</ele>
        <time>2015-01-11T09:52:25.000Z</time>
      </trkpt>
      <trkpt lat="43.43922" lon="5.52931">
        <ele>427.8</ele>
        <time>2015-01-11T09:52:27.000Z</time>
      </trkpt>
      <trkpt lat="43.43916" lon="5.52936">
        <ele>427.8</ele>
        <time>2015-01-11T09:52:29.000Z</time>
      </trkpt>
      <trkpt lat="43.4391" lon="5.52942">
        <ele>428</ele>
        <time>2015-01-11T09:52:31.000Z</time>
      </trkpt>
      <trkpt lat="43.43904" lon="5.52945">
        <ele>428</ele>
        <time>2015-01-11T09:52:33.000Z</time>
      </trkpt>
      <trkpt lat="43.43898" lon="5.5295">
        <ele>428.2</ele>
        <time>2015-01-11T09:52:35.000Z</time>
      </trkpt>
      <trkpt lat="43.4389" lon="5.52953">
        <ele>428.3</ele>
        <time>2015-01-11T09:52:37.000Z</time>
      </trkpt>
      <trkpt lat="43.43884" lon="5.52956">
        <ele>428.3</ele>
        <time>2015-01-11T09:52:39.000Z</time>
      </trkpt>
      <trkpt lat="43.43878" lon="5.5296">
        <ele>428.5</ele>
        <time>2015-01-11T09:52:41.000Z</time>
      </trkpt>
      <trkpt lat="43.4387" lon="5.52963">
        <ele>428.6</ele>
        <time>2015-01-11T09:52:43.000Z</time>
      </trkpt>
      <trkpt lat="43.43863" lon="5.52966">
        <ele>429</ele>
        <time>2015-01-11T09:52:45.000Z</time>
      </trkpt>
      <trkpt lat="43.43857" lon="5.5297">
        <ele>429.2</ele>
        <time>2015-01-11T09:52:47.000Z</time>
      </trkpt>
      <trkpt lat="43.43852" lon="5.52971">
        <ele>429.2</ele>
        <time>2015-01-11T09:52:49.000Z</time>
      </trkpt>
      <trkpt lat="43.43846" lon="5.52972">
        <ele>429.2</ele>
        <time>2015-01-11T09:52:51.000Z</time>
      </trkpt>
      <trkpt lat="43.43839" lon="5.52971">
        <ele>429.2</ele>
        <time>2015-01-11T09:52:53.000Z</time>
      </trkpt>
      <trkpt lat="43.43832" lon="5.52968">
        <ele>429.2</ele>
        <time>2015-01-11T09:52:55.000Z</time>
      </trkpt>
      <trkpt lat="43.43825" lon="5.52964">
        <ele>429.4</ele>
        <time>2015-01-11T09:52:57.000Z</time>
      </trkpt>
      <trkpt lat="43.43819" lon="5.52962">
        <ele>429.5</ele>
        <time>2015-01-11T09:52:59.000Z</time>
      </trkpt>
      <trkpt lat="43.43813" lon="5.5296">
        <ele>429.7</ele>
        <time>2015-01-11T09:53:01.000Z</time>
      </trkpt>
      <trkpt lat="43.43805" lon="5.52959">
        <ele>430.1</ele>
        <time>2015-01-11T09:53:03.000Z</time>
      </trkpt>
      <trkpt lat="43.43798" lon="5.5296">
        <ele>430.4</ele>
        <time>2015-01-11T09:53:05.000Z</time>
      </trkpt>
      <trkpt lat="43.43789" lon="5.52961">
        <ele>433.1</ele>
        <time>2015-01-11T09:53:07.000Z</time>
      </trkpt>
      <trkpt lat="43.43781" lon="5.52962">
        <ele>435.8</ele>
        <time>2015-01-11T09:53:09.000Z</time>
      </trkpt>
      <trkpt lat="43.43772" lon="5.52965">
        <ele>436</ele>
        <time>2015-01-11T09:53:11.000Z</time>
      </trkpt>
      <trkpt lat="43.43768" lon="5.52966">
        <ele>436.2</ele>
        <time>2015-01-11T09:53:12.000Z</time>
      </trkpt>
      <trkpt lat="43.43759" lon="5.52967">
        <ele>436</ele>
        <time>2015-01-11T09:53:14.000Z</time>
      </trkpt>
      <trkpt lat="43.43754" lon="5.52969">
        <ele>436.4</ele>
        <time>2015-01-11T09:53:15.000Z</time>
      </trkpt>
      <trkpt lat="43.43747" lon="5.52973">
        <ele>436.5</ele>
        <time>2015-01-11T09:53:17.000Z</time>
      </trkpt>
      <trkpt lat="43.43741" lon="5.52976">
        <ele>436.5</ele>
        <time>2015-01-11T09:53:19.000Z</time>
      </trkpt>
      <trkpt lat="43.43735" lon="5.52982">
        <ele>436.4</ele>
        <time>2015-01-11T09:53:21.000Z</time>
      </trkpt>
      <trkpt lat="43.43728" lon="5.52988">
        <ele>436.1</ele>
        <time>2015-01-11T09:53:23.000Z</time>
      </trkpt>
      <trkpt lat="43.43722" lon="5.52993">
        <ele>435.9</ele>
        <time>2015-01-11T09:53:25.000Z</time>
      </trkpt>
      <trkpt lat="43.43715" lon="5.52995">
        <ele>435.8</ele>
        <time>2015-01-11T09:53:27.000Z</time>
      </trkpt>
      <trkpt lat="43.43708" lon="5.52996">
        <ele>435.6</ele>
        <time>2015-01-11T09:53:29.000Z</time>
      </trkpt>
      <trkpt lat="43.43701" lon="5.52996">
        <ele>435.5</ele>
        <time>2015-01-11T09:53:31.000Z</time>
      </trkpt>
      <trkpt lat="43.43694" lon="5.52996">
        <ele>435.5</ele>
        <time>2015-01-11T09:53:33.000Z</time>
      </trkpt>
      <trkpt lat="43.43687" lon="5.52996">
        <ele>435.5</ele>
        <time>2015-01-11T09:53:35.000Z</time>
      </trkpt>
      <trkpt lat="43.43678" lon="5.52996">
        <ele>435.4</ele>
        <time>2015-01-11T09:53:37.000Z</time>
      </trkpt>
      <trkpt lat="43.4367" lon="5.52993">
        <ele>435.5</ele>
        <time>2015-01-11T09:53:39.000Z</time>
      </trkpt>
      <trkpt lat="43.43663" lon="5.5299">
        <ele>435.3</ele>
        <time>2015-01-11T09:53:41.000Z</time>
      </trkpt>
      <trkpt lat="43.43659" lon="5.52988">
        <ele>435.3</ele>
        <time>2015-01-11T09:53:42.000Z</time>
      </trkpt>
      <trkpt lat="43.4365" lon="5.52986">
        <ele>435.2</ele>
        <time>2015-01-11T09:53:44.000Z</time>
      </trkpt>
      <trkpt lat="43.43645" lon="5.52984">
        <ele>434.3</ele>
        <time>2015-01-11T09:53:45.000Z</time>
      </trkpt>
      <trkpt lat="43.4364" lon="5.52983">
        <ele>433.3</ele>
        <time>2015-01-11T09:53:46.000Z</time>
      </trkpt>
      <trkpt lat="43.43634" lon="5.52981">
        <ele>432.8</ele>
        <time>2015-01-11T09:53:47.000Z</time>
      </trkpt>
      <trkpt lat="43.43628" lon="5.52979">
        <ele>432.8</ele>
        <time>2015-01-11T09:53:48.000Z</time>
      </trkpt>
      <trkpt lat="43.43622" lon="5.52976">
        <ele>432.6</ele>
        <time>2015-01-11T09:53:49.000Z</time>
      </trkpt>
      <trkpt lat="43.43617" lon="5.52975">
        <ele>432.3</ele>
        <time>2015-01-11T09:53:50.000Z</time>
      </trkpt>
      <trkpt lat="43.43612" lon="5.52973">
        <ele>432.3</ele>
        <time>2015-01-11T09:53:51.000Z</time>
      </trkpt>
      <trkpt lat="43.43607" lon="5.52972">
        <ele>432.3</ele>
        <time>2015-01-11T09:53:52.000Z</time>
      </trkpt>
      <trkpt lat="43.43602" lon="5.52971">
        <ele>432.1</ele>
        <time>2015-01-11T09:53:53.000Z</time>
      </trkpt>
      <trkpt lat="43.43597" lon="5.5297">
        <ele>432.1</ele>
        <time>2015-01-11T09:53:54.000Z</time>
      </trkpt>
      <trkpt lat="43.43591" lon="5.52969">
        <ele>432.4</ele>
        <time>2015-01-11T09:53:55.000Z</time>
      </trkpt>
      <trkpt lat="43.43585" lon="5.52967">
        <ele>433.3</ele>
        <time>2015-01-11T09:53:56.000Z</time>
      </trkpt>
      <trkpt lat="43.4358" lon="5.52967">
        <ele>433.4</ele>
        <time>2015-01-11T09:53:57.000Z</time>
      </trkpt>
      <trkpt lat="43.43571" lon="5.52967">
        <ele>434.3</ele>
        <time>2015-01-11T09:53:59.000Z</time>
      </trkpt>
      <trkpt lat="43.43562" lon="5.52969">
        <ele>434.3</ele>
        <time>2015-01-11T09:54:01.000Z</time>
      </trkpt>
      <trkpt lat="43.43557" lon="5.52971">
        <ele>434.4</ele>
        <time>2015-01-11T09:54:02.000Z</time>
      </trkpt>
      <trkpt lat="43.43552" lon="5.52972">
        <ele>434.3</ele>
        <time>2015-01-11T09:54:03.000Z</time>
      </trkpt>
      <trkpt lat="43.43544" lon="5.52975">
        <ele>434.2</ele>
        <time>2015-01-11T09:54:05.000Z</time>
      </trkpt>
      <trkpt lat="43.43538" lon="5.52978">
        <ele>434.6</ele>
        <time>2015-01-11T09:54:07.000Z</time>
      </trkpt>
      <trkpt lat="43.43529" lon="5.52983">
        <ele>434.7</ele>
        <time>2015-01-11T09:54:09.000Z</time>
      </trkpt>
      <trkpt lat="43.43521" lon="5.52988">
        <ele>435.4</ele>
        <time>2015-01-11T09:54:11.000Z</time>
      </trkpt>
      <trkpt lat="43.43517" lon="5.52992">
        <ele>435.8</ele>
        <time>2015-01-11T09:54:12.000Z</time>
      </trkpt>
      <trkpt lat="43.43512" lon="5.52995">
        <ele>435.8</ele>
        <time>2015-01-11T09:54:13.000Z</time>
      </trkpt>
      <trkpt lat="43.43504" lon="5.52998">
        <ele>435.8</ele>
        <time>2015-01-11T09:54:15.000Z</time>
      </trkpt>
      <trkpt lat="43.43499" lon="5.53">
        <ele>435.9</ele>
        <time>2015-01-11T09:54:16.000Z</time>
      </trkpt>
      <trkpt lat="43.43494" lon="5.53003">
        <ele>435.9</ele>
        <time>2015-01-11T09:54:17.000Z</time>
      </trkpt>
      <trkpt lat="43.43489" lon="5.53005">
        <ele>435.2</ele>
        <time>2015-01-11T09:54:18.000Z</time>
      </trkpt>
      <trkpt lat="43.43481" lon="5.53008">
        <ele>433.8</ele>
        <time>2015-01-11T09:54:20.000Z</time>
      </trkpt>
      <trkpt lat="43.43473" lon="5.53011">
        <ele>433.4</ele>
        <time>2015-01-11T09:54:22.000Z</time>
      </trkpt>
      <trkpt lat="43.43466" lon="5.53015">
        <ele>433.4</ele>
        <time>2015-01-11T09:54:24.000Z</time>
      </trkpt>
      <trkpt lat="43.4346" lon="5.53019">
        <ele>433.5</ele>
        <time>2015-01-11T09:54:26.000Z</time>
      </trkpt>
      <trkpt lat="43.43455" lon="5.53023">
        <ele>433.5</ele>
        <time>2015-01-11T09:54:28.000Z</time>
      </trkpt>
      <trkpt lat="43.4345" lon="5.53025">
        <ele>433.7</ele>
        <time>2015-01-11T09:54:30.000Z</time>
      </trkpt>
      <trkpt lat="43.43445" lon="5.53028">
        <ele>433.9</ele>
        <time>2015-01-11T09:54:32.000Z</time>
      </trkpt>
      <trkpt lat="43.4344" lon="5.5303">
        <ele>434.1</ele>
        <time>2015-01-11T09:54:34.000Z</time>
      </trkpt>
      <trkpt lat="43.43435" lon="5.53033">
        <ele>434.7</ele>
        <time>2015-01-11T09:54:38.000Z</time>
      </trkpt>
      <trkpt lat="43.4343" lon="5.53037">
        <ele>435.8</ele>
        <time>2015-01-11T09:54:54.000Z</time>
      </trkpt>
      <trkpt lat="43.43425" lon="5.53038">
        <ele>436.2</ele>
        <time>2015-01-11T09:54:58.000Z</time>
      </trkpt>
      <trkpt lat="43.43418" lon="5.53037">
        <ele>436.3</ele>
        <time>2015-01-11T09:55:01.000Z</time>
      </trkpt>
      <trkpt lat="43.43412" lon="5.53036">
        <ele>436.4</ele>
        <time>2015-01-11T09:55:03.000Z</time>
      </trkpt>
      <trkpt lat="43.43404" lon="5.53036">
        <ele>436.6</ele>
        <time>2015-01-11T09:55:05.000Z</time>
      </trkpt>
      <trkpt lat="43.43398" lon="5.53036">
        <ele>436.6</ele>
        <time>2015-01-11T09:55:07.000Z</time>
      </trkpt>
      <trkpt lat="43.43392" lon="5.53036">
        <ele>436.7</ele>
        <time>2015-01-11T09:55:09.000Z</time>
      </trkpt>
      <trkpt lat="43.43385" lon="5.53037">
        <ele>436.7</ele>
        <time>2015-01-11T09:55:11.000Z</time>
      </trkpt>
      <trkpt lat="43.43379" lon="5.53038">
        <ele>436.7</ele>
        <time>2015-01-11T09:55:13.000Z</time>
      </trkpt>
      <trkpt lat="43.43374" lon="5.53038">
        <ele>436.6</ele>
        <time>2015-01-11T09:55:15.000Z</time>
      </trkpt>
      <trkpt lat="43.43368" lon="5.53037">
        <ele>436.7</ele>
        <time>2015-01-11T09:55:17.000Z</time>
      </trkpt>
      <trkpt lat="43.43361" lon="5.53035">
        <ele>436.7</ele>
        <time>2015-01-11T09:55:19.000Z</time>
      </trkpt>
      <trkpt lat="43.43354" lon="5.53032">
        <ele>436.6</ele>
        <time>2015-01-11T09:55:21.000Z</time>
      </trkpt>
      <trkpt lat="43.43349" lon="5.5303">
        <ele>436.7</ele>
        <time>2015-01-11T09:55:23.000Z</time>
      </trkpt>
      <trkpt lat="43.43343" lon="5.5303">
        <ele>436.9</ele>
        <time>2015-01-11T09:55:26.000Z</time>
      </trkpt>
      <trkpt lat="43.43337" lon="5.53033">
        <ele>437</ele>
        <time>2015-01-11T09:55:28.000Z</time>
      </trkpt>
      <trkpt lat="43.4333" lon="5.53038">
        <ele>437.7</ele>
        <time>2015-01-11T09:55:30.000Z</time>
      </trkpt>
      <trkpt lat="43.43326" lon="5.53041">
        <ele>437.2</ele>
        <time>2015-01-11T09:55:31.000Z</time>
      </trkpt>
      <trkpt lat="43.4332" lon="5.53047">
        <ele>435.9</ele>
        <time>2015-01-11T09:55:33.000Z</time>
      </trkpt>
      <trkpt lat="43.43316" lon="5.53056">
        <ele>434.8</ele>
        <time>2015-01-11T09:55:35.000Z</time>
      </trkpt>
      <trkpt lat="43.43319" lon="5.53068">
        <ele>433.6</ele>
        <time>2015-01-11T09:55:37.000Z</time>
      </trkpt>
      <trkpt lat="43.43322" lon="5.53078">
        <ele>433.4</ele>
        <time>2015-01-11T09:55:39.000Z</time>
      </trkpt>
      <trkpt lat="43.43324" lon="5.53089">
        <ele>433.2</ele>
        <time>2015-01-11T09:55:41.000Z</time>
      </trkpt>
      <trkpt lat="43.43322" lon="5.531">
        <ele>432.9</ele>
        <time>2015-01-11T09:55:43.000Z</time>
      </trkpt>
      <trkpt lat="43.43318" lon="5.53105">
        <ele>432.6</ele>
        <time>2015-01-11T09:55:45.000Z</time>
      </trkpt>
      <trkpt lat="43.43313" lon="5.53108">
        <ele>432.3</ele>
        <time>2015-01-11T09:55:47.000Z</time>
      </trkpt>
      <trkpt lat="43.43308" lon="5.53114">
        <ele>432</ele>
        <time>2015-01-11T09:55:49.000Z</time>
      </trkpt>
      <trkpt lat="43.43304" lon="5.5312">
        <ele>431.6</ele>
        <time>2015-01-11T09:55:51.000Z</time>
      </trkpt>
      <trkpt lat="43.43301" lon="5.53127">
        <ele>431.3</ele>
        <time>2015-01-11T09:55:54.000Z</time>
      </trkpt>
      <trkpt lat="43.43298" lon="5.53135">
        <ele>431.1</ele>
        <time>2015-01-11T09:55:56.000Z</time>
      </trkpt>
      <trkpt lat="43.43302" lon="5.53143">
        <ele>430</ele>
        <time>2015-01-11T09:55:58.000Z</time>
      </trkpt>
      <trkpt lat="43.43306" lon="5.53155">
        <ele>429</ele>
        <time>2015-01-11T09:56:00.000Z</time>
      </trkpt>
      <trkpt lat="43.43308" lon="5.53162">
        <ele>427.5</ele>
        <time>2015-01-11T09:56:01.000Z</time>
      </trkpt>
      <trkpt lat="43.43311" lon="5.53168">
        <ele>426.6</ele>
        <time>2015-01-11T09:56:02.000Z</time>
      </trkpt>
      <trkpt lat="43.43314" lon="5.53174">
        <ele>425.5</ele>
        <time>2015-01-11T09:56:03.000Z</time>
      </trkpt>
      <trkpt lat="43.4332" lon="5.53183">
        <ele>423.2</ele>
        <time>2015-01-11T09:56:05.000Z</time>
      </trkpt>
      <trkpt lat="43.43323" lon="5.53188">
        <ele>422.3</ele>
        <time>2015-01-11T09:56:06.000Z</time>
      </trkpt>
      <trkpt lat="43.43326" lon="5.53192">
        <ele>422.2</ele>
        <time>2015-01-11T09:56:07.000Z</time>
      </trkpt>
      <trkpt lat="43.43334" lon="5.53199">
        <ele>422</ele>
        <time>2015-01-11T09:56:09.000Z</time>
      </trkpt>
      <trkpt lat="43.4334" lon="5.53201">
        <ele>421.7</ele>
        <time>2015-01-11T09:56:10.000Z</time>
      </trkpt>
      <trkpt lat="43.43345" lon="5.53203">
        <ele>421.2</ele>
        <time>2015-01-11T09:56:11.000Z</time>
      </trkpt>
      <trkpt lat="43.43349" lon="5.53204">
        <ele>420.7</ele>
        <time>2015-01-11T09:56:12.000Z</time>
      </trkpt>
      <trkpt lat="43.43355" lon="5.53214">
        <ele>419.7</ele>
        <time>2015-01-11T09:56:14.000Z</time>
      </trkpt>
      <trkpt lat="43.43357" lon="5.53219">
        <ele>419.3</ele>
        <time>2015-01-11T09:56:15.000Z</time>
      </trkpt>
      <trkpt lat="43.43361" lon="5.53224">
        <ele>418.5</ele>
        <time>2015-01-11T09:56:16.000Z</time>
      </trkpt>
      <trkpt lat="43.43366" lon="5.53231">
        <ele>417.9</ele>
        <time>2015-01-11T09:56:17.000Z</time>
      </trkpt>
      <trkpt lat="43.43371" lon="5.53237">
        <ele>417.8</ele>
        <time>2015-01-11T09:56:18.000Z</time>
      </trkpt>
      <trkpt lat="43.43374" lon="5.53244">
        <ele>417.1</ele>
        <time>2015-01-11T09:56:19.000Z</time>
      </trkpt>
      <trkpt lat="43.43376" lon="5.53251">
        <ele>416.3</ele>
        <time>2015-01-11T09:56:20.000Z</time>
      </trkpt>
      <trkpt lat="43.43378" lon="5.53259">
        <ele>415.9</ele>
        <time>2015-01-11T09:56:21.000Z</time>
      </trkpt>
      <trkpt lat="43.43379" lon="5.53266">
        <ele>415.4</ele>
        <time>2015-01-11T09:56:22.000Z</time>
      </trkpt>
      <trkpt lat="43.43379" lon="5.53273">
        <ele>415.5</ele>
        <time>2015-01-11T09:56:23.000Z</time>
      </trkpt>
      <trkpt lat="43.43379" lon="5.5328">
        <ele>415.8</ele>
        <time>2015-01-11T09:56:24.000Z</time>
      </trkpt>
      <trkpt lat="43.43377" lon="5.53289">
        <ele>415.8</ele>
        <time>2015-01-11T09:56:26.000Z</time>
      </trkpt>
      <trkpt lat="43.43377" lon="5.53299">
        <ele>415.6</ele>
        <time>2015-01-11T09:56:28.000Z</time>
      </trkpt>
      <trkpt lat="43.43378" lon="5.53311">
        <ele>412.7</ele>
        <time>2015-01-11T09:56:30.000Z</time>
      </trkpt>
      <trkpt lat="43.43378" lon="5.53319">
        <ele>412.3</ele>
        <time>2015-01-11T09:56:31.000Z</time>
      </trkpt>
      <trkpt lat="43.43379" lon="5.53327">
        <ele>411.4</ele>
        <time>2015-01-11T09:56:32.000Z</time>
      </trkpt>
      <trkpt lat="43.4338" lon="5.53335">
        <ele>410.7</ele>
        <time>2015-01-11T09:56:33.000Z</time>
      </trkpt>
      <trkpt lat="43.4338" lon="5.53343">
        <ele>409.1</ele>
        <time>2015-01-11T09:56:34.000Z</time>
      </trkpt>
      <trkpt lat="43.43381" lon="5.53351">
        <ele>408.3</ele>
        <time>2015-01-11T09:56:35.000Z</time>
      </trkpt>
      <trkpt lat="43.43382" lon="5.53358">
        <ele>407.8</ele>
        <time>2015-01-11T09:56:36.000Z</time>
      </trkpt>
      <trkpt lat="43.43383" lon="5.53367">
        <ele>407.1</ele>
        <time>2015-01-11T09:56:37.000Z</time>
      </trkpt>
      <trkpt lat="43.43384" lon="5.53374">
        <ele>407.5</ele>
        <time>2015-01-11T09:56:38.000Z</time>
      </trkpt>
      <trkpt lat="43.43384" lon="5.53381">
        <ele>407.8</ele>
        <time>2015-01-11T09:56:39.000Z</time>
      </trkpt>
      <trkpt lat="43.43385" lon="5.53388">
        <ele>408.2</ele>
        <time>2015-01-11T09:56:40.000Z</time>
      </trkpt>
      <trkpt lat="43.43386" lon="5.53395">
        <ele>409.2</ele>
        <time>2015-01-11T09:56:41.000Z</time>
      </trkpt>
      <trkpt lat="43.4338" lon="5.53403">
        <ele>411.1</ele>
        <time>2015-01-11T09:56:43.000Z</time>
      </trkpt>
      <trkpt lat="43.43374" lon="5.53407">
        <ele>411.1</ele>
        <time>2015-01-11T09:56:45.000Z</time>
      </trkpt>
      <trkpt lat="43.43378" lon="5.53403">
        <ele>410.6</ele>
        <time>2015-01-11T09:57:04.000Z</time>
      </trkpt>
      <trkpt lat="43.43375" lon="5.53408">
        <ele>410.2</ele>
        <time>2015-01-11T09:57:21.000Z</time>
      </trkpt>
      <trkpt lat="43.43373" lon="5.53414">
        <ele>405.8</ele>
        <time>2015-01-11T09:58:10.000Z</time>
      </trkpt>
      <trkpt lat="43.43374" lon="5.53422">
        <ele>405</ele>
        <time>2015-01-11T09:58:13.000Z</time>
      </trkpt>
      <trkpt lat="43.43373" lon="5.5343">
        <ele>404.6</ele>
        <time>2015-01-11T09:58:15.000Z</time>
      </trkpt>
      <trkpt lat="43.43373" lon="5.5344">
        <ele>400.6</ele>
        <time>2015-01-11T09:58:17.000Z</time>
      </trkpt>
      <trkpt lat="43.4337" lon="5.5345">
        <ele>400.2</ele>
        <time>2015-01-11T09:58:19.000Z</time>
      </trkpt>
      <trkpt lat="43.43365" lon="5.53458">
        <ele>398.9</ele>
        <time>2015-01-11T09:58:21.000Z</time>
      </trkpt>
      <trkpt lat="43.4336" lon="5.53459">
        <ele>398.8</ele>
        <time>2015-01-11T09:58:23.000Z</time>
      </trkpt>
      <trkpt lat="43.43354" lon="5.53457">
        <ele>398.8</ele>
        <time>2015-01-11T09:58:25.000Z</time>
      </trkpt>
      <trkpt lat="43.43349" lon="5.53454">
        <ele>399</ele>
        <time>2015-01-11T09:58:27.000Z</time>
      </trkpt>
      <trkpt lat="43.43343" lon="5.53453">
        <ele>399.3</ele>
        <time>2015-01-11T09:58:29.000Z</time>
      </trkpt>
      <trkpt lat="43.43338" lon="5.53452">
        <ele>399.5</ele>
        <time>2015-01-11T09:58:31.000Z</time>
      </trkpt>
      <trkpt lat="43.43332" lon="5.5345">
        <ele>399.7</ele>
        <time>2015-01-11T09:58:33.000Z</time>
      </trkpt>
      <trkpt lat="43.43328" lon="5.53449">
        <ele>399.9</ele>
        <time>2015-01-11T09:58:35.000Z</time>
      </trkpt>
      <trkpt lat="43.43322" lon="5.53448">
        <ele>400</ele>
        <time>2015-01-11T09:58:37.000Z</time>
      </trkpt>
      <trkpt lat="43.43315" lon="5.53444">
        <ele>400.1</ele>
        <time>2015-01-11T09:58:39.000Z</time>
      </trkpt>
      <trkpt lat="43.43309" lon="5.53441">
        <ele>400.3</ele>
        <time>2015-01-11T09:58:41.000Z</time>
      </trkpt>
      <trkpt lat="43.43303" lon="5.53438">
        <ele>400.5</ele>
        <time>2015-01-11T09:58:43.000Z</time>
      </trkpt>
      <trkpt lat="43.43298" lon="5.53438">
        <ele>400.7</ele>
        <time>2015-01-11T09:58:45.000Z</time>
      </trkpt>
      <trkpt lat="43.43294" lon="5.53438">
        <ele>400.7</ele>
        <time>2015-01-11T09:58:48.000Z</time>
      </trkpt>
      <trkpt lat="43.43288" lon="5.53435">
        <ele>400.8</ele>
        <time>2015-01-11T09:58:51.000Z</time>
      </trkpt>
      <trkpt lat="43.43282" lon="5.53434">
        <ele>400.9</ele>
        <time>2015-01-11T09:58:54.000Z</time>
      </trkpt>
      <trkpt lat="43.43276" lon="5.53434">
        <ele>401.1</ele>
        <time>2015-01-11T09:58:57.000Z</time>
      </trkpt>
      <trkpt lat="43.43272" lon="5.53435">
        <ele>401.3</ele>
        <time>2015-01-11T09:58:59.000Z</time>
      </trkpt>
      <trkpt lat="43.43267" lon="5.53437">
        <ele>401.5</ele>
        <time>2015-01-11T09:59:01.000Z</time>
      </trkpt>
      <trkpt lat="43.43263" lon="5.5344">
        <ele>401.6</ele>
        <time>2015-01-11T09:59:03.000Z</time>
      </trkpt>
      <trkpt lat="43.43257" lon="5.53445">
        <ele>401.7</ele>
        <time>2015-01-11T09:59:05.000Z</time>
      </trkpt>
      <trkpt lat="43.4325" lon="5.5345">
        <ele>401.8</ele>
        <time>2015-01-11T09:59:07.000Z</time>
      </trkpt>
      <trkpt lat="43.43246" lon="5.53453">
        <ele>402.4</ele>
        <time>2015-01-11T09:59:08.000Z</time>
      </trkpt>
      <trkpt lat="43.43242" lon="5.53458">
        <ele>402.6</ele>
        <time>2015-01-11T09:59:09.000Z</time>
      </trkpt>
      <trkpt lat="43.43238" lon="5.53462">
        <ele>403.3</ele>
        <time>2015-01-11T09:59:10.000Z</time>
      </trkpt>
      <trkpt lat="43.43233" lon="5.53466">
        <ele>403.9</ele>
        <time>2015-01-11T09:59:11.000Z</time>
      </trkpt>
      <trkpt lat="43.43229" lon="5.53469">
        <ele>404.9</ele>
        <time>2015-01-11T09:59:12.000Z</time>
      </trkpt>
      <trkpt lat="43.43226" lon="5.53475">
        <ele>405</ele>
        <time>2015-01-11T09:59:14.000Z</time>
      </trkpt>
      <trkpt lat="43.43222" lon="5.53484">
        <ele>404.7</ele>
        <time>2015-01-11T09:59:46.000Z</time>
      </trkpt>
      <trkpt lat="43.43219" lon="5.53492">
        <ele>404.6</ele>
        <time>2015-01-11T09:59:48.000Z</time>
      </trkpt>
      <trkpt lat="43.43218" lon="5.53504">
        <ele>403.5</ele>
        <time>2015-01-11T09:59:50.000Z</time>
      </trkpt>
      <trkpt lat="43.43218" lon="5.53511">
        <ele>403.1</ele>
        <time>2015-01-11T09:59:51.000Z</time>
      </trkpt>
      <trkpt lat="43.43218" lon="5.53518">
        <ele>402.4</ele>
        <time>2015-01-11T09:59:52.000Z</time>
      </trkpt>
      <trkpt lat="43.43218" lon="5.53525">
        <ele>401.5</ele>
        <time>2015-01-11T09:59:53.000Z</time>
      </trkpt>
      <trkpt lat="43.43219" lon="5.53532">
        <ele>400.7</ele>
        <time>2015-01-11T09:59:54.000Z</time>
      </trkpt>
      <trkpt lat="43.43219" lon="5.53538">
        <ele>400.2</ele>
        <time>2015-01-11T09:59:55.000Z</time>
      </trkpt>
      <trkpt lat="43.4322" lon="5.5355">
        <ele>398.4</ele>
        <time>2015-01-11T09:59:57.000Z</time>
      </trkpt>
      <trkpt lat="43.43221" lon="5.53561">
        <ele>396.9</ele>
        <time>2015-01-11T09:59:59.000Z</time>
      </trkpt>
      <trkpt lat="43.43222" lon="5.53568">
        <ele>396</ele>
        <time>2015-01-11T10:00:00.000Z</time>
      </trkpt>
      <trkpt lat="43.43222" lon="5.53574">
        <ele>395.1</ele>
        <time>2015-01-11T10:00:01.000Z</time>
      </trkpt>
      <trkpt lat="43.43223" lon="5.53587">
        <ele>394.7</ele>
        <time>2015-01-11T10:00:03.000Z</time>
      </trkpt>
      <trkpt lat="43.43224" lon="5.53594">
        <ele>394.5</ele>
        <time>2015-01-11T10:00:04.000Z</time>
      </trkpt>
      <trkpt lat="43.43225" lon="5.536">
        <ele>393.9</ele>
        <time>2015-01-11T10:00:05.000Z</time>
      </trkpt>
      <trkpt lat="43.43227" lon="5.53611">
        <ele>393.6</ele>
        <time>2015-01-11T10:00:07.000Z</time>
      </trkpt>
      <trkpt lat="43.43229" lon="5.53621">
        <ele>392.7</ele>
        <time>2015-01-11T10:00:09.000Z</time>
      </trkpt>
      <trkpt lat="43.43231" lon="5.5363">
        <ele>392.2</ele>
        <time>2015-01-11T10:00:11.000Z</time>
      </trkpt>
      <trkpt lat="43.43234" lon="5.53638">
        <ele>392</ele>
        <time>2015-01-11T10:00:13.000Z</time>
      </trkpt>
      <trkpt lat="43.43236" lon="5.53644">
        <ele>391.7</ele>
        <time>2015-01-11T10:00:15.000Z</time>
      </trkpt>
      <trkpt lat="43.43237" lon="5.5365">
        <ele>391.4</ele>
        <time>2015-01-11T10:00:18.000Z</time>
      </trkpt>
      <trkpt lat="43.43237" lon="5.53659">
        <ele>391.1</ele>
        <time>2015-01-11T10:00:20.000Z</time>
      </trkpt>
      <trkpt lat="43.43237" lon="5.5367">
        <ele>390.9</ele>
        <time>2015-01-11T10:00:22.000Z</time>
      </trkpt>
      <trkpt lat="43.43236" lon="5.53681">
        <ele>390.6</ele>
        <time>2015-01-11T10:00:24.000Z</time>
      </trkpt>
      <trkpt lat="43.43234" lon="5.5369">
        <ele>390.2</ele>
        <time>2015-01-11T10:00:26.000Z</time>
      </trkpt>
      <trkpt lat="43.43232" lon="5.53701">
        <ele>387.7</ele>
        <time>2015-01-11T10:00:28.000Z</time>
      </trkpt>
      <trkpt lat="43.43231" lon="5.53707">
        <ele>386.3</ele>
        <time>2015-01-11T10:00:29.000Z</time>
      </trkpt>
      <trkpt lat="43.4323" lon="5.53714">
        <ele>385.9</ele>
        <time>2015-01-11T10:00:30.000Z</time>
      </trkpt>
      <trkpt lat="43.43229" lon="5.53719">
        <ele>384.9</ele>
        <time>2015-01-11T10:00:31.000Z</time>
      </trkpt>
      <trkpt lat="43.43227" lon="5.53725">
        <ele>384.1</ele>
        <time>2015-01-11T10:00:32.000Z</time>
      </trkpt>
      <trkpt lat="43.43224" lon="5.53732">
        <ele>383.1</ele>
        <time>2015-01-11T10:00:33.000Z</time>
      </trkpt>
      <trkpt lat="43.43222" lon="5.5374">
        <ele>382</ele>
        <time>2015-01-11T10:00:34.000Z</time>
      </trkpt>
      <trkpt lat="43.4322" lon="5.53748">
        <ele>380.9</ele>
        <time>2015-01-11T10:00:35.000Z</time>
      </trkpt>
      <trkpt lat="43.43218" lon="5.53756">
        <ele>380.1</ele>
        <time>2015-01-11T10:00:36.000Z</time>
      </trkpt>
      <trkpt lat="43.43215" lon="5.53764">
        <ele>379.2</ele>
        <time>2015-01-11T10:00:37.000Z</time>
      </trkpt>
      <trkpt lat="43.43212" lon="5.53773">
        <ele>378.4</ele>
        <time>2015-01-11T10:00:38.000Z</time>
      </trkpt>
      <trkpt lat="43.43209" lon="5.53783">
        <ele>378</ele>
        <time>2015-01-11T10:00:39.000Z</time>
      </trkpt>
      <trkpt lat="43.43206" lon="5.53793">
        <ele>377.9</ele>
        <time>2015-01-11T10:00:40.000Z</time>
      </trkpt>
      <trkpt lat="43.43203" lon="5.53804">
        <ele>377.9</ele>
        <time>2015-01-11T10:00:41.000Z</time>
      </trkpt>
      <trkpt lat="43.432" lon="5.53814">
        <ele>377.9</ele>
        <time>2015-01-11T10:00:42.000Z</time>
      </trkpt>
      <trkpt lat="43.43199" lon="5.53823">
        <ele>377.9</ele>
        <time>2015-01-11T10:00:43.000Z</time>
      </trkpt>
      <trkpt lat="43.43199" lon="5.53832">
        <ele>377.9</ele>
        <time>2015-01-11T10:00:44.000Z</time>
      </trkpt>
      <trkpt lat="43.432" lon="5.53842">
        <ele>377.6</ele>
        <time>2015-01-11T10:00:45.000Z</time>
      </trkpt>
      <trkpt lat="43.43202" lon="5.53851">
        <ele>377.5</ele>
        <time>2015-01-11T10:00:46.000Z</time>
      </trkpt>
      <trkpt lat="43.43205" lon="5.53858">
        <ele>377.5</ele>
        <time>2015-01-11T10:00:47.000Z</time>
      </trkpt>
      <trkpt lat="43.43207" lon="5.53867">
        <ele>377.5</ele>
        <time>2015-01-11T10:00:49.000Z</time>
      </trkpt>
      <trkpt lat="43.43211" lon="5.53876">
        <ele>377.3</ele>
        <time>2015-01-11T10:00:51.000Z</time>
      </trkpt>
      <trkpt lat="43.43215" lon="5.53887">
        <ele>377.1</ele>
        <time>2015-01-11T10:00:53.000Z</time>
      </trkpt>
      <trkpt lat="43.43218" lon="5.53898">
        <ele>376.2</ele>
        <time>2015-01-11T10:00:55.000Z</time>
      </trkpt>
      <trkpt lat="43.4322" lon="5.53904">
        <ele>375.3</ele>
        <time>2015-01-11T10:00:56.000Z</time>
      </trkpt>
      <trkpt lat="43.43222" lon="5.53917">
        <ele>375</ele>
        <time>2015-01-11T10:00:58.000Z</time>
      </trkpt>
      <trkpt lat="43.43223" lon="5.53925">
        <ele>374.4</ele>
        <time>2015-01-11T10:00:59.000Z</time>
      </trkpt>
      <trkpt lat="43.43225" lon="5.53934">
        <ele>374</ele>
        <time>2015-01-11T10:01:00.000Z</time>
      </trkpt>
      <trkpt lat="43.43226" lon="5.53942">
        <ele>374.2</ele>
        <time>2015-01-11T10:01:01.000Z</time>
      </trkpt>
      <trkpt lat="43.43226" lon="5.53952">
        <ele>374.2</ele>
        <time>2015-01-11T10:01:02.000Z</time>
      </trkpt>
      <trkpt lat="43.43227" lon="5.53961">
        <ele>373.9</ele>
        <time>2015-01-11T10:01:03.000Z</time>
      </trkpt>
      <trkpt lat="43.43228" lon="5.5397">
        <ele>374</ele>
        <time>2015-01-11T10:01:04.000Z</time>
      </trkpt>
      <trkpt lat="43.43229" lon="5.53977">
        <ele>373.6</ele>
        <time>2015-01-11T10:01:05.000Z</time>
      </trkpt>
      <trkpt lat="43.4323" lon="5.53987">
        <ele>373.5</ele>
        <time>2015-01-11T10:01:06.000Z</time>
      </trkpt>
      <trkpt lat="43.43232" lon="5.53996">
        <ele>373</ele>
        <time>2015-01-11T10:01:07.000Z</time>
      </trkpt>
      <trkpt lat="43.43233" lon="5.54006">
        <ele>372.7</ele>
        <time>2015-01-11T10:01:08.000Z</time>
      </trkpt>
      <trkpt lat="43.43234" lon="5.54017">
        <ele>372.4</ele>
        <time>2015-01-11T10:01:09.000Z</time>
      </trkpt>
      <trkpt lat="43.43236" lon="5.54028">
        <ele>371.9</ele>
        <time>2015-01-11T10:01:10.000Z</time>
      </trkpt>
      <trkpt lat="43.43237" lon="5.54035">
        <ele>371.7</ele>
        <time>2015-01-11T10:01:11.000Z</time>
      </trkpt>
      <trkpt lat="43.43238" lon="5.54048">
        <ele>370.9</ele>
        <time>2015-01-11T10:01:13.000Z</time>
      </trkpt>
      <trkpt lat="43.43238" lon="5.54056">
        <ele>371.1</ele>
        <time>2015-01-11T10:01:14.000Z</time>
      </trkpt>
      <trkpt lat="43.43241" lon="5.54064">
        <ele>371.3</ele>
        <time>2015-01-11T10:01:15.000Z</time>
      </trkpt>
      <trkpt lat="43.43244" lon="5.54073">
        <ele>371.4</ele>
        <time>2015-01-11T10:01:16.000Z</time>
      </trkpt>
      <trkpt lat="43.43246" lon="5.54081">
        <ele>371.9</ele>
        <time>2015-01-11T10:01:17.000Z</time>
      </trkpt>
      <trkpt lat="43.43249" lon="5.54088">
        <ele>372.1</ele>
        <time>2015-01-11T10:01:18.000Z</time>
      </trkpt>
      <trkpt lat="43.43251" lon="5.54094">
        <ele>372.1</ele>
        <time>2015-01-11T10:01:19.000Z</time>
      </trkpt>
      <trkpt lat="43.43253" lon="5.541">
        <ele>372</ele>
        <time>2015-01-11T10:01:20.000Z</time>
      </trkpt>
      <trkpt lat="43.43255" lon="5.54111">
        <ele>370.9</ele>
        <time>2015-01-11T10:01:22.000Z</time>
      </trkpt>
      <trkpt lat="43.43255" lon="5.54117">
        <ele>370.8</ele>
        <time>2015-01-11T10:01:23.000Z</time>
      </trkpt>
      <trkpt lat="43.43257" lon="5.54124">
        <ele>370.8</ele>
        <time>2015-01-11T10:01:25.000Z</time>
      </trkpt>
      <trkpt lat="43.43257" lon="5.54124">
        <ele>370.8</ele>
        <time>2015-01-11T10:01:25.000Z</time>
      </trkpt>
      <trkpt lat="43.43257" lon="5.54124">
        <ele>370.6</ele>
        <time>2015-01-11T10:01:35.000Z</time>
      </trkpt>
      <trkpt lat="43.43258" lon="5.54134">
        <ele>370.8</ele>
        <time>2015-01-11T10:01:37.000Z</time>
      </trkpt>
      <trkpt lat="43.4326" lon="5.54144">
        <ele>371.2</ele>
        <time>2015-01-11T10:01:39.000Z</time>
      </trkpt>
      <trkpt lat="43.43262" lon="5.54154">
        <ele>371.5</ele>
        <time>2015-01-11T10:01:41.000Z</time>
      </trkpt>
      <trkpt lat="43.43262" lon="5.54162">
        <ele>371.8</ele>
        <time>2015-01-11T10:01:44.000Z</time>
      </trkpt>
      <trkpt lat="43.43256" lon="5.54167">
        <ele>372.1</ele>
        <time>2015-01-11T10:01:47.000Z</time>
      </trkpt>
      <trkpt lat="43.43252" lon="5.5417">
        <ele>372.1</ele>
        <time>2015-01-11T10:01:49.000Z</time>
      </trkpt>
      <trkpt lat="43.43248" lon="5.54174">
        <ele>372.2</ele>
        <time>2015-01-11T10:01:51.000Z</time>
      </trkpt>
      <trkpt lat="43.43241" lon="5.54176">
        <ele>372.4</ele>
        <time>2015-01-11T10:01:53.000Z</time>
      </trkpt>
      <trkpt lat="43.43236" lon="5.54179">
        <ele>372.4</ele>
        <time>2015-01-11T10:01:55.000Z</time>
      </trkpt>
      <trkpt lat="43.43232" lon="5.54184">
        <ele>372.4</ele>
        <time>2015-01-11T10:01:57.000Z</time>
      </trkpt>
      <trkpt lat="43.43231" lon="5.54195">
        <ele>371.9</ele>
        <time>2015-01-11T10:01:59.000Z</time>
      </trkpt>
      <trkpt lat="43.43234" lon="5.54205">
        <ele>371.9</ele>
        <time>2015-01-11T10:02:01.000Z</time>
      </trkpt>
      <trkpt lat="43.43237" lon="5.54213">
        <ele>371.8</ele>
        <time>2015-01-11T10:02:03.000Z</time>
      </trkpt>
      <trkpt lat="43.43242" lon="5.5422">
        <ele>371.8</ele>
        <time>2015-01-11T10:02:05.000Z</time>
      </trkpt>
      <trkpt lat="43.43248" lon="5.54228">
        <ele>371.2</ele>
        <time>2015-01-11T10:02:07.000Z</time>
      </trkpt>
      <trkpt lat="43.43252" lon="5.54234">
        <ele>371.1</ele>
        <time>2015-01-11T10:02:09.000Z</time>
      </trkpt>
      <trkpt lat="43.43256" lon="5.54237">
        <ele>371.2</ele>
        <time>2015-01-11T10:02:11.000Z</time>
      </trkpt>
      <trkpt lat="43.43256" lon="5.54237">
        <ele>371.2</ele>
        <time>2015-01-11T10:02:11.000Z</time>
      </trkpt>
      <trkpt lat="43.43256" lon="5.54237">
        <ele>371.3</ele>
        <time>2015-01-11T10:02:15.000Z</time>
      </trkpt>
      <trkpt lat="43.43261" lon="5.5424">
        <ele>371.3</ele>
        <time>2015-01-11T10:02:16.000Z</time>
      </trkpt>
      <trkpt lat="43.43266" lon="5.54237">
        <ele>371.3</ele>
        <time>2015-01-11T10:02:19.000Z</time>
      </trkpt>
      <trkpt lat="43.43272" lon="5.54232">
        <ele>371.3</ele>
        <time>2015-01-11T10:02:21.000Z</time>
      </trkpt>
      <trkpt lat="43.43276" lon="5.54227">
        <ele>371.3</ele>
        <time>2015-01-11T10:02:23.000Z</time>
      </trkpt>
      <trkpt lat="43.43282" lon="5.54223">
        <ele>371.4</ele>
        <time>2015-01-11T10:02:26.000Z</time>
      </trkpt>
      <trkpt lat="43.43286" lon="5.54224">
        <ele>371.5</ele>
        <time>2015-01-11T10:02:28.000Z</time>
      </trkpt>
      <trkpt lat="43.43293" lon="5.54228">
        <ele>371.8</ele>
        <time>2015-01-11T10:02:31.000Z</time>
      </trkpt>
      <trkpt lat="43.43293" lon="5.54228">
        <ele>371.8</ele>
        <time>2015-01-11T10:02:31.000Z</time>
      </trkpt>
      <trkpt lat="43.43293" lon="5.54228">
        <ele>371.8</ele>
        <time>2015-01-11T10:02:33.000Z</time>
      </trkpt>
      <trkpt lat="43.43292" lon="5.54239">
        <ele>371.8</ele>
        <time>2015-01-11T10:02:34.000Z</time>
      </trkpt>
      <trkpt lat="43.4329" lon="5.54248">
        <ele>371.8</ele>
        <time>2015-01-11T10:02:36.000Z</time>
      </trkpt>
      <trkpt lat="43.43286" lon="5.54255">
        <ele>371.7</ele>
        <time>2015-01-11T10:02:38.000Z</time>
      </trkpt>
      <trkpt lat="43.43282" lon="5.54261">
        <ele>371.5</ele>
        <time>2015-01-11T10:02:40.000Z</time>
      </trkpt>
      <trkpt lat="43.4328" lon="5.54266">
        <ele>371.3</ele>
        <time>2015-01-11T10:02:42.000Z</time>
      </trkpt>
      <trkpt lat="43.43276" lon="5.54274">
        <ele>371.2</ele>
        <time>2015-01-11T10:02:44.000Z</time>
      </trkpt>
      <trkpt lat="43.43273" lon="5.54281">
        <ele>371.2</ele>
        <time>2015-01-11T10:02:46.000Z</time>
      </trkpt>
      <trkpt lat="43.43269" lon="5.5429">
        <ele>371.2</ele>
        <time>2015-01-11T10:02:48.000Z</time>
      </trkpt>
      <trkpt lat="43.43266" lon="5.54298">
        <ele>371.2</ele>
        <time>2015-01-11T10:02:50.000Z</time>
      </trkpt>
      <trkpt lat="43.43262" lon="5.54308">
        <ele>371.3</ele>
        <time>2015-01-11T10:02:52.000Z</time>
      </trkpt>
      <trkpt lat="43.4326" lon="5.54317">
        <ele>371.2</ele>
        <time>2015-01-11T10:02:54.000Z</time>
      </trkpt>
      <trkpt lat="43.43258" lon="5.54325">
        <ele>371</ele>
        <time>2015-01-11T10:02:56.000Z</time>
      </trkpt>
      <trkpt lat="43.43254" lon="5.54336">
        <ele>370</ele>
        <time>2015-01-11T10:02:58.000Z</time>
      </trkpt>
      <trkpt lat="43.43251" lon="5.54346">
        <ele>369.9</ele>
        <time>2015-01-11T10:03:00.000Z</time>
      </trkpt>
      <trkpt lat="43.43247" lon="5.54355">
        <ele>369.3</ele>
        <time>2015-01-11T10:03:02.000Z</time>
      </trkpt>
      <trkpt lat="43.43245" lon="5.54361">
        <ele>369.2</ele>
        <time>2015-01-11T10:03:03.000Z</time>
      </trkpt>
      <trkpt lat="43.43243" lon="5.54366">
        <ele>369.4</ele>
        <time>2015-01-11T10:03:04.000Z</time>
      </trkpt>
      <trkpt lat="43.43238" lon="5.54376">
        <ele>368.9</ele>
        <time>2015-01-11T10:03:06.000Z</time>
      </trkpt>
      <trkpt lat="43.43234" lon="5.54385">
        <ele>368</ele>
        <time>2015-01-11T10:03:08.000Z</time>
      </trkpt>
      <trkpt lat="43.43232" lon="5.54391">
        <ele>367.2</ele>
        <time>2015-01-11T10:03:09.000Z</time>
      </trkpt>
      <trkpt lat="43.4323" lon="5.54397">
        <ele>366.6</ele>
        <time>2015-01-11T10:03:10.000Z</time>
      </trkpt>
      <trkpt lat="43.43227" lon="5.54403">
        <ele>366.6</ele>
        <time>2015-01-11T10:03:11.000Z</time>
      </trkpt>
      <trkpt lat="43.43226" lon="5.5441">
        <ele>366.8</ele>
        <time>2015-01-11T10:03:12.000Z</time>
      </trkpt>
      <trkpt lat="43.43224" lon="5.54417">
        <ele>366.7</ele>
        <time>2015-01-11T10:03:13.000Z</time>
      </trkpt>
      <trkpt lat="43.43222" lon="5.54427">
        <ele>367</ele>
        <time>2015-01-11T10:03:15.000Z</time>
      </trkpt>
      <trkpt lat="43.43218" lon="5.54436">
        <ele>367.4</ele>
        <time>2015-01-11T10:03:17.000Z</time>
      </trkpt>
      <trkpt lat="43.43214" lon="5.54446">
        <ele>367.6</ele>
        <time>2015-01-11T10:03:19.000Z</time>
      </trkpt>
      <trkpt lat="43.4321" lon="5.54456">
        <ele>367.7</ele>
        <time>2015-01-11T10:03:21.000Z</time>
      </trkpt>
      <trkpt lat="43.43207" lon="5.54462">
        <ele>367.7</ele>
        <time>2015-01-11T10:03:23.000Z</time>
      </trkpt>
      <trkpt lat="43.43203" lon="5.54468">
        <ele>367.9</ele>
        <time>2015-01-11T10:03:25.000Z</time>
      </trkpt>
      <trkpt lat="43.43199" lon="5.54472">
        <ele>368.1</ele>
        <time>2015-01-11T10:03:27.000Z</time>
      </trkpt>
      <trkpt lat="43.43192" lon="5.54473">
        <ele>368.3</ele>
        <time>2015-01-11T10:03:29.000Z</time>
      </trkpt>
      <trkpt lat="43.43187" lon="5.54472">
        <ele>368.5</ele>
        <time>2015-01-11T10:03:31.000Z</time>
      </trkpt>
      <trkpt lat="43.43181" lon="5.54476">
        <ele>368.8</ele>
        <time>2015-01-11T10:03:34.000Z</time>
      </trkpt>
      <trkpt lat="43.4318" lon="5.54485">
        <ele>368.9</ele>
        <time>2015-01-11T10:03:36.000Z</time>
      </trkpt>
      <trkpt lat="43.43181" lon="5.54492">
        <ele>369</ele>
        <time>2015-01-11T10:03:37.000Z</time>
      </trkpt>
      <trkpt lat="43.43184" lon="5.54501">
        <ele>369</ele>
        <time>2015-01-11T10:03:39.000Z</time>
      </trkpt>
      <trkpt lat="43.43186" lon="5.54507">
        <ele>369.1</ele>
        <time>2015-01-11T10:03:41.000Z</time>
      </trkpt>
      <trkpt lat="43.43189" lon="5.54516">
        <ele>370</ele>
        <time>2015-01-11T10:03:43.000Z</time>
      </trkpt>
      <trkpt lat="43.43191" lon="5.54523">
        <ele>370.4</ele>
        <time>2015-01-11T10:03:44.000Z</time>
      </trkpt>
      <trkpt lat="43.43192" lon="5.54531">
        <ele>370.5</ele>
        <time>2015-01-11T10:03:45.000Z</time>
      </trkpt>
      <trkpt lat="43.43194" lon="5.54539">
        <ele>370.4</ele>
        <time>2015-01-11T10:03:46.000Z</time>
      </trkpt>
      <trkpt lat="43.43195" lon="5.54547">
        <ele>370.4</ele>
        <time>2015-01-11T10:03:47.000Z</time>
      </trkpt>
      <trkpt lat="43.43196" lon="5.54557">
        <ele>370.2</ele>
        <time>2015-01-11T10:03:48.000Z</time>
      </trkpt>
      <trkpt lat="43.43198" lon="5.54567">
        <ele>370</ele>
        <time>2015-01-11T10:03:49.000Z</time>
      </trkpt>
      <trkpt lat="43.43199" lon="5.54576">
        <ele>370</ele>
        <time>2015-01-11T10:03:50.000Z</time>
      </trkpt>
      <trkpt lat="43.432" lon="5.54585">
        <ele>370.1</ele>
        <time>2015-01-11T10:03:51.000Z</time>
      </trkpt>
      <trkpt lat="43.432" lon="5.54594">
        <ele>370.2</ele>
        <time>2015-01-11T10:03:52.000Z</time>
      </trkpt>
      <trkpt lat="43.43201" lon="5.54602">
        <ele>369.8</ele>
        <time>2015-01-11T10:03:53.000Z</time>
      </trkpt>
      <trkpt lat="43.43202" lon="5.54609">
        <ele>369.2</ele>
        <time>2015-01-11T10:03:54.000Z</time>
      </trkpt>
      <trkpt lat="43.43203" lon="5.54619">
        <ele>368.8</ele>
        <time>2015-01-11T10:03:55.000Z</time>
      </trkpt>
      <trkpt lat="43.43203" lon="5.54627">
        <ele>368.4</ele>
        <time>2015-01-11T10:03:56.000Z</time>
      </trkpt>
      <trkpt lat="43.43204" lon="5.54636">
        <ele>368</ele>
        <time>2015-01-11T10:03:57.000Z</time>
      </trkpt>
      <trkpt lat="43.43205" lon="5.54644">
        <ele>367.8</ele>
        <time>2015-01-11T10:03:58.000Z</time>
      </trkpt>
      <trkpt lat="43.43206" lon="5.54652">
        <ele>367.1</ele>
        <time>2015-01-11T10:03:59.000Z</time>
      </trkpt>
      <trkpt lat="43.43206" lon="5.54659">
        <ele>366.4</ele>
        <time>2015-01-11T10:04:00.000Z</time>
      </trkpt>
      <trkpt lat="43.43207" lon="5.54666">
        <ele>365.6</ele>
        <time>2015-01-11T10:04:01.000Z</time>
      </trkpt>
      <trkpt lat="43.43208" lon="5.54674">
        <ele>364.9</ele>
        <time>2015-01-11T10:04:02.000Z</time>
      </trkpt>
      <trkpt lat="43.43209" lon="5.54682">
        <ele>364.3</ele>
        <time>2015-01-11T10:04:03.000Z</time>
      </trkpt>
      <trkpt lat="43.4321" lon="5.54691">
        <ele>363.8</ele>
        <time>2015-01-11T10:04:04.000Z</time>
      </trkpt>
      <trkpt lat="43.4321" lon="5.54699">
        <ele>363.6</ele>
        <time>2015-01-11T10:04:05.000Z</time>
      </trkpt>
      <trkpt lat="43.43211" lon="5.54708">
        <ele>363.4</ele>
        <time>2015-01-11T10:04:06.000Z</time>
      </trkpt>
      <trkpt lat="43.43212" lon="5.54715">
        <ele>363.3</ele>
        <time>2015-01-11T10:04:07.000Z</time>
      </trkpt>
      <trkpt lat="43.43213" lon="5.54723">
        <ele>363.2</ele>
        <time>2015-01-11T10:04:08.000Z</time>
      </trkpt>
      <trkpt lat="43.43214" lon="5.54731">
        <ele>362.9</ele>
        <time>2015-01-11T10:04:09.000Z</time>
      </trkpt>
      <trkpt lat="43.43214" lon="5.54737">
        <ele>362.4</ele>
        <time>2015-01-11T10:04:10.000Z</time>
      </trkpt>
      <trkpt lat="43.43214" lon="5.54747">
        <ele>362.2</ele>
        <time>2015-01-11T10:04:12.000Z</time>
      </trkpt>
    </trkseg>
  </trk>
</gpx>